<?xml version='1.0' encoding='UTF-8'?><gpx version="1.1" creator="JPX - https://github.com/jenetics/jpx" xmlns="http://www.topografix.com/GPX/1/1"><trk><trkseg><trkpt lat="44.3217954" lon="8.3244"><ele>409.00000000000006</ele><time>2026-03-26T15:22:53.79Z</time></trkpt><trkpt lat="44.3218186" lon="8.3242751"><ele>409.0</ele><time>2026-03-26T15:22:54.79Z</time></trkpt><trkpt lat="44.3217519" lon="8.3241895"><ele>409.0</ele><time>2026-03-26T15:22:55.791Z</time></trkpt><trkpt lat="44.321674" lon="8.3241436"><ele>409.0</ele><time>2026-03-26T15:22:57.789Z</time></trkpt><trkpt lat="44.3216708" lon="8.3240492"><ele>409.00000000000006</ele><time>2026-03-26T15:24:25.79Z</time></trkpt><trkpt lat="44.3217378" lon="8.3240329"><ele>409.0</ele><time>2026-03-26T15:24:28.791Z</time></trkpt><trkpt lat="44.3217929" lon="8.3240863"><ele>409.00000000000006</ele><time>2026-03-26T15:24:30.788Z</time></trkpt><trkpt lat="44.3218528" lon="8.3241512"><ele>409.0</ele><time>2026-03-26T15:24:32.79Z</time></trkpt><trkpt lat="44.3219045" lon="8.324238"><ele>409.0</ele><time>2026-03-26T15:24:34.79Z</time></trkpt><trkpt lat="44.3219602" lon="8.3243293"><ele>409.0</ele><time>2026-03-26T15:24:36.788Z</time></trkpt><trkpt lat="44.3220171" lon="8.3244251"><ele>409.00000000000006</ele><time>2026-03-26T15:24:38.789Z</time></trkpt><trkpt lat="44.3220809" lon="8.3245118"><ele>409.0</ele><time>2026-03-26T15:24:40.79Z</time></trkpt><trkpt lat="44.3221481" lon="8.3245907"><ele>409.0</ele><time>2026-03-26T15:24:42.789Z</time></trkpt><trkpt lat="44.3222281" lon="8.3246464"><ele>409.0</ele><time>2026-03-26T15:24:44.789Z</time></trkpt><trkpt lat="44.3223246" lon="8.3246742"><ele>409.0</ele><time>2026-03-26T15:24:46.79Z</time></trkpt><trkpt lat="44.3224265" lon="8.3246671"><ele>409.0</ele><time>2026-03-26T15:24:48.789Z</time></trkpt><trkpt lat="44.3225207" lon="8.3246391"><ele>409.0</ele><time>2026-03-26T15:24:50.79Z</time></trkpt><trkpt lat="44.3226206" lon="8.3245854"><ele>409.4</ele><time>2026-03-26T15:24:52.789Z</time></trkpt><trkpt lat="44.3227061" lon="8.3245057"><ele>409.79999999999995</ele><time>2026-03-26T15:24:54.79Z</time></trkpt><trkpt lat="44.3227823" lon="8.3244174"><ele>410.20000000000005</ele><time>2026-03-26T15:24:56.789Z</time></trkpt><trkpt lat="44.3228603" lon="8.3243366"><ele>410.6</ele><time>2026-03-26T15:24:58.789Z</time></trkpt><trkpt lat="44.3229363" lon="8.324259"><ele>411.0</ele><time>2026-03-26T15:25:00.79Z</time></trkpt><trkpt lat="44.3230096" lon="8.3241788"><ele>411.0</ele><time>2026-03-26T15:25:02.788Z</time></trkpt><trkpt lat="44.3230791" lon="8.324108"><ele>411.0</ele><time>2026-03-26T15:25:04.79Z</time></trkpt><trkpt lat="44.3231528" lon="8.3240446"><ele>411.0</ele><time>2026-03-26T15:25:06.789Z</time></trkpt><trkpt lat="44.3232239" lon="8.3239898"><ele>411.0</ele><time>2026-03-26T15:25:08.788Z</time></trkpt><trkpt lat="44.3233025" lon="8.3239608"><ele>411.0</ele><time>2026-03-26T15:25:10.79Z</time></trkpt><trkpt lat="44.3233934" lon="8.3239437"><ele>411.0</ele><time>2026-03-26T15:25:12.789Z</time></trkpt><trkpt lat="44.3234845" lon="8.3239566"><ele>411.0</ele><time>2026-03-26T15:25:14.788Z</time></trkpt><trkpt lat="44.3235656" lon="8.3240141"><ele>411.0</ele><time>2026-03-26T15:25:16.789Z</time></trkpt><trkpt lat="44.3236433" lon="8.3241193"><ele>411.0</ele><time>2026-03-26T15:25:18.789Z</time></trkpt><trkpt lat="44.3237049" lon="8.3242431"><ele>411.0</ele><time>2026-03-26T15:25:20.789Z</time></trkpt><trkpt lat="44.3237512" lon="8.3243651"><ele>411.0</ele><time>2026-03-26T15:25:22.789Z</time></trkpt><trkpt lat="44.3237915" lon="8.3244893"><ele>411.0</ele><time>2026-03-26T15:25:24.79Z</time></trkpt><trkpt lat="44.323815" lon="8.3246213"><ele>411.0</ele><time>2026-03-26T15:25:26.79Z</time></trkpt><trkpt lat="44.3238266" lon="8.3247473"><ele>411.0</ele><time>2026-03-26T15:25:28.791Z</time></trkpt><trkpt lat="44.3238348" lon="8.3248755"><ele>411.0</ele><time>2026-03-26T15:25:30.788Z</time></trkpt><trkpt lat="44.3238561" lon="8.3249923"><ele>411.0</ele><time>2026-03-26T15:25:32.79Z</time></trkpt><trkpt lat="44.3238699" lon="8.3251121"><ele>410.8</ele><time>2026-03-26T15:25:34.788Z</time></trkpt><trkpt lat="44.3238863" lon="8.3252307"><ele>410.6</ele><time>2026-03-26T15:25:36.789Z</time></trkpt><trkpt lat="44.3239084" lon="8.3253529"><ele>410.4</ele><time>2026-03-26T15:25:38.79Z</time></trkpt><trkpt lat="44.3239298" lon="8.3254887"><ele>410.2</ele><time>2026-03-26T15:25:40.789Z</time></trkpt><trkpt lat="44.3239475" lon="8.3256209"><ele>410.0</ele><time>2026-03-26T15:25:42.789Z</time></trkpt><trkpt lat="44.3239652" lon="8.3257447"><ele>410.0</ele><time>2026-03-26T15:25:44.789Z</time></trkpt><trkpt lat="44.3239813" lon="8.3258642"><ele>410.0</ele><time>2026-03-26T15:25:46.789Z</time></trkpt><trkpt lat="44.3240039" lon="8.3259912"><ele>410.0</ele><time>2026-03-26T15:25:48.789Z</time></trkpt><trkpt lat="44.3240184" lon="8.3261221"><ele>410.0</ele><time>2026-03-26T15:25:50.789Z</time></trkpt><trkpt lat="44.3240393" lon="8.3262635"><ele>410.0</ele><time>2026-03-26T15:25:52.788Z</time></trkpt><trkpt lat="44.3240542" lon="8.3263929"><ele>412.6</ele><time>2026-03-26T15:25:54.789Z</time></trkpt><trkpt lat="44.3240828" lon="8.3265208"><ele>415.2</ele><time>2026-03-26T15:25:56.789Z</time></trkpt><trkpt lat="44.3241215" lon="8.326641"><ele>417.79999999999995</ele><time>2026-03-26T15:25:58.788Z</time></trkpt><trkpt lat="44.3241682" lon="8.3267621"><ele>420.4</ele><time>2026-03-26T15:26:00.79Z</time></trkpt><trkpt lat="44.3242332" lon="8.3268658"><ele>423.0</ele><time>2026-03-26T15:26:02.789Z</time></trkpt><trkpt lat="44.3243259" lon="8.3269404"><ele>423.0</ele><time>2026-03-26T15:26:04.789Z</time></trkpt><trkpt lat="44.3244284" lon="8.3270027"><ele>423.0</ele><time>2026-03-26T15:26:06.79Z</time></trkpt><trkpt lat="44.324542" lon="8.3270556"><ele>423.0</ele><time>2026-03-26T15:26:08.79Z</time></trkpt><trkpt lat="44.3246389" lon="8.3270785"><ele>423.0</ele><time>2026-03-26T15:26:10.79Z</time></trkpt><trkpt lat="44.3247421" lon="8.3271011"><ele>423.0</ele><time>2026-03-26T15:26:12.789Z</time></trkpt><trkpt lat="44.3248385" lon="8.3271283"><ele>420.4</ele><time>2026-03-26T15:26:14.788Z</time></trkpt><trkpt lat="44.3249433" lon="8.3271459"><ele>417.79999999999995</ele><time>2026-03-26T15:26:16.788Z</time></trkpt><trkpt lat="44.3250429" lon="8.3271487"><ele>415.2</ele><time>2026-03-26T15:26:18.791Z</time></trkpt><trkpt lat="44.3251459" lon="8.3271585"><ele>412.6</ele><time>2026-03-26T15:26:20.79Z</time></trkpt><trkpt lat="44.3252353" lon="8.3271862"><ele>410.0</ele><time>2026-03-26T15:26:22.788Z</time></trkpt><trkpt lat="44.3253374" lon="8.3272001"><ele>410.0</ele><time>2026-03-26T15:26:24.789Z</time></trkpt><trkpt lat="44.3254299" lon="8.3272252"><ele>410.0</ele><time>2026-03-26T15:26:26.791Z</time></trkpt><trkpt lat="44.3255247" lon="8.3272765"><ele>410.0</ele><time>2026-03-26T15:26:28.79Z</time></trkpt><trkpt lat="44.3256216" lon="8.3273298"><ele>410.0</ele><time>2026-03-26T15:26:30.788Z</time></trkpt><trkpt lat="44.3257039" lon="8.3273808"><ele>410.0</ele><time>2026-03-26T15:26:32.789Z</time></trkpt><trkpt lat="44.3257862" lon="8.3274141"><ele>409.2</ele><time>2026-03-26T15:26:34.788Z</time></trkpt><trkpt lat="44.325874" lon="8.3274883"><ele>408.4</ele><time>2026-03-26T15:26:36.79Z</time></trkpt><trkpt lat="44.3259584" lon="8.3275526"><ele>407.6</ele><time>2026-03-26T15:26:38.791Z</time></trkpt><trkpt lat="44.3260415" lon="8.3276204"><ele>406.8</ele><time>2026-03-26T15:26:40.79Z</time></trkpt><trkpt lat="44.3261172" lon="8.3277101"><ele>406.0</ele><time>2026-03-26T15:26:42.789Z</time></trkpt><trkpt lat="44.3261905" lon="8.3277837"><ele>406.00000000000006</ele><time>2026-03-26T15:26:44.789Z</time></trkpt><trkpt lat="44.3262427" lon="8.3278728"><ele>406.0</ele><time>2026-03-26T15:26:46.791Z</time></trkpt><trkpt lat="44.3262714" lon="8.3279693"><ele>406.0</ele><time>2026-03-26T15:26:48.788Z</time></trkpt><trkpt lat="44.3262947" lon="8.3280817"><ele>406.0</ele><time>2026-03-26T15:26:50.79Z</time></trkpt><trkpt lat="44.3263107" lon="8.3282029"><ele>406.00000000000006</ele><time>2026-03-26T15:26:52.79Z</time></trkpt><trkpt lat="44.3263194" lon="8.3283195"><ele>406.0</ele><time>2026-03-26T15:26:54.789Z</time></trkpt><trkpt lat="44.3263279" lon="8.3284437"><ele>406.20000000000005</ele><time>2026-03-26T15:26:56.79Z</time></trkpt><trkpt lat="44.3263318" lon="8.3285581"><ele>406.40000000000003</ele><time>2026-03-26T15:26:58.789Z</time></trkpt><trkpt lat="44.3263419" lon="8.3286863"><ele>406.6</ele><time>2026-03-26T15:27:00.79Z</time></trkpt><trkpt lat="44.3263384" lon="8.3288396"><ele>406.8</ele><time>2026-03-26T15:27:02.789Z</time></trkpt><trkpt lat="44.3263533" lon="8.3289746"><ele>407.0</ele><time>2026-03-26T15:27:04.789Z</time></trkpt><trkpt lat="44.3263546" lon="8.3290841"><ele>407.0</ele><time>2026-03-26T15:27:06.79Z</time></trkpt><trkpt lat="44.3263676" lon="8.3292061"><ele>407.0</ele><time>2026-03-26T15:27:08.789Z</time></trkpt><trkpt lat="44.3263785" lon="8.3293273"><ele>407.0</ele><time>2026-03-26T15:27:10.788Z</time></trkpt><trkpt lat="44.3263808" lon="8.3294674"><ele>407.0</ele><time>2026-03-26T15:27:12.79Z</time></trkpt><trkpt lat="44.3264004" lon="8.3295905"><ele>407.0</ele><time>2026-03-26T15:27:14.789Z</time></trkpt><trkpt lat="44.3264315" lon="8.3297166"><ele>405.20000000000005</ele><time>2026-03-26T15:27:16.789Z</time></trkpt><trkpt lat="44.3264512" lon="8.3298632"><ele>403.4</ele><time>2026-03-26T15:27:18.79Z</time></trkpt><trkpt lat="44.3264765" lon="8.3299914"><ele>401.6</ele><time>2026-03-26T15:27:20.789Z</time></trkpt><trkpt lat="44.3265033" lon="8.3301131"><ele>399.79999999999995</ele><time>2026-03-26T15:27:22.789Z</time></trkpt><trkpt lat="44.3265295" lon="8.3302352"><ele>398.0</ele><time>2026-03-26T15:27:24.789Z</time></trkpt><trkpt lat="44.3265664" lon="8.3303583"><ele>398.0</ele><time>2026-03-26T15:27:26.79Z</time></trkpt><trkpt lat="44.3266041" lon="8.3304859"><ele>398.0</ele><time>2026-03-26T15:27:28.789Z</time></trkpt><trkpt lat="44.3266548" lon="8.3306171"><ele>398.0</ele><time>2026-03-26T15:27:30.789Z</time></trkpt><trkpt lat="44.3267062" lon="8.3307532"><ele>398.0</ele><time>2026-03-26T15:27:32.79Z</time></trkpt><trkpt lat="44.3267597" lon="8.3308789"><ele>398.0</ele><time>2026-03-26T15:27:34.788Z</time></trkpt><trkpt lat="44.3268094" lon="8.3310015"><ele>398.59999999999997</ele><time>2026-03-26T15:27:36.789Z</time></trkpt><trkpt lat="44.3268502" lon="8.3311366"><ele>399.2</ele><time>2026-03-26T15:27:38.791Z</time></trkpt><trkpt lat="44.3269079" lon="8.3312613"><ele>399.8</ele><time>2026-03-26T15:27:40.789Z</time></trkpt><trkpt lat="44.32696" lon="8.3313839"><ele>400.4</ele><time>2026-03-26T15:27:42.789Z</time></trkpt><trkpt lat="44.3269974" lon="8.3314861"><ele>401.0</ele><time>2026-03-26T15:27:44.79Z</time></trkpt><trkpt lat="44.3270487" lon="8.3315944"><ele>401.20000000000005</ele><time>2026-03-26T15:27:46.789Z</time></trkpt><trkpt lat="44.3270944" lon="8.3317109"><ele>401.40000000000003</ele><time>2026-03-26T15:27:48.79Z</time></trkpt><trkpt lat="44.3271311" lon="8.3318159"><ele>401.6</ele><time>2026-03-26T15:27:50.788Z</time></trkpt><trkpt lat="44.3271636" lon="8.3319436"><ele>401.8</ele><time>2026-03-26T15:27:52.789Z</time></trkpt><trkpt lat="44.3271935" lon="8.3320678"><ele>402.0</ele><time>2026-03-26T15:27:54.788Z</time></trkpt><trkpt lat="44.3272247" lon="8.332191"><ele>401.0</ele><time>2026-03-26T15:27:56.789Z</time></trkpt><trkpt lat="44.3272468" lon="8.3323332"><ele>400.0</ele><time>2026-03-26T15:27:58.79Z</time></trkpt><trkpt lat="44.3272598" lon="8.3324483"><ele>399.0</ele><time>2026-03-26T15:28:00.789Z</time></trkpt><trkpt lat="44.3272807" lon="8.3325629"><ele>398.0</ele><time>2026-03-26T15:28:02.79Z</time></trkpt><trkpt lat="44.3272961" lon="8.3326858"><ele>397.0</ele><time>2026-03-26T15:28:04.789Z</time></trkpt><trkpt lat="44.3273032" lon="8.3328176"><ele>397.0</ele><time>2026-03-26T15:28:06.789Z</time></trkpt><trkpt lat="44.3273255" lon="8.3329341"><ele>397.0</ele><time>2026-03-26T15:28:08.788Z</time></trkpt><trkpt lat="44.3273439" lon="8.3330675"><ele>397.0</ele><time>2026-03-26T15:28:10.789Z</time></trkpt><trkpt lat="44.3273497" lon="8.3332061"><ele>397.0</ele><time>2026-03-26T15:28:12.788Z</time></trkpt><trkpt lat="44.3273541" lon="8.3333337"><ele>397.0</ele><time>2026-03-26T15:28:14.789Z</time></trkpt><trkpt lat="44.3273494" lon="8.333455"><ele>397.40000000000003</ele><time>2026-03-26T15:28:16.789Z</time></trkpt><trkpt lat="44.3273537" lon="8.3335758"><ele>397.8</ele><time>2026-03-26T15:28:18.789Z</time></trkpt><trkpt lat="44.3273551" lon="8.3336999"><ele>398.2</ele><time>2026-03-26T15:28:20.788Z</time></trkpt><trkpt lat="44.3273538" lon="8.3338292"><ele>398.6</ele><time>2026-03-26T15:28:22.789Z</time></trkpt><trkpt lat="44.3273676" lon="8.3339557"><ele>399.0</ele><time>2026-03-26T15:28:24.789Z</time></trkpt><trkpt lat="44.3273939" lon="8.3340801"><ele>400.3333333333333</ele><time>2026-03-26T15:28:26.789Z</time></trkpt><trkpt lat="44.3274172" lon="8.3341922"><ele>401.66666666666663</ele><time>2026-03-26T15:28:28.789Z</time></trkpt><trkpt lat="44.3274573" lon="8.3342946"><ele>403.0</ele><time>2026-03-26T15:28:30.789Z</time></trkpt><trkpt lat="44.327507" lon="8.3343977"><ele>404.3333333333333</ele><time>2026-03-26T15:28:32.789Z</time></trkpt><trkpt lat="44.3275648" lon="8.3344867"><ele>405.66666666666663</ele><time>2026-03-26T15:28:34.79Z</time></trkpt><trkpt lat="44.3276333" lon="8.3345629"><ele>407.0</ele><time>2026-03-26T15:28:36.789Z</time></trkpt><trkpt lat="44.3277081" lon="8.3346229"><ele>406.99999999999994</ele><time>2026-03-26T15:28:38.789Z</time></trkpt><trkpt lat="44.3277885" lon="8.3346687"><ele>407.0</ele><time>2026-03-26T15:28:40.789Z</time></trkpt><trkpt lat="44.3278699" lon="8.3347137"><ele>407.0</ele><time>2026-03-26T15:28:42.788Z</time></trkpt><trkpt lat="44.327955" lon="8.3347622"><ele>407.0</ele><time>2026-03-26T15:28:44.789Z</time></trkpt><trkpt lat="44.3280435" lon="8.3348104"><ele>406.99999999999994</ele><time>2026-03-26T15:28:46.789Z</time></trkpt><trkpt lat="44.3281197" lon="8.3348593"><ele>407.0</ele><time>2026-03-26T15:28:48.788Z</time></trkpt><trkpt lat="44.3281975" lon="8.3349022"><ele>407.20000000000005</ele><time>2026-03-26T15:28:50.791Z</time></trkpt><trkpt lat="44.3282805" lon="8.334953"><ele>407.4</ele><time>2026-03-26T15:28:52.789Z</time></trkpt><trkpt lat="44.3283683" lon="8.3349986"><ele>407.6</ele><time>2026-03-26T15:28:54.79Z</time></trkpt><trkpt lat="44.3284531" lon="8.3350509"><ele>407.79999999999995</ele><time>2026-03-26T15:28:56.79Z</time></trkpt><trkpt lat="44.3285324" lon="8.335104"><ele>408.0</ele><time>2026-03-26T15:28:58.789Z</time></trkpt><trkpt lat="44.3286118" lon="8.3351688"><ele>408.0</ele><time>2026-03-26T15:29:00.789Z</time></trkpt><trkpt lat="44.3287012" lon="8.3352215"><ele>408.0</ele><time>2026-03-26T15:29:02.79Z</time></trkpt><trkpt lat="44.3287871" lon="8.3352696"><ele>408.0</ele><time>2026-03-26T15:29:04.789Z</time></trkpt><trkpt lat="44.3288706" lon="8.3353237"><ele>408.0</ele><time>2026-03-26T15:29:06.789Z</time></trkpt><trkpt lat="44.328952" lon="8.3353775"><ele>408.0</ele><time>2026-03-26T15:29:08.788Z</time></trkpt><trkpt lat="44.329037" lon="8.3354241"><ele>407.6666666666667</ele><time>2026-03-26T15:29:10.789Z</time></trkpt><trkpt lat="44.3291194" lon="8.3354693"><ele>407.33333333333337</ele><time>2026-03-26T15:29:12.788Z</time></trkpt><trkpt lat="44.3292031" lon="8.3354898"><ele>407.0</ele><time>2026-03-26T15:29:14.79Z</time></trkpt><trkpt lat="44.3292828" lon="8.3354914"><ele>406.6666666666667</ele><time>2026-03-26T15:29:16.789Z</time></trkpt><trkpt lat="44.3293549" lon="8.335464"><ele>406.33333333333337</ele><time>2026-03-26T15:29:18.79Z</time></trkpt><trkpt lat="44.3294298" lon="8.3354437"><ele>406.0</ele><time>2026-03-26T15:29:20.789Z</time></trkpt><trkpt lat="44.3295003" lon="8.3354218"><ele>406.0</ele><time>2026-03-26T15:29:22.788Z</time></trkpt><trkpt lat="44.3295658" lon="8.3353911"><ele>406.0</ele><time>2026-03-26T15:29:24.789Z</time></trkpt><trkpt lat="44.3296272" lon="8.3353599"><ele>406.0</ele><time>2026-03-26T15:29:26.789Z</time></trkpt><trkpt lat="44.3296931" lon="8.3353307"><ele>406.0</ele><time>2026-03-26T15:29:28.79Z</time></trkpt><trkpt lat="44.3297563" lon="8.3353029"><ele>406.0</ele><time>2026-03-26T15:29:30.789Z</time></trkpt><trkpt lat="44.3298193" lon="8.3352686"><ele>406.0</ele><time>2026-03-26T15:29:32.789Z</time></trkpt><trkpt lat="44.3298813" lon="8.3352326"><ele>406.0</ele><time>2026-03-26T15:29:34.788Z</time></trkpt><trkpt lat="44.3299422" lon="8.3352043"><ele>407.50000000000006</ele><time>2026-03-26T15:29:36.789Z</time></trkpt><trkpt lat="44.3300085" lon="8.3351739"><ele>409.0</ele><time>2026-03-26T15:29:38.789Z</time></trkpt><trkpt lat="44.3300726" lon="8.3351448"><ele>410.5</ele><time>2026-03-26T15:29:40.788Z</time></trkpt><trkpt lat="44.3301604" lon="8.3351086"><ele>412.0</ele><time>2026-03-26T15:29:43.788Z</time></trkpt><trkpt lat="44.3302493" lon="8.3350677"><ele>413.50000000000006</ele><time>2026-03-26T15:29:46.789Z</time></trkpt><trkpt lat="44.3303126" lon="8.3350381"><ele>415.0</ele><time>2026-03-26T15:29:48.79Z</time></trkpt><trkpt lat="44.3303744" lon="8.3349958"><ele>415.00000000000006</ele><time>2026-03-26T15:29:50.788Z</time></trkpt><trkpt lat="44.3304644" lon="8.3349596"><ele>415.0</ele><time>2026-03-26T15:29:53.79Z</time></trkpt><trkpt lat="44.330524" lon="8.3349264"><ele>415.0</ele><time>2026-03-26T15:29:55.789Z</time></trkpt><trkpt lat="44.3306072" lon="8.3348716"><ele>415.0</ele><time>2026-03-26T15:29:58.789Z</time></trkpt><trkpt lat="44.3306837" lon="8.3348071"><ele>415.00000000000006</ele><time>2026-03-26T15:30:01.79Z</time></trkpt><trkpt lat="44.3307355" lon="8.3347472"><ele>415.0</ele><time>2026-03-26T15:30:03.789Z</time></trkpt><trkpt lat="44.3307887" lon="8.3346892"><ele>414.33333333333337</ele><time>2026-03-26T15:30:05.789Z</time></trkpt><trkpt lat="44.3308437" lon="8.3346363"><ele>413.6666666666667</ele><time>2026-03-26T15:30:07.789Z</time></trkpt><trkpt lat="44.330898" lon="8.3345865"><ele>413.0</ele><time>2026-03-26T15:30:09.788Z</time></trkpt><trkpt lat="44.3309742" lon="8.334513"><ele>412.33333333333337</ele><time>2026-03-26T15:30:12.789Z</time></trkpt><trkpt lat="44.3310495" lon="8.3344385"><ele>411.6666666666667</ele><time>2026-03-26T15:30:15.789Z</time></trkpt><trkpt lat="44.3311209" lon="8.3343719"><ele>411.0</ele><time>2026-03-26T15:30:18.788Z</time></trkpt><trkpt lat="44.3311934" lon="8.3342896"><ele>411.0</ele><time>2026-03-26T15:30:21.789Z</time></trkpt><trkpt lat="44.33126" lon="8.3341972"><ele>411.0</ele><time>2026-03-26T15:30:24.789Z</time></trkpt><trkpt lat="44.3313052" lon="8.3341271"><ele>411.0</ele><time>2026-03-26T15:30:26.788Z</time></trkpt><trkpt lat="44.3313515" lon="8.3340613"><ele>411.0</ele><time>2026-03-26T15:30:28.789Z</time></trkpt><trkpt lat="44.3313978" lon="8.333987"><ele>411.0</ele><time>2026-03-26T15:30:30.789Z</time></trkpt><trkpt lat="44.3314429" lon="8.3339134"><ele>411.0</ele><time>2026-03-26T15:30:32.789Z</time></trkpt><trkpt lat="44.331495" lon="8.3338439"><ele>411.0</ele><time>2026-03-26T15:30:34.789Z</time></trkpt><trkpt lat="44.3315432" lon="8.3337765"><ele>411.7142857142857</ele><time>2026-03-26T15:30:36.789Z</time></trkpt><trkpt lat="44.3315862" lon="8.3337084"><ele>412.42857142857144</ele><time>2026-03-26T15:30:38.789Z</time></trkpt><trkpt lat="44.3316311" lon="8.3336453"><ele>413.1428571428571</ele><time>2026-03-26T15:30:40.789Z</time></trkpt><trkpt lat="44.3316818" lon="8.3335837"><ele>413.8571428571429</ele><time>2026-03-26T15:30:42.789Z</time></trkpt><trkpt lat="44.331725" lon="8.3335155"><ele>414.5714285714286</ele><time>2026-03-26T15:30:44.788Z</time></trkpt><trkpt lat="44.3317701" lon="8.3334522"><ele>415.2857142857143</ele><time>2026-03-26T15:30:46.788Z</time></trkpt><trkpt lat="44.3318186" lon="8.333387"><ele>416.0</ele><time>2026-03-26T15:30:48.789Z</time></trkpt><trkpt lat="44.331872" lon="8.3333133"><ele>416.0</ele><time>2026-03-26T15:30:50.789Z</time></trkpt><trkpt lat="44.3319203" lon="8.3332481"><ele>416.0</ele><time>2026-03-26T15:30:52.79Z</time></trkpt><trkpt lat="44.3319668" lon="8.3331886"><ele>416.0</ele><time>2026-03-26T15:30:54.79Z</time></trkpt><trkpt lat="44.3320459" lon="8.333115"><ele>416.0</ele><time>2026-03-26T15:30:57.79Z</time></trkpt><trkpt lat="44.3320985" lon="8.3330542"><ele>416.0</ele><time>2026-03-26T15:30:59.79Z</time></trkpt><trkpt lat="44.3321537" lon="8.3329843"><ele>416.0</ele><time>2026-03-26T15:31:01.789Z</time></trkpt><trkpt lat="44.3322056" lon="8.3329061"><ele>416.0</ele><time>2026-03-26T15:31:03.788Z</time></trkpt><trkpt lat="44.3322609" lon="8.3328384"><ele>418.3333333333333</ele><time>2026-03-26T15:31:05.789Z</time></trkpt><trkpt lat="44.3323186" lon="8.3327773"><ele>420.66666666666663</ele><time>2026-03-26T15:31:07.79Z</time></trkpt><trkpt lat="44.3323899" lon="8.3327422"><ele>423.0</ele><time>2026-03-26T15:31:09.79Z</time></trkpt><trkpt lat="44.332465" lon="8.3327429"><ele>425.33333333333337</ele><time>2026-03-26T15:31:11.789Z</time></trkpt><trkpt lat="44.3325377" lon="8.3327615"><ele>427.6666666666667</ele><time>2026-03-26T15:31:13.789Z</time></trkpt><trkpt lat="44.3326311" lon="8.332821"><ele>430.0</ele><time>2026-03-26T15:31:15.791Z</time></trkpt><trkpt lat="44.3327016" lon="8.3328321"><ele>430.00000000000006</ele><time>2026-03-26T15:31:16.789Z</time></trkpt><trkpt lat="44.3327612" lon="8.3328743"><ele>430.0</ele><time>2026-03-26T15:31:17.789Z</time></trkpt><trkpt lat="44.3328399" lon="8.3329218"><ele>430.0</ele><time>2026-03-26T15:31:18.789Z</time></trkpt><trkpt lat="44.3329016" lon="8.3330164"><ele>430.0</ele><time>2026-03-26T15:31:19.789Z</time></trkpt><trkpt lat="44.3329811" lon="8.3330091"><ele>430.00000000000006</ele><time>2026-03-26T15:31:20.789Z</time></trkpt><trkpt lat="44.3330736" lon="8.3329988"><ele>430.0</ele><time>2026-03-26T15:31:21.789Z</time></trkpt><trkpt lat="44.3331618" lon="8.3329773"><ele>431.00000000000006</ele><time>2026-03-26T15:31:22.789Z</time></trkpt><trkpt lat="44.333235" lon="8.3329166"><ele>432.0</ele><time>2026-03-26T15:31:23.79Z</time></trkpt><trkpt lat="44.3333072" lon="8.3329067"><ele>433.0</ele><time>2026-03-26T15:31:24.789Z</time></trkpt><trkpt lat="44.3334018" lon="8.3328636"><ele>434.0</ele><time>2026-03-26T15:31:25.789Z</time></trkpt><trkpt lat="44.3334715" lon="8.3327762"><ele>435.00000000000006</ele><time>2026-03-26T15:31:26.789Z</time></trkpt><trkpt lat="44.3335544" lon="8.3327412"><ele>436.0</ele><time>2026-03-26T15:31:27.79Z</time></trkpt><trkpt lat="44.3336467" lon="8.3326985"><ele>436.0</ele><time>2026-03-26T15:31:28.789Z</time></trkpt><trkpt lat="44.3337311" lon="8.3326521"><ele>436.0</ele><time>2026-03-26T15:31:29.789Z</time></trkpt><trkpt lat="44.3338252" lon="8.3326109"><ele>436.0</ele><time>2026-03-26T15:31:30.789Z</time></trkpt><trkpt lat="44.3339242" lon="8.3325657"><ele>436.0</ele><time>2026-03-26T15:31:31.789Z</time></trkpt><trkpt lat="44.3340187" lon="8.3325283"><ele>436.0</ele><time>2026-03-26T15:31:32.789Z</time></trkpt><trkpt lat="44.3341231" lon="8.3324902"><ele>432.6</ele><time>2026-03-26T15:31:33.788Z</time></trkpt><trkpt lat="44.3342177" lon="8.3324481"><ele>429.20000000000005</ele><time>2026-03-26T15:31:34.79Z</time></trkpt><trkpt lat="44.3343243" lon="8.3324162"><ele>425.79999999999995</ele><time>2026-03-26T15:31:35.789Z</time></trkpt><trkpt lat="44.3344242" lon="8.3323791"><ele>422.4</ele><time>2026-03-26T15:31:36.788Z</time></trkpt><trkpt lat="44.3345245" lon="8.3323518"><ele>419.0</ele><time>2026-03-26T15:31:37.789Z</time></trkpt><trkpt lat="44.3346239" lon="8.3323143"><ele>416.6</ele><time>2026-03-26T15:31:38.79Z</time></trkpt><trkpt lat="44.334724" lon="8.3322895"><ele>414.2</ele><time>2026-03-26T15:31:39.788Z</time></trkpt><trkpt lat="44.3348273" lon="8.3322698"><ele>411.8</ele><time>2026-03-26T15:31:40.789Z</time></trkpt><trkpt lat="44.3349256" lon="8.3322422"><ele>409.40000000000003</ele><time>2026-03-26T15:31:41.789Z</time></trkpt><trkpt lat="44.3350305" lon="8.3322189"><ele>407.0</ele><time>2026-03-26T15:31:42.788Z</time></trkpt><trkpt lat="44.3351338" lon="8.3321956"><ele>407.0</ele><time>2026-03-26T15:31:43.79Z</time></trkpt><trkpt lat="44.3352335" lon="8.3321861"><ele>407.0</ele><time>2026-03-26T15:31:44.789Z</time></trkpt><trkpt lat="44.3353411" lon="8.3321834"><ele>407.0</ele><time>2026-03-26T15:31:45.789Z</time></trkpt><trkpt lat="44.3354352" lon="8.3322086"><ele>407.0</ele><time>2026-03-26T15:31:46.789Z</time></trkpt><trkpt lat="44.3355199" lon="8.3322514"><ele>407.0</ele><time>2026-03-26T15:31:47.79Z</time></trkpt><trkpt lat="44.3355865" lon="8.3323016"><ele>405.16666666666663</ele><time>2026-03-26T15:31:48.788Z</time></trkpt><trkpt lat="44.3356163" lon="8.3324236"><ele>403.3333333333333</ele><time>2026-03-26T15:31:49.788Z</time></trkpt><trkpt lat="44.3356217" lon="8.3325449"><ele>401.5</ele><time>2026-03-26T15:31:50.789Z</time></trkpt><trkpt lat="44.3356167" lon="8.3326579"><ele>399.66666666666663</ele><time>2026-03-26T15:31:51.789Z</time></trkpt><trkpt lat="44.3356018" lon="8.332756"><ele>397.8333333333333</ele><time>2026-03-26T15:31:52.789Z</time></trkpt><trkpt lat="44.3355869" lon="8.3328592"><ele>396.0</ele><time>2026-03-26T15:31:53.788Z</time></trkpt><trkpt lat="44.3355661" lon="8.3329755"><ele>398.6666666666667</ele><time>2026-03-26T15:31:54.788Z</time></trkpt><trkpt lat="44.3355493" lon="8.333069"><ele>401.33333333333337</ele><time>2026-03-26T15:31:55.789Z</time></trkpt><trkpt lat="44.3355361" lon="8.333156"><ele>404.0</ele><time>2026-03-26T15:31:56.79Z</time></trkpt><trkpt lat="44.3355259" lon="8.3332494"><ele>406.6666666666667</ele><time>2026-03-26T15:31:57.788Z</time></trkpt><trkpt lat="44.3355016" lon="8.3334193"><ele>409.33333333333337</ele><time>2026-03-26T15:31:59.789Z</time></trkpt><trkpt lat="44.3354723" lon="8.3335803"><ele>412.0</ele><time>2026-03-26T15:32:01.789Z</time></trkpt><trkpt lat="44.3354458" lon="8.3337409"><ele>412.0</ele><time>2026-03-26T15:32:03.79Z</time></trkpt><trkpt lat="44.3354173" lon="8.3338875"><ele>412.0</ele><time>2026-03-26T15:32:05.789Z</time></trkpt><trkpt lat="44.3353983" lon="8.3340185"><ele>412.0</ele><time>2026-03-26T15:32:07.789Z</time></trkpt><trkpt lat="44.3353893" lon="8.3341462"><ele>412.0</ele><time>2026-03-26T15:32:09.789Z</time></trkpt><trkpt lat="44.3353843" lon="8.3342505"><ele>412.0</ele><time>2026-03-26T15:32:11.788Z</time></trkpt><trkpt lat="44.3353455" lon="8.334382"><ele>411.6</ele><time>2026-03-26T15:32:13.788Z</time></trkpt><trkpt lat="44.3353398" lon="8.3344715"><ele>411.20000000000005</ele><time>2026-03-26T15:32:15.789Z</time></trkpt><trkpt lat="44.335309" lon="8.3345979"><ele>410.8</ele><time>2026-03-26T15:32:17.789Z</time></trkpt><trkpt lat="44.3352667" lon="8.3347302"><ele>410.4</ele><time>2026-03-26T15:32:19.789Z</time></trkpt><trkpt lat="44.3352688" lon="8.3348565"><ele>410.0</ele><time>2026-03-26T15:32:21.79Z</time></trkpt><trkpt lat="44.3352537" lon="8.3349898"><ele>409.6</ele><time>2026-03-26T15:32:23.789Z</time></trkpt><trkpt lat="44.3352084" lon="8.3351308"><ele>409.2</ele><time>2026-03-26T15:32:25.79Z</time></trkpt><trkpt lat="44.3351778" lon="8.3352568"><ele>408.79999999999995</ele><time>2026-03-26T15:32:27.789Z</time></trkpt><trkpt lat="44.3351549" lon="8.3353829"><ele>408.4</ele><time>2026-03-26T15:32:29.789Z</time></trkpt><trkpt lat="44.3351262" lon="8.3355183"><ele>408.0</ele><time>2026-03-26T15:32:31.788Z</time></trkpt><trkpt lat="44.3351022" lon="8.3356441"><ele>407.2</ele><time>2026-03-26T15:32:33.791Z</time></trkpt><trkpt lat="44.3350737" lon="8.3357793"><ele>406.4</ele><time>2026-03-26T15:32:35.788Z</time></trkpt><trkpt lat="44.3350504" lon="8.3359138"><ele>405.59999999999997</ele><time>2026-03-26T15:32:37.789Z</time></trkpt><trkpt lat="44.335022" lon="8.3360521"><ele>404.79999999999995</ele><time>2026-03-26T15:32:39.789Z</time></trkpt><trkpt lat="44.3350117" lon="8.3361803"><ele>404.0</ele><time>2026-03-26T15:32:41.788Z</time></trkpt><trkpt lat="44.3349897" lon="8.3363155"><ele>403.8333333333333</ele><time>2026-03-26T15:32:43.79Z</time></trkpt><trkpt lat="44.3349864" lon="8.336431"><ele>403.66666666666663</ele><time>2026-03-26T15:32:45.79Z</time></trkpt><trkpt lat="44.3350043" lon="8.3365534"><ele>403.5</ele><time>2026-03-26T15:32:47.79Z</time></trkpt><trkpt lat="44.3350327" lon="8.3366851"><ele>403.33333333333337</ele><time>2026-03-26T15:32:49.79Z</time></trkpt><trkpt lat="44.3350628" lon="8.336802"><ele>403.1666666666667</ele><time>2026-03-26T15:32:51.789Z</time></trkpt><trkpt lat="44.3351013" lon="8.3369153"><ele>403.0</ele><time>2026-03-26T15:32:53.788Z</time></trkpt><trkpt lat="44.3351212" lon="8.3370333"><ele>403.00000000000006</ele><time>2026-03-26T15:32:55.789Z</time></trkpt><trkpt lat="44.3351402" lon="8.3371406"><ele>403.0</ele><time>2026-03-26T15:32:57.79Z</time></trkpt><trkpt lat="44.3351449" lon="8.3372465"><ele>403.0</ele><time>2026-03-26T15:32:59.789Z</time></trkpt><trkpt lat="44.3351389" lon="8.3373643"><ele>403.0</ele><time>2026-03-26T15:33:01.789Z</time></trkpt><trkpt lat="44.3351307" lon="8.3374785"><ele>403.00000000000006</ele><time>2026-03-26T15:33:03.788Z</time></trkpt><trkpt lat="44.3351247" lon="8.3375903"><ele>403.0</ele><time>2026-03-26T15:33:05.79Z</time></trkpt><trkpt lat="44.3351241" lon="8.3377078"><ele>404.6666666666667</ele><time>2026-03-26T15:33:07.788Z</time></trkpt><trkpt lat="44.3350912" lon="8.337817"><ele>406.33333333333337</ele><time>2026-03-26T15:33:09.79Z</time></trkpt><trkpt lat="44.3350785" lon="8.3379305"><ele>408.0</ele><time>2026-03-26T15:33:11.789Z</time></trkpt><trkpt lat="44.3350613" lon="8.3380513"><ele>409.66666666666663</ele><time>2026-03-26T15:33:13.79Z</time></trkpt><trkpt lat="44.3350636" lon="8.3381692"><ele>411.3333333333333</ele><time>2026-03-26T15:33:15.789Z</time></trkpt><trkpt lat="44.335096" lon="8.3382884"><ele>413.0</ele><time>2026-03-26T15:33:17.788Z</time></trkpt><trkpt lat="44.3351584" lon="8.3384116"><ele>414.0</ele><time>2026-03-26T15:33:19.788Z</time></trkpt><trkpt lat="44.3352514" lon="8.3384982"><ele>415.0</ele><time>2026-03-26T15:33:21.789Z</time></trkpt><trkpt lat="44.3353511" lon="8.3385358"><ele>416.0</ele><time>2026-03-26T15:33:23.789Z</time></trkpt><trkpt lat="44.3354585" lon="8.3384982"><ele>417.0</ele><time>2026-03-26T15:33:25.789Z</time></trkpt><trkpt lat="44.3355596" lon="8.3384779"><ele>418.0</ele><time>2026-03-26T15:33:27.79Z</time></trkpt><trkpt lat="44.3356479" lon="8.3384805"><ele>416.1666666666667</ele><time>2026-03-26T15:33:29.79Z</time></trkpt><trkpt lat="44.3357245" lon="8.3384977"><ele>414.33333333333337</ele><time>2026-03-26T15:33:31.789Z</time></trkpt><trkpt lat="44.33578" lon="8.3385657"><ele>412.5</ele><time>2026-03-26T15:33:33.789Z</time></trkpt><trkpt lat="44.3357844" lon="8.3387156"><ele>410.66666666666663</ele><time>2026-03-26T15:33:35.788Z</time></trkpt><trkpt lat="44.3357872" lon="8.3388304"><ele>408.8333333333333</ele><time>2026-03-26T15:33:37.789Z</time></trkpt><trkpt lat="44.3357921" lon="8.3389182"><ele>407.0</ele><time>2026-03-26T15:33:39.789Z</time></trkpt><trkpt lat="44.3357953" lon="8.3390174"><ele>406.99999999999994</ele><time>2026-03-26T15:33:43.79Z</time></trkpt><trkpt lat="44.3358047" lon="8.339132"><ele>407.0</ele><time>2026-03-26T15:33:46.789Z</time></trkpt><trkpt lat="44.3358158" lon="8.3392323"><ele>407.0</ele><time>2026-03-26T15:33:48.791Z</time></trkpt><trkpt lat="44.3358177" lon="8.3393582"><ele>407.0</ele><time>2026-03-26T15:33:50.788Z</time></trkpt><trkpt lat="44.3358351" lon="8.3394889"><ele>406.99999999999994</ele><time>2026-03-26T15:33:52.788Z</time></trkpt><trkpt lat="44.3358427" lon="8.3396086"><ele>407.0</ele><time>2026-03-26T15:33:54.79Z</time></trkpt><trkpt lat="44.3358425" lon="8.3397375"><ele>407.49999999999994</ele><time>2026-03-26T15:33:56.789Z</time></trkpt><trkpt lat="44.3358268" lon="8.3398423"><ele>408.0</ele><time>2026-03-26T15:33:58.789Z</time></trkpt><trkpt lat="44.3358318" lon="8.3399604"><ele>408.5</ele><time>2026-03-26T15:34:00.788Z</time></trkpt><trkpt lat="44.3358271" lon="8.3400954"><ele>409.0</ele><time>2026-03-26T15:34:02.788Z</time></trkpt><trkpt lat="44.3358169" lon="8.3402297"><ele>409.49999999999994</ele><time>2026-03-26T15:34:04.788Z</time></trkpt><trkpt lat="44.3358076" lon="8.3403569"><ele>410.0</ele><time>2026-03-26T15:34:06.789Z</time></trkpt><trkpt lat="44.3358056" lon="8.3404806"><ele>409.8</ele><time>2026-03-26T15:34:08.789Z</time></trkpt><trkpt lat="44.3358103" lon="8.3406049"><ele>409.6</ele><time>2026-03-26T15:34:10.788Z</time></trkpt><trkpt lat="44.3358589" lon="8.3407089"><ele>409.4</ele><time>2026-03-26T15:34:12.788Z</time></trkpt><trkpt lat="44.3359021" lon="8.3408213"><ele>409.2</ele><time>2026-03-26T15:34:14.788Z</time></trkpt><trkpt lat="44.3359412" lon="8.3409336"><ele>409.0</ele><time>2026-03-26T15:34:16.788Z</time></trkpt><trkpt lat="44.3360057" lon="8.3410378"><ele>409.00000000000006</ele><time>2026-03-26T15:34:18.79Z</time></trkpt><trkpt lat="44.3360792" lon="8.3410844"><ele>409.0</ele><time>2026-03-26T15:34:20.79Z</time></trkpt><trkpt lat="44.3361822" lon="8.3411295"><ele>409.0</ele><time>2026-03-26T15:34:22.789Z</time></trkpt><trkpt lat="44.3362688" lon="8.3411484"><ele>409.0</ele><time>2026-03-26T15:34:24.789Z</time></trkpt><trkpt lat="44.3363534" lon="8.3411893"><ele>409.00000000000006</ele><time>2026-03-26T15:34:26.79Z</time></trkpt><trkpt lat="44.3364121" lon="8.3412463"><ele>409.0</ele><time>2026-03-26T15:34:28.788Z</time></trkpt><trkpt lat="44.3365049" lon="8.341305"><ele>408.83333333333337</ele><time>2026-03-26T15:34:30.789Z</time></trkpt><trkpt lat="44.3365897" lon="8.3413576"><ele>408.6666666666667</ele><time>2026-03-26T15:34:32.79Z</time></trkpt><trkpt lat="44.3366738" lon="8.341377"><ele>408.5</ele><time>2026-03-26T15:34:34.79Z</time></trkpt><trkpt lat="44.3367571" lon="8.3413632"><ele>408.33333333333337</ele><time>2026-03-26T15:34:36.789Z</time></trkpt><trkpt lat="44.3368367" lon="8.3413409"><ele>408.1666666666667</ele><time>2026-03-26T15:34:38.79Z</time></trkpt><trkpt lat="44.3369199" lon="8.3413413"><ele>408.0</ele><time>2026-03-26T15:34:40.789Z</time></trkpt><trkpt lat="44.3369933" lon="8.341398"><ele>407.8333333333333</ele><time>2026-03-26T15:34:42.789Z</time></trkpt><trkpt lat="44.3370429" lon="8.3414932"><ele>407.66666666666663</ele><time>2026-03-26T15:34:44.789Z</time></trkpt><trkpt lat="44.3370724" lon="8.3415976"><ele>407.5</ele><time>2026-03-26T15:34:46.789Z</time></trkpt><trkpt lat="44.3371102" lon="8.3416923"><ele>407.3333333333333</ele><time>2026-03-26T15:34:48.79Z</time></trkpt><trkpt lat="44.3371534" lon="8.3417809"><ele>407.16666666666663</ele><time>2026-03-26T15:34:50.788Z</time></trkpt><trkpt lat="44.3371904" lon="8.3418663"><ele>407.0</ele><time>2026-03-26T15:34:52.788Z</time></trkpt><trkpt lat="44.3372311" lon="8.3419471"><ele>408.00000000000006</ele><time>2026-03-26T15:34:54.788Z</time></trkpt><trkpt lat="44.3372887" lon="8.3420242"><ele>409.0</ele><time>2026-03-26T15:34:56.789Z</time></trkpt><trkpt lat="44.3373391" lon="8.3420995"><ele>410.0</ele><time>2026-03-26T15:34:58.789Z</time></trkpt><trkpt lat="44.3373957" lon="8.3421612"><ele>411.0</ele><time>2026-03-26T15:35:00.789Z</time></trkpt><trkpt lat="44.3374528" lon="8.342212"><ele>412.0</ele><time>2026-03-26T15:35:02.789Z</time></trkpt><trkpt lat="44.3375053" lon="8.3422613"><ele>413.00000000000006</ele><time>2026-03-26T15:35:04.789Z</time></trkpt><trkpt lat="44.3375638" lon="8.3423073"><ele>414.0</ele><time>2026-03-26T15:35:06.789Z</time></trkpt><trkpt lat="44.337622" lon="8.3423636"><ele>414.0</ele><time>2026-03-26T15:35:08.789Z</time></trkpt><trkpt lat="44.3376818" lon="8.3424216"><ele>414.0</ele><time>2026-03-26T15:35:10.788Z</time></trkpt><trkpt lat="44.3377397" lon="8.342501"><ele>414.0</ele><time>2026-03-26T15:35:12.789Z</time></trkpt><trkpt lat="44.3377976" lon="8.3425804"><ele>414.0</ele><time>2026-03-26T15:35:14.789Z</time></trkpt><trkpt lat="44.3378524" lon="8.3426528"><ele>414.0</ele><time>2026-03-26T15:35:16.789Z</time></trkpt><trkpt lat="44.3379056" lon="8.3427325"><ele>414.0</ele><time>2026-03-26T15:35:18.789Z</time></trkpt><trkpt lat="44.3379616" lon="8.3428103"><ele>414.0</ele><time>2026-03-26T15:35:20.789Z</time></trkpt><trkpt lat="44.3380226" lon="8.3428803"><ele>414.0</ele><time>2026-03-26T15:35:22.788Z</time></trkpt><trkpt lat="44.3380747" lon="8.3429668"><ele>414.0</ele><time>2026-03-26T15:35:24.789Z</time></trkpt><trkpt lat="44.3381154" lon="8.3430598"><ele>414.0</ele><time>2026-03-26T15:35:26.788Z</time></trkpt><trkpt lat="44.3381527" lon="8.3431553"><ele>414.0</ele><time>2026-03-26T15:35:28.79Z</time></trkpt><trkpt lat="44.3381771" lon="8.3432504"><ele>414.0</ele><time>2026-03-26T15:35:30.79Z</time></trkpt><trkpt lat="44.3382068" lon="8.3433399"><ele>414.14285714285717</ele><time>2026-03-26T15:35:32.789Z</time></trkpt><trkpt lat="44.3382368" lon="8.3434267"><ele>414.2857142857143</ele><time>2026-03-26T15:35:34.788Z</time></trkpt><trkpt lat="44.3382722" lon="8.3435156"><ele>414.42857142857144</ele><time>2026-03-26T15:35:36.789Z</time></trkpt><trkpt lat="44.3383043" lon="8.343605"><ele>414.57142857142856</ele><time>2026-03-26T15:35:38.789Z</time></trkpt><trkpt lat="44.3383359" lon="8.3436983"><ele>414.7142857142857</ele><time>2026-03-26T15:35:40.79Z</time></trkpt><trkpt lat="44.3383721" lon="8.3437848"><ele>414.8571428571429</ele><time>2026-03-26T15:35:42.79Z</time></trkpt><trkpt lat="44.3384111" lon="8.3438666"><ele>415.0</ele><time>2026-03-26T15:35:44.79Z</time></trkpt><trkpt lat="44.3384505" lon="8.3439485"><ele>415.0</ele><time>2026-03-26T15:35:46.789Z</time></trkpt><trkpt lat="44.3384862" lon="8.3440335"><ele>415.0</ele><time>2026-03-26T15:35:48.79Z</time></trkpt><trkpt lat="44.3385198" lon="8.3441154"><ele>415.0</ele><time>2026-03-26T15:35:50.789Z</time></trkpt><trkpt lat="44.3385524" lon="8.3441949"><ele>415.0</ele><time>2026-03-26T15:35:52.789Z</time></trkpt><trkpt lat="44.3385856" lon="8.3442756"><ele>415.0</ele><time>2026-03-26T15:35:54.789Z</time></trkpt><trkpt lat="44.338622" lon="8.3443549"><ele>415.0</ele><time>2026-03-26T15:35:56.79Z</time></trkpt><trkpt lat="44.3386643" lon="8.3444351"><ele>415.0</ele><time>2026-03-26T15:35:58.79Z</time></trkpt><trkpt lat="44.3387055" lon="8.3445219"><ele>415.00000000000006</ele><time>2026-03-26T15:36:00.789Z</time></trkpt><trkpt lat="44.3387466" lon="8.3446103"><ele>415.0</ele><time>2026-03-26T15:36:02.789Z</time></trkpt><trkpt lat="44.3387934" lon="8.3446929"><ele>415.0</ele><time>2026-03-26T15:36:04.789Z</time></trkpt><trkpt lat="44.3388402" lon="8.3447795"><ele>415.0</ele><time>2026-03-26T15:36:06.789Z</time></trkpt><trkpt lat="44.338886" lon="8.3448609"><ele>415.00000000000006</ele><time>2026-03-26T15:36:08.789Z</time></trkpt><trkpt lat="44.3389344" lon="8.3449394"><ele>415.0</ele><time>2026-03-26T15:36:10.788Z</time></trkpt><trkpt lat="44.3389783" lon="8.3450252"><ele>415.42857142857144</ele><time>2026-03-26T15:36:12.79Z</time></trkpt><trkpt lat="44.3390192" lon="8.3451059"><ele>415.8571428571429</ele><time>2026-03-26T15:36:14.79Z</time></trkpt><trkpt lat="44.3390578" lon="8.345186"><ele>416.2857142857143</ele><time>2026-03-26T15:36:16.789Z</time></trkpt><trkpt lat="44.3390968" lon="8.3452665"><ele>416.7142857142857</ele><time>2026-03-26T15:36:18.79Z</time></trkpt><trkpt lat="44.3391366" lon="8.3453473"><ele>417.1428571428571</ele><time>2026-03-26T15:36:20.788Z</time></trkpt><trkpt lat="44.3391787" lon="8.3454335"><ele>417.57142857142856</ele><time>2026-03-26T15:36:22.788Z</time></trkpt><trkpt lat="44.3392212" lon="8.345515"><ele>418.0</ele><time>2026-03-26T15:36:24.789Z</time></trkpt><trkpt lat="44.3392664" lon="8.3455945"><ele>418.0</ele><time>2026-03-26T15:36:26.789Z</time></trkpt><trkpt lat="44.3393203" lon="8.3456687"><ele>418.0</ele><time>2026-03-26T15:36:28.788Z</time></trkpt><trkpt lat="44.3393759" lon="8.3457389"><ele>418.0</ele><time>2026-03-26T15:36:30.789Z</time></trkpt><trkpt lat="44.3394347" lon="8.345801"><ele>418.0</ele><time>2026-03-26T15:36:32.79Z</time></trkpt><trkpt lat="44.3394978" lon="8.3458598"><ele>418.0</ele><time>2026-03-26T15:36:34.789Z</time></trkpt><trkpt lat="44.3395585" lon="8.3459155"><ele>418.0</ele><time>2026-03-26T15:36:36.787Z</time></trkpt><trkpt lat="44.3396282" lon="8.3459553"><ele>418.0</ele><time>2026-03-26T15:36:38.788Z</time></trkpt><trkpt lat="44.3397016" lon="8.3459957"><ele>419.2857142857143</ele><time>2026-03-26T15:36:40.789Z</time></trkpt><trkpt lat="44.3397739" lon="8.3460143"><ele>420.57142857142856</ele><time>2026-03-26T15:36:42.79Z</time></trkpt><trkpt lat="44.3398449" lon="8.3460256"><ele>421.8571428571429</ele><time>2026-03-26T15:36:44.789Z</time></trkpt><trkpt lat="44.3399107" lon="8.3460431"><ele>423.1428571428571</ele><time>2026-03-26T15:36:46.789Z</time></trkpt><trkpt lat="44.3399819" lon="8.346057"><ele>424.42857142857144</ele><time>2026-03-26T15:36:48.788Z</time></trkpt><trkpt lat="44.340048" lon="8.3460676"><ele>425.7142857142857</ele><time>2026-03-26T15:36:50.789Z</time></trkpt><trkpt lat="44.3401192" lon="8.3460756"><ele>427.0</ele><time>2026-03-26T15:36:52.79Z</time></trkpt><trkpt lat="44.3401859" lon="8.3460827"><ele>427.00000000000006</ele><time>2026-03-26T15:36:54.788Z</time></trkpt><trkpt lat="44.3402508" lon="8.3460857"><ele>427.0</ele><time>2026-03-26T15:36:56.79Z</time></trkpt><trkpt lat="44.3403146" lon="8.3460888"><ele>427.0</ele><time>2026-03-26T15:36:58.79Z</time></trkpt><trkpt lat="44.3404049" lon="8.3460853"><ele>427.0</ele><time>2026-03-26T15:37:01.788Z</time></trkpt><trkpt lat="44.3404925" lon="8.3460851"><ele>427.00000000000006</ele><time>2026-03-26T15:37:04.79Z</time></trkpt><trkpt lat="44.3405804" lon="8.3460945"><ele>427.0</ele><time>2026-03-26T15:37:07.789Z</time></trkpt><trkpt lat="44.3406621" lon="8.346095"><ele>427.33333333333337</ele><time>2026-03-26T15:37:10.789Z</time></trkpt><trkpt lat="44.3407494" lon="8.3461028"><ele>427.6666666666667</ele><time>2026-03-26T15:37:13.79Z</time></trkpt><trkpt lat="44.340833" lon="8.3460992"><ele>428.0</ele><time>2026-03-26T15:37:16.788Z</time></trkpt><trkpt lat="44.3409185" lon="8.3460966"><ele>428.33333333333337</ele><time>2026-03-26T15:37:19.788Z</time></trkpt><trkpt lat="44.3410063" lon="8.3460933"><ele>428.6666666666667</ele><time>2026-03-26T15:37:22.789Z</time></trkpt><trkpt lat="44.3410946" lon="8.3460889"><ele>429.0</ele><time>2026-03-26T15:37:25.789Z</time></trkpt><trkpt lat="44.3411855" lon="8.3461081"><ele>429.0</ele><time>2026-03-26T15:37:28.788Z</time></trkpt><trkpt lat="44.3412747" lon="8.34611"><ele>429.0</ele><time>2026-03-26T15:37:31.789Z</time></trkpt><trkpt lat="44.3413378" lon="8.3461122"><ele>429.0</ele><time>2026-03-26T15:37:33.788Z</time></trkpt><trkpt lat="44.3414042" lon="8.346117"><ele>429.0</ele><time>2026-03-26T15:37:35.788Z</time></trkpt><trkpt lat="44.341468" lon="8.3461242"><ele>429.0</ele><time>2026-03-26T15:37:37.789Z</time></trkpt><trkpt lat="44.3415321" lon="8.3461339"><ele>429.0</ele><time>2026-03-26T15:37:39.789Z</time></trkpt><trkpt lat="44.3415957" lon="8.3461431"><ele>429.0</ele><time>2026-03-26T15:37:41.789Z</time></trkpt><trkpt lat="44.3416597" lon="8.3461341"><ele>428.57142857142856</ele><time>2026-03-26T15:37:43.789Z</time></trkpt><trkpt lat="44.3417231" lon="8.3461267"><ele>428.14285714285717</ele><time>2026-03-26T15:37:45.789Z</time></trkpt><trkpt lat="44.3418183" lon="8.346123"><ele>427.71428571428567</ele><time>2026-03-26T15:37:48.788Z</time></trkpt><trkpt lat="44.3418825" lon="8.3461341"><ele>427.2857142857143</ele><time>2026-03-26T15:37:50.79Z</time></trkpt><trkpt lat="44.3419478" lon="8.346145"><ele>426.85714285714283</ele><time>2026-03-26T15:37:52.79Z</time></trkpt><trkpt lat="44.3420132" lon="8.3461501"><ele>426.4285714285714</ele><time>2026-03-26T15:37:54.788Z</time></trkpt><trkpt lat="44.3420769" lon="8.34616"><ele>426.0</ele><time>2026-03-26T15:37:56.789Z</time></trkpt><trkpt lat="44.3421414" lon="8.3461713"><ele>425.99999999999994</ele><time>2026-03-26T15:37:58.788Z</time></trkpt><trkpt lat="44.3422043" lon="8.3461825"><ele>426.0</ele><time>2026-03-26T15:38:00.789Z</time></trkpt><trkpt lat="44.3422683" lon="8.3461984"><ele>426.0</ele><time>2026-03-26T15:38:02.788Z</time></trkpt><trkpt lat="44.3423325" lon="8.3462137"><ele>426.0</ele><time>2026-03-26T15:38:04.789Z</time></trkpt><trkpt lat="44.3423945" lon="8.3462372"><ele>426.0</ele><time>2026-03-26T15:38:06.788Z</time></trkpt><trkpt lat="44.3424597" lon="8.3462595"><ele>425.99999999999994</ele><time>2026-03-26T15:38:08.789Z</time></trkpt><trkpt lat="44.3425213" lon="8.3462799"><ele>426.0</ele><time>2026-03-26T15:38:10.788Z</time></trkpt><trkpt lat="44.3425863" lon="8.3463006"><ele>427.0</ele><time>2026-03-26T15:38:12.789Z</time></trkpt><trkpt lat="44.3426567" lon="8.3463245"><ele>428.0</ele><time>2026-03-26T15:38:14.789Z</time></trkpt><trkpt lat="44.3427248" lon="8.346354"><ele>429.0</ele><time>2026-03-26T15:38:16.788Z</time></trkpt><trkpt lat="44.3427883" lon="8.3463802"><ele>430.0</ele><time>2026-03-26T15:38:18.789Z</time></trkpt><trkpt lat="44.3428747" lon="8.3464067"><ele>431.0</ele><time>2026-03-26T15:38:21.789Z</time></trkpt><trkpt lat="44.3429642" lon="8.3464373"><ele>432.0</ele><time>2026-03-26T15:38:24.789Z</time></trkpt><trkpt lat="44.3430319" lon="8.3464583"><ele>433.0</ele><time>2026-03-26T15:38:26.789Z</time></trkpt><trkpt lat="44.343096" lon="8.3464842"><ele>434.0</ele><time>2026-03-26T15:38:28.79Z</time></trkpt><trkpt lat="44.3431607" lon="8.3465046"><ele>435.0</ele><time>2026-03-26T15:38:30.788Z</time></trkpt><trkpt lat="44.3432238" lon="8.3465257"><ele>436.0</ele><time>2026-03-26T15:38:32.79Z</time></trkpt><trkpt lat="44.3432885" lon="8.3465478"><ele>437.0</ele><time>2026-03-26T15:38:34.788Z</time></trkpt><trkpt lat="44.34338" lon="8.3465822"><ele>438.0</ele><time>2026-03-26T15:38:37.788Z</time></trkpt><trkpt lat="44.3434447" lon="8.3465928"><ele>439.0</ele><time>2026-03-26T15:38:39.789Z</time></trkpt><trkpt lat="44.3435073" lon="8.3466049"><ele>439.0</ele><time>2026-03-26T15:38:41.789Z</time></trkpt><trkpt lat="44.3435718" lon="8.3466233"><ele>439.0</ele><time>2026-03-26T15:38:43.789Z</time></trkpt><trkpt lat="44.343636" lon="8.3466391"><ele>439.0</ele><time>2026-03-26T15:38:45.789Z</time></trkpt><trkpt lat="44.3437296" lon="8.3466598"><ele>439.0</ele><time>2026-03-26T15:38:48.788Z</time></trkpt><trkpt lat="44.3437921" lon="8.346684"><ele>439.0</ele><time>2026-03-26T15:38:50.789Z</time></trkpt><trkpt lat="44.3438568" lon="8.3466921"><ele>439.0</ele><time>2026-03-26T15:38:52.789Z</time></trkpt><trkpt lat="44.3439201" lon="8.346697"><ele>439.0</ele><time>2026-03-26T15:38:54.787Z</time></trkpt><trkpt lat="44.3440111" lon="8.3466905"><ele>438.85714285714283</ele><time>2026-03-26T15:38:57.789Z</time></trkpt><trkpt lat="44.3441065" lon="8.3466954"><ele>438.71428571428567</ele><time>2026-03-26T15:39:00.788Z</time></trkpt><trkpt lat="44.3441716" lon="8.3466978"><ele>438.57142857142856</ele><time>2026-03-26T15:39:02.788Z</time></trkpt><trkpt lat="44.3442374" lon="8.3466972"><ele>438.42857142857144</ele><time>2026-03-26T15:39:04.789Z</time></trkpt><trkpt lat="44.3443036" lon="8.3466968"><ele>438.2857142857143</ele><time>2026-03-26T15:39:06.789Z</time></trkpt><trkpt lat="44.3443729" lon="8.3467027"><ele>438.14285714285717</ele><time>2026-03-26T15:39:08.788Z</time></trkpt><trkpt lat="44.3444442" lon="8.3467032"><ele>438.0</ele><time>2026-03-26T15:39:10.789Z</time></trkpt><trkpt lat="44.3445108" lon="8.3467035"><ele>438.0</ele><time>2026-03-26T15:39:12.789Z</time></trkpt><trkpt lat="44.3445773" lon="8.346698"><ele>438.0</ele><time>2026-03-26T15:39:14.789Z</time></trkpt><trkpt lat="44.3446462" lon="8.3467015"><ele>438.0</ele><time>2026-03-26T15:39:16.789Z</time></trkpt><trkpt lat="44.3447141" lon="8.3467116"><ele>438.0</ele><time>2026-03-26T15:39:18.788Z</time></trkpt><trkpt lat="44.3447782" lon="8.3467203"><ele>438.0</ele><time>2026-03-26T15:39:20.789Z</time></trkpt><trkpt lat="44.3448441" lon="8.3467254"><ele>438.0</ele><time>2026-03-26T15:39:22.79Z</time></trkpt><trkpt lat="44.34494" lon="8.3467291"><ele>438.0</ele><time>2026-03-26T15:39:25.788Z</time></trkpt><trkpt lat="44.3450029" lon="8.3467367"><ele>439.0</ele><time>2026-03-26T15:39:27.788Z</time></trkpt><trkpt lat="44.3450985" lon="8.3467283"><ele>440.0</ele><time>2026-03-26T15:39:30.789Z</time></trkpt><trkpt lat="44.3451661" lon="8.346713"><ele>441.0</ele><time>2026-03-26T15:39:32.789Z</time></trkpt><trkpt lat="44.3452343" lon="8.3466868"><ele>442.0</ele><time>2026-03-26T15:39:34.788Z</time></trkpt><trkpt lat="44.3453056" lon="8.3466619"><ele>443.0</ele><time>2026-03-26T15:39:36.788Z</time></trkpt><trkpt lat="44.3453736" lon="8.3466245"><ele>444.0</ele><time>2026-03-26T15:39:38.79Z</time></trkpt><trkpt lat="44.3454375" lon="8.346581"><ele>444.0</ele><time>2026-03-26T15:39:40.79Z</time></trkpt><trkpt lat="44.3454978" lon="8.3465338"><ele>444.0</ele><time>2026-03-26T15:39:42.787Z</time></trkpt><trkpt lat="44.3455576" lon="8.3464923"><ele>444.0</ele><time>2026-03-26T15:39:44.789Z</time></trkpt><trkpt lat="44.3456175" lon="8.3464543"><ele>444.0</ele><time>2026-03-26T15:39:46.789Z</time></trkpt><trkpt lat="44.3456788" lon="8.3464311"><ele>444.0</ele><time>2026-03-26T15:39:48.788Z</time></trkpt><trkpt lat="44.3457423" lon="8.3464161"><ele>444.0</ele><time>2026-03-26T15:39:50.789Z</time></trkpt><trkpt lat="44.345824" lon="8.3464036"><ele>444.0</ele><time>2026-03-26T15:39:53.79Z</time></trkpt><trkpt lat="44.3459085" lon="8.3463955"><ele>444.6666666666667</ele><time>2026-03-26T15:39:56.788Z</time></trkpt><trkpt lat="44.3459969" lon="8.3463896"><ele>445.33333333333337</ele><time>2026-03-26T15:39:59.789Z</time></trkpt><trkpt lat="44.3460872" lon="8.3464081"><ele>446.0</ele><time>2026-03-26T15:40:02.788Z</time></trkpt><trkpt lat="44.3461501" lon="8.3464265"><ele>446.6666666666667</ele><time>2026-03-26T15:40:04.789Z</time></trkpt><trkpt lat="44.3462131" lon="8.3464309"><ele>447.33333333333337</ele><time>2026-03-26T15:40:06.789Z</time></trkpt><trkpt lat="44.3462977" lon="8.3464067"><ele>448.0</ele><time>2026-03-26T15:40:09.79Z</time></trkpt><trkpt lat="44.346365" lon="8.346365"><ele>449.33333333333337</ele><time>2026-03-26T15:40:12.789Z</time></trkpt><trkpt lat="44.3464253" lon="8.3462954"><ele>450.6666666666667</ele><time>2026-03-26T15:40:15.788Z</time></trkpt><trkpt lat="44.3464636" lon="8.346186"><ele>452.0</ele><time>2026-03-26T15:40:18.789Z</time></trkpt><trkpt lat="44.346497" lon="8.3460814"><ele>453.33333333333337</ele><time>2026-03-26T15:40:21.789Z</time></trkpt><trkpt lat="44.3465497" lon="8.3459748"><ele>454.6666666666667</ele><time>2026-03-26T15:40:24.789Z</time></trkpt><trkpt lat="44.3466151" lon="8.3459047"><ele>456.0</ele><time>2026-03-26T15:40:27.789Z</time></trkpt><trkpt lat="44.3466875" lon="8.3458603"><ele>456.0</ele><time>2026-03-26T15:40:30.79Z</time></trkpt><trkpt lat="44.3467533" lon="8.3458169"><ele>455.99999999999994</ele><time>2026-03-26T15:40:33.788Z</time></trkpt><trkpt lat="44.3468215" lon="8.3457784"><ele>456.0</ele><time>2026-03-26T15:40:36.788Z</time></trkpt><trkpt lat="44.3468882" lon="8.3457491"><ele>456.0</ele><time>2026-03-26T15:40:39.79Z</time></trkpt><trkpt lat="44.3469555" lon="8.34573"><ele>455.99999999999994</ele><time>2026-03-26T15:40:42.789Z</time></trkpt><trkpt lat="44.3470243" lon="8.345738"><ele>456.0</ele><time>2026-03-26T15:40:45.789Z</time></trkpt><trkpt lat="44.3471016" lon="8.3457617"><ele>456.0</ele><time>2026-03-26T15:40:48.789Z</time></trkpt><trkpt lat="44.347163" lon="8.3457937"><ele>456.85714285714283</ele><time>2026-03-26T15:40:50.789Z</time></trkpt><trkpt lat="44.3472325" lon="8.3458423"><ele>457.71428571428567</ele><time>2026-03-26T15:40:52.788Z</time></trkpt><trkpt lat="44.3472892" lon="8.3458894"><ele>458.57142857142856</ele><time>2026-03-26T15:40:54.79Z</time></trkpt><trkpt lat="44.3473582" lon="8.3459287"><ele>459.42857142857144</ele><time>2026-03-26T15:40:57.788Z</time></trkpt><trkpt lat="44.3474358" lon="8.3459134"><ele>460.2857142857143</ele><time>2026-03-26T15:41:00.79Z</time></trkpt><trkpt lat="44.3474977" lon="8.3458261"><ele>461.1428571428571</ele><time>2026-03-26T15:41:03.788Z</time></trkpt><trkpt lat="44.3475249" lon="8.3457439"><ele>462.0</ele><time>2026-03-26T15:41:05.789Z</time></trkpt><trkpt lat="44.3475349" lon="8.3456465"><ele>462.0</ele><time>2026-03-26T15:41:07.789Z</time></trkpt><trkpt lat="44.3475433" lon="8.3455542"><ele>462.0</ele><time>2026-03-26T15:41:09.789Z</time></trkpt><trkpt lat="44.3475529" lon="8.3454235"><ele>462.0</ele><time>2026-03-26T15:41:12.79Z</time></trkpt><trkpt lat="44.3475677" lon="8.3453254"><ele>462.0</ele><time>2026-03-26T15:41:14.789Z</time></trkpt><trkpt lat="44.347606" lon="8.3452253"><ele>462.0</ele><time>2026-03-26T15:41:16.789Z</time></trkpt><trkpt lat="44.3476641" lon="8.34517"><ele>462.0</ele><time>2026-03-26T15:41:18.789Z</time></trkpt><trkpt lat="44.3477346" lon="8.3451202"><ele>462.57142857142856</ele><time>2026-03-26T15:41:20.788Z</time></trkpt><trkpt lat="44.347797" lon="8.3450567"><ele>463.1428571428571</ele><time>2026-03-26T15:41:23.789Z</time></trkpt><trkpt lat="44.3478682" lon="8.344987"><ele>463.7142857142857</ele><time>2026-03-26T15:41:26.789Z</time></trkpt><trkpt lat="44.3479252" lon="8.3449432"><ele>464.2857142857143</ele><time>2026-03-26T15:41:28.789Z</time></trkpt><trkpt lat="44.3479777" lon="8.3448941"><ele>464.85714285714283</ele><time>2026-03-26T15:41:30.79Z</time></trkpt><trkpt lat="44.348035" lon="8.3448475"><ele>465.42857142857144</ele><time>2026-03-26T15:41:32.789Z</time></trkpt><trkpt lat="44.3481029" lon="8.3448056"><ele>466.0</ele><time>2026-03-26T15:41:34.789Z</time></trkpt><trkpt lat="44.3481683" lon="8.3447728"><ele>466.00000000000006</ele><time>2026-03-26T15:41:36.789Z</time></trkpt><trkpt lat="44.3482531" lon="8.3447685"><ele>466.0</ele><time>2026-03-26T15:41:38.789Z</time></trkpt><trkpt lat="44.3483412" lon="8.3447737"><ele>466.0</ele><time>2026-03-26T15:41:40.789Z</time></trkpt><trkpt lat="44.3484249" lon="8.344786"><ele>466.0</ele><time>2026-03-26T15:41:42.789Z</time></trkpt><trkpt lat="44.3484884" lon="8.3447969"><ele>466.00000000000006</ele><time>2026-03-26T15:41:44.788Z</time></trkpt><trkpt lat="44.3485826" lon="8.3447775"><ele>466.0</ele><time>2026-03-26T15:41:47.789Z</time></trkpt><trkpt lat="44.3486455" lon="8.3447161"><ele>466.33333333333337</ele><time>2026-03-26T15:41:49.789Z</time></trkpt><trkpt lat="44.3486854" lon="8.3446181"><ele>466.6666666666667</ele><time>2026-03-26T15:41:51.79Z</time></trkpt><trkpt lat="44.3486958" lon="8.344486"><ele>467.0</ele><time>2026-03-26T15:41:53.788Z</time></trkpt><trkpt lat="44.3486956" lon="8.3443942"><ele>467.33333333333337</ele><time>2026-03-26T15:41:54.789Z</time></trkpt><trkpt lat="44.3487161" lon="8.3442903"><ele>467.6666666666667</ele><time>2026-03-26T15:41:55.79Z</time></trkpt><trkpt lat="44.348747" lon="8.3441859"><ele>468.0</ele><time>2026-03-26T15:41:56.789Z</time></trkpt><trkpt lat="44.3487846" lon="8.3440959"><ele>468.0</ele><time>2026-03-26T15:41:57.789Z</time></trkpt><trkpt lat="44.3488488" lon="8.3440256"><ele>468.0</ele><time>2026-03-26T15:41:58.788Z</time></trkpt><trkpt lat="44.3489107" lon="8.3439445"><ele>468.0</ele><time>2026-03-26T15:41:59.789Z</time></trkpt><trkpt lat="44.348978" lon="8.3438642"><ele>468.0</ele><time>2026-03-26T15:42:00.79Z</time></trkpt><trkpt lat="44.3490381" lon="8.3438065"><ele>468.0</ele><time>2026-03-26T15:42:01.789Z</time></trkpt><trkpt lat="44.3491112" lon="8.3437388"><ele>468.0</ele><time>2026-03-26T15:42:02.789Z</time></trkpt><trkpt lat="44.3491768" lon="8.3436698"><ele>468.4</ele><time>2026-03-26T15:42:03.789Z</time></trkpt><trkpt lat="44.3492476" lon="8.3435956"><ele>468.79999999999995</ele><time>2026-03-26T15:42:04.79Z</time></trkpt><trkpt lat="44.3493277" lon="8.3435371"><ele>469.2</ele><time>2026-03-26T15:42:05.788Z</time></trkpt><trkpt lat="44.3494256" lon="8.3434875"><ele>469.6</ele><time>2026-03-26T15:42:06.788Z</time></trkpt><trkpt lat="44.3495157" lon="8.3434521"><ele>470.0</ele><time>2026-03-26T15:42:07.788Z</time></trkpt><trkpt lat="44.3495922" lon="8.3434181"><ele>469.99999999999994</ele><time>2026-03-26T15:42:08.789Z</time></trkpt><trkpt lat="44.3496631" lon="8.3434019"><ele>470.0</ele><time>2026-03-26T15:42:09.789Z</time></trkpt><trkpt lat="44.3497437" lon="8.3433788"><ele>470.0</ele><time>2026-03-26T15:42:10.789Z</time></trkpt><trkpt lat="44.3498277" lon="8.3433689"><ele>470.0</ele><time>2026-03-26T15:42:11.789Z</time></trkpt><trkpt lat="44.3499071" lon="8.3433662"><ele>469.99999999999994</ele><time>2026-03-26T15:42:12.79Z</time></trkpt><trkpt lat="44.3499819" lon="8.3434023"><ele>470.0</ele><time>2026-03-26T15:42:13.788Z</time></trkpt><trkpt lat="44.3500495" lon="8.3434529"><ele>469.3333333333333</ele><time>2026-03-26T15:42:14.79Z</time></trkpt><trkpt lat="44.3501212" lon="8.3435063"><ele>468.66666666666663</ele><time>2026-03-26T15:42:15.789Z</time></trkpt><trkpt lat="44.3501911" lon="8.3435643"><ele>468.0</ele><time>2026-03-26T15:42:16.789Z</time></trkpt><trkpt lat="44.3502536" lon="8.3436076"><ele>467.33333333333337</ele><time>2026-03-26T15:42:17.789Z</time></trkpt><trkpt lat="44.3503162" lon="8.343627"><ele>466.6666666666667</ele><time>2026-03-26T15:42:18.79Z</time></trkpt><trkpt lat="44.3504291" lon="8.3436133"><ele>466.0</ele><time>2026-03-26T15:42:20.789Z</time></trkpt><trkpt lat="44.3505548" lon="8.3435926"><ele>465.7142857142857</ele><time>2026-03-26T15:42:22.789Z</time></trkpt><trkpt lat="44.3506251" lon="8.3435851"><ele>465.42857142857144</ele><time>2026-03-26T15:42:23.787Z</time></trkpt><trkpt lat="44.3506963" lon="8.3435793"><ele>465.14285714285717</ele><time>2026-03-26T15:42:24.79Z</time></trkpt><trkpt lat="44.3507689" lon="8.3435726"><ele>464.8571428571429</ele><time>2026-03-26T15:42:25.788Z</time></trkpt><trkpt lat="44.3508392" lon="8.3435686"><ele>464.57142857142856</ele><time>2026-03-26T15:42:26.789Z</time></trkpt><trkpt lat="44.3509058" lon="8.3435545"><ele>464.28571428571433</ele><time>2026-03-26T15:42:27.789Z</time></trkpt><trkpt lat="44.350972" lon="8.3435414"><ele>464.00000000000006</ele><time>2026-03-26T15:42:28.788Z</time></trkpt><trkpt lat="44.3510341" lon="8.3435219"><ele>464.00000000000006</ele><time>2026-03-26T15:42:29.79Z</time></trkpt><trkpt lat="44.3510993" lon="8.3435073"><ele>464.0</ele><time>2026-03-26T15:42:30.789Z</time></trkpt><trkpt lat="44.3511677" lon="8.3434943"><ele>464.00000000000006</ele><time>2026-03-26T15:42:31.789Z</time></trkpt><trkpt lat="44.3512418" lon="8.3434845"><ele>464.00000000000006</ele><time>2026-03-26T15:42:32.79Z</time></trkpt><trkpt lat="44.3513137" lon="8.343493"><ele>464.0</ele><time>2026-03-26T15:42:33.788Z</time></trkpt><trkpt lat="44.35139" lon="8.3435298"><ele>464.00000000000006</ele><time>2026-03-26T15:42:34.79Z</time></trkpt><trkpt lat="44.3514539" lon="8.343568"><ele>464.00000000000006</ele><time>2026-03-26T15:42:35.789Z</time></trkpt><trkpt lat="44.3515251" lon="8.343596"><ele>463.4285714285715</ele><time>2026-03-26T15:42:36.789Z</time></trkpt><trkpt lat="44.3516007" lon="8.3436215"><ele>462.8571428571429</ele><time>2026-03-26T15:42:37.789Z</time></trkpt><trkpt lat="44.351678" lon="8.343644"><ele>462.2857142857143</ele><time>2026-03-26T15:42:38.788Z</time></trkpt><trkpt lat="44.3517505" lon="8.3436391"><ele>461.7142857142857</ele><time>2026-03-26T15:42:39.789Z</time></trkpt><trkpt lat="44.351823" lon="8.3436352"><ele>461.1428571428571</ele><time>2026-03-26T15:42:40.789Z</time></trkpt><trkpt lat="44.3518944" lon="8.3436068"><ele>460.5714285714285</ele><time>2026-03-26T15:42:41.79Z</time></trkpt><trkpt lat="44.3519647" lon="8.3435794"><ele>459.99999999999994</ele><time>2026-03-26T15:42:42.789Z</time></trkpt><trkpt lat="44.3520357" lon="8.3435574"><ele>459.99999999999994</ele><time>2026-03-26T15:42:43.79Z</time></trkpt><trkpt lat="44.3521055" lon="8.343537"><ele>460.0</ele><time>2026-03-26T15:42:44.788Z</time></trkpt><trkpt lat="44.3521787" lon="8.3435123"><ele>459.99999999999994</ele><time>2026-03-26T15:42:45.789Z</time></trkpt><trkpt lat="44.352246" lon="8.3434961"><ele>459.99999999999994</ele><time>2026-03-26T15:42:46.789Z</time></trkpt><trkpt lat="44.3523217" lon="8.3434814"><ele>460.0</ele><time>2026-03-26T15:42:47.79Z</time></trkpt><trkpt lat="44.352386" lon="8.3434895"><ele>459.99999999999994</ele><time>2026-03-26T15:42:48.789Z</time></trkpt><trkpt lat="44.3524569" lon="8.3435178"><ele>459.99999999999994</ele><time>2026-03-26T15:42:49.79Z</time></trkpt><trkpt lat="44.3525149" lon="8.343553"><ele>459.83333333333337</ele><time>2026-03-26T15:42:50.789Z</time></trkpt><trkpt lat="44.3525724" lon="8.343594"><ele>459.6666666666667</ele><time>2026-03-26T15:42:51.789Z</time></trkpt><trkpt lat="44.3526264" lon="8.3436763"><ele>459.5</ele><time>2026-03-26T15:42:52.788Z</time></trkpt><trkpt lat="44.3526825" lon="8.3437501"><ele>459.33333333333337</ele><time>2026-03-26T15:42:53.789Z</time></trkpt><trkpt lat="44.3527314" lon="8.3438365"><ele>459.1666666666667</ele><time>2026-03-26T15:42:54.789Z</time></trkpt><trkpt lat="44.3527806" lon="8.3439224"><ele>459.0</ele><time>2026-03-26T15:42:55.788Z</time></trkpt><trkpt lat="44.3528238" lon="8.3440187"><ele>459.0</ele><time>2026-03-26T15:42:56.788Z</time></trkpt><trkpt lat="44.3528599" lon="8.3441293"><ele>459.0</ele><time>2026-03-26T15:42:57.789Z</time></trkpt><trkpt lat="44.3529064" lon="8.3442081"><ele>459.0</ele><time>2026-03-26T15:42:58.79Z</time></trkpt><trkpt lat="44.3529551" lon="8.3442875"><ele>459.0</ele><time>2026-03-26T15:42:59.788Z</time></trkpt><trkpt lat="44.3530006" lon="8.3443563"><ele>459.0</ele><time>2026-03-26T15:43:00.79Z</time></trkpt><trkpt lat="44.3530688" lon="8.3443743"><ele>459.0</ele><time>2026-03-26T15:43:01.789Z</time></trkpt><trkpt lat="44.3531311" lon="8.3444253"><ele>459.0</ele><time>2026-03-26T15:43:02.788Z</time></trkpt><trkpt lat="44.3532255" lon="8.344491"><ele>457.0</ele><time>2026-03-26T15:43:04.788Z</time></trkpt><trkpt lat="44.353323" lon="8.344548"><ele>455.0</ele><time>2026-03-26T15:43:06.79Z</time></trkpt><trkpt lat="44.3534043" lon="8.3446087"><ele>453.0</ele><time>2026-03-26T15:43:08.789Z</time></trkpt><trkpt lat="44.3534838" lon="8.34467"><ele>451.0</ele><time>2026-03-26T15:43:10.789Z</time></trkpt><trkpt lat="44.3535626" lon="8.3447417"><ele>449.0</ele><time>2026-03-26T15:43:12.789Z</time></trkpt><trkpt lat="44.3536327" lon="8.3447841"><ele>448.99999999999994</ele><time>2026-03-26T15:43:14.788Z</time></trkpt><trkpt lat="44.3536921" lon="8.3448436"><ele>449.0</ele><time>2026-03-26T15:43:16.789Z</time></trkpt><trkpt lat="44.3537423" lon="8.3449104"><ele>449.0</ele><time>2026-03-26T15:43:18.789Z</time></trkpt><trkpt lat="44.3538105" lon="8.3449895"><ele>449.0</ele><time>2026-03-26T15:43:21.789Z</time></trkpt><trkpt lat="44.3538824" lon="8.3450696"><ele>448.99999999999994</ele><time>2026-03-26T15:43:24.789Z</time></trkpt><trkpt lat="44.3539352" lon="8.3451344"><ele>449.0</ele><time>2026-03-26T15:43:26.789Z</time></trkpt><trkpt lat="44.3539942" lon="8.3451812"><ele>449.66666666666663</ele><time>2026-03-26T15:43:29.788Z</time></trkpt><trkpt lat="44.3540679" lon="8.3452409"><ele>450.3333333333333</ele><time>2026-03-26T15:43:32.788Z</time></trkpt><trkpt lat="44.354151" lon="8.3452964"><ele>451.0</ele><time>2026-03-26T15:43:35.789Z</time></trkpt><trkpt lat="44.3542251" lon="8.3453543"><ele>451.66666666666663</ele><time>2026-03-26T15:43:38.789Z</time></trkpt><trkpt lat="44.3542933" lon="8.3454009"><ele>452.3333333333333</ele><time>2026-03-26T15:43:41.788Z</time></trkpt><trkpt lat="44.3543835" lon="8.3454626"><ele>453.0</ele><time>2026-03-26T15:43:44.79Z</time></trkpt><trkpt lat="44.3544469" lon="8.3455122"><ele>452.14285714285705</ele><time>2026-03-26T15:43:46.79Z</time></trkpt><trkpt lat="44.3545069" lon="8.3455515"><ele>451.2857142857143</ele><time>2026-03-26T15:43:48.789Z</time></trkpt><trkpt lat="44.3545859" lon="8.3456158"><ele>450.4285714285714</ele><time>2026-03-26T15:43:51.79Z</time></trkpt><trkpt lat="44.3546462" lon="8.3456653"><ele>449.57142857142856</ele><time>2026-03-26T15:43:53.789Z</time></trkpt><trkpt lat="44.3547187" lon="8.3457299"><ele>448.71428571428567</ele><time>2026-03-26T15:43:56.79Z</time></trkpt><trkpt lat="44.3547741" lon="8.3457718"><ele>447.85714285714283</ele><time>2026-03-26T15:43:58.788Z</time></trkpt><trkpt lat="44.354833" lon="8.3458031"><ele>447.0</ele><time>2026-03-26T15:44:00.79Z</time></trkpt><trkpt lat="44.3549124" lon="8.34584"><ele>449.0</ele><time>2026-03-26T15:44:03.789Z</time></trkpt><trkpt lat="44.3549838" lon="8.3458409"><ele>451.0</ele><time>2026-03-26T15:44:06.789Z</time></trkpt><trkpt lat="44.3550682" lon="8.3458307"><ele>453.0</ele><time>2026-03-26T15:44:10.789Z</time></trkpt><trkpt lat="44.355145" lon="8.3458216"><ele>455.0</ele><time>2026-03-26T15:44:13.79Z</time></trkpt><trkpt lat="44.3552228" lon="8.345844"><ele>457.0</ele><time>2026-03-26T15:44:16.789Z</time></trkpt><trkpt lat="44.3552859" lon="8.3459004"><ele>459.0</ele><time>2026-03-26T15:44:19.79Z</time></trkpt><trkpt lat="44.3553503" lon="8.3459879"><ele>459.0</ele><time>2026-03-26T15:44:23.79Z</time></trkpt><trkpt lat="44.3554009" lon="8.3460712"><ele>459.0</ele><time>2026-03-26T15:44:26.789Z</time></trkpt><trkpt lat="44.3554251" lon="8.3461746"><ele>459.0</ele><time>2026-03-26T15:44:30.79Z</time></trkpt><trkpt lat="44.355443" lon="8.34629"><ele>459.0</ele><time>2026-03-26T15:44:33.788Z</time></trkpt><trkpt lat="44.3554651" lon="8.3463999"><ele>459.0</ele><time>2026-03-26T15:44:36.79Z</time></trkpt><trkpt lat="44.3555185" lon="8.3464784"><ele>459.0</ele><time>2026-03-26T15:44:39.788Z</time></trkpt><trkpt lat="44.3555426" lon="8.3465935"><ele>460.8333333333333</ele><time>2026-03-26T15:44:41.788Z</time></trkpt><trkpt lat="44.3555696" lon="8.3467054"><ele>462.66666666666663</ele><time>2026-03-26T15:44:43.789Z</time></trkpt><trkpt lat="44.3555919" lon="8.3468052"><ele>464.5</ele><time>2026-03-26T15:44:45.788Z</time></trkpt><trkpt lat="44.3556347" lon="8.3468857"><ele>466.3333333333333</ele><time>2026-03-26T15:44:47.789Z</time></trkpt><trkpt lat="44.3556839" lon="8.3469493"><ele>468.16666666666663</ele><time>2026-03-26T15:44:49.79Z</time></trkpt><trkpt lat="44.3557309" lon="8.3470356"><ele>470.0</ele><time>2026-03-26T15:44:51.789Z</time></trkpt><trkpt lat="44.355773" lon="8.3471365"><ele>469.99999999999994</ele><time>2026-03-26T15:44:53.789Z</time></trkpt><trkpt lat="44.3558316" lon="8.3472094"><ele>470.0</ele><time>2026-03-26T15:44:55.789Z</time></trkpt><trkpt lat="44.3558901" lon="8.3472804"><ele>470.0</ele><time>2026-03-26T15:44:57.788Z</time></trkpt><trkpt lat="44.3559379" lon="8.3473534"><ele>470.0</ele><time>2026-03-26T15:44:59.787Z</time></trkpt><trkpt lat="44.3559777" lon="8.3474298"><ele>469.99999999999994</ele><time>2026-03-26T15:45:01.788Z</time></trkpt><trkpt lat="44.3560187" lon="8.3475327"><ele>470.0</ele><time>2026-03-26T15:45:03.789Z</time></trkpt><trkpt lat="44.3560656" lon="8.3476482"><ele>469.66666666666663</ele><time>2026-03-26T15:45:05.789Z</time></trkpt><trkpt lat="44.3560988" lon="8.3477449"><ele>469.3333333333333</ele><time>2026-03-26T15:45:07.789Z</time></trkpt><trkpt lat="44.3561262" lon="8.3478454"><ele>469.0</ele><time>2026-03-26T15:45:09.79Z</time></trkpt><trkpt lat="44.3561643" lon="8.3479377"><ele>468.66666666666663</ele><time>2026-03-26T15:45:11.789Z</time></trkpt><trkpt lat="44.3562155" lon="8.3480105"><ele>468.3333333333333</ele><time>2026-03-26T15:45:13.789Z</time></trkpt><trkpt lat="44.3562841" lon="8.3480819"><ele>468.0</ele><time>2026-03-26T15:45:15.789Z</time></trkpt><trkpt lat="44.3563467" lon="8.3481668"><ele>468.6666666666667</ele><time>2026-03-26T15:45:17.789Z</time></trkpt><trkpt lat="44.3564027" lon="8.3482441"><ele>469.33333333333337</ele><time>2026-03-26T15:45:19.788Z</time></trkpt><trkpt lat="44.3564643" lon="8.3483104"><ele>470.0</ele><time>2026-03-26T15:45:21.789Z</time></trkpt><trkpt lat="44.3565331" lon="8.3483639"><ele>470.6666666666667</ele><time>2026-03-26T15:45:23.789Z</time></trkpt><trkpt lat="44.3565987" lon="8.348417"><ele>471.33333333333337</ele><time>2026-03-26T15:45:25.789Z</time></trkpt><trkpt lat="44.3566665" lon="8.3484519"><ele>472.0</ele><time>2026-03-26T15:45:27.79Z</time></trkpt><trkpt lat="44.3567423" lon="8.3484684"><ele>472.00000000000006</ele><time>2026-03-26T15:45:29.79Z</time></trkpt><trkpt lat="44.35681" lon="8.3484647"><ele>472.0</ele><time>2026-03-26T15:45:31.789Z</time></trkpt><trkpt lat="44.3568858" lon="8.3484659"><ele>472.0</ele><time>2026-03-26T15:45:33.789Z</time></trkpt><trkpt lat="44.3569621" lon="8.3484735"><ele>472.0</ele><time>2026-03-26T15:45:35.79Z</time></trkpt><trkpt lat="44.3570437" lon="8.3484919"><ele>472.00000000000006</ele><time>2026-03-26T15:45:37.79Z</time></trkpt><trkpt lat="44.3571326" lon="8.3485633"><ele>472.0</ele><time>2026-03-26T15:45:39.787Z</time></trkpt><trkpt lat="44.3572387" lon="8.3486167"><ele>471.50000000000006</ele><time>2026-03-26T15:45:41.788Z</time></trkpt><trkpt lat="44.3573415" lon="8.3487087"><ele>471.0</ele><time>2026-03-26T15:45:43.788Z</time></trkpt><trkpt lat="44.3574052" lon="8.3487659"><ele>470.5</ele><time>2026-03-26T15:45:44.789Z</time></trkpt><trkpt lat="44.3574758" lon="8.3488174"><ele>470.0</ele><time>2026-03-26T15:45:45.789Z</time></trkpt><trkpt lat="44.3575428" lon="8.3488812"><ele>469.50000000000006</ele><time>2026-03-26T15:45:46.789Z</time></trkpt><trkpt lat="44.3576044" lon="8.3489506"><ele>469.0</ele><time>2026-03-26T15:45:47.789Z</time></trkpt><trkpt lat="44.3576686" lon="8.3490233"><ele>467.50000000000006</ele><time>2026-03-26T15:45:48.788Z</time></trkpt><trkpt lat="44.3577164" lon="8.3491063"><ele>466.0</ele><time>2026-03-26T15:45:49.789Z</time></trkpt><trkpt lat="44.3577679" lon="8.3491889"><ele>464.5</ele><time>2026-03-26T15:45:50.788Z</time></trkpt><trkpt lat="44.3578183" lon="8.349279"><ele>463.0</ele><time>2026-03-26T15:45:51.79Z</time></trkpt><trkpt lat="44.3578653" lon="8.3493726"><ele>461.50000000000006</ele><time>2026-03-26T15:45:52.789Z</time></trkpt><trkpt lat="44.3579101" lon="8.3494636"><ele>460.0</ele><time>2026-03-26T15:45:53.789Z</time></trkpt><trkpt lat="44.3579516" lon="8.3495724"><ele>460.0</ele><time>2026-03-26T15:45:54.79Z</time></trkpt><trkpt lat="44.3579925" lon="8.3496821"><ele>460.0</ele><time>2026-03-26T15:45:55.788Z</time></trkpt><trkpt lat="44.3580337" lon="8.3497931"><ele>460.0</ele><time>2026-03-26T15:45:56.79Z</time></trkpt><trkpt lat="44.358078" lon="8.3499055"><ele>460.0</ele><time>2026-03-26T15:45:57.788Z</time></trkpt><trkpt lat="44.3581248" lon="8.3500182"><ele>460.0</ele><time>2026-03-26T15:45:58.788Z</time></trkpt><trkpt lat="44.3581726" lon="8.3501351"><ele>459.4</ele><time>2026-03-26T15:45:59.788Z</time></trkpt><trkpt lat="44.3582077" lon="8.350256"><ele>458.8</ele><time>2026-03-26T15:46:00.788Z</time></trkpt><trkpt lat="44.3582353" lon="8.350374"><ele>458.20000000000005</ele><time>2026-03-26T15:46:01.789Z</time></trkpt><trkpt lat="44.358252" lon="8.3504881"><ele>457.6</ele><time>2026-03-26T15:46:02.789Z</time></trkpt><trkpt lat="44.3582533" lon="8.3505864"><ele>457.0</ele><time>2026-03-26T15:46:03.789Z</time></trkpt><trkpt lat="44.3582633" lon="8.3507507"><ele>457.00000000000006</ele><time>2026-03-26T15:46:05.789Z</time></trkpt><trkpt lat="44.3582607" lon="8.3508771"><ele>457.0</ele><time>2026-03-26T15:46:07.789Z</time></trkpt><trkpt lat="44.3582956" lon="8.350768"><ele>457.0</ele><time>2026-03-26T15:46:15.79Z</time></trkpt><trkpt lat="44.3582765" lon="8.3506393"><ele>457.0</ele><time>2026-03-26T15:46:17.788Z</time></trkpt><trkpt lat="44.3582664" lon="8.3505088"><ele>457.00000000000006</ele><time>2026-03-26T15:46:19.789Z</time></trkpt><trkpt lat="44.3582732" lon="8.3504209"><ele>457.0</ele><time>2026-03-26T15:46:20.79Z</time></trkpt><trkpt lat="44.3582904" lon="8.3503264"><ele>457.00000000000006</ele><time>2026-03-26T15:46:21.789Z</time></trkpt><trkpt lat="44.3583278" lon="8.3502509"><ele>457.0</ele><time>2026-03-26T15:46:22.789Z</time></trkpt><trkpt lat="44.3583781" lon="8.350181"><ele>457.00000000000006</ele><time>2026-03-26T15:46:23.789Z</time></trkpt><trkpt lat="44.3584338" lon="8.3501202"><ele>457.00000000000006</ele><time>2026-03-26T15:46:24.789Z</time></trkpt><trkpt lat="44.3584942" lon="8.3500769"><ele>457.0</ele><time>2026-03-26T15:46:25.788Z</time></trkpt><trkpt lat="44.3585583" lon="8.3500404"><ele>457.00000000000006</ele><time>2026-03-26T15:46:26.789Z</time></trkpt><trkpt lat="44.3586223" lon="8.3499997"><ele>457.00000000000006</ele><time>2026-03-26T15:46:27.789Z</time></trkpt><trkpt lat="44.3586854" lon="8.3499601"><ele>457.00000000000006</ele><time>2026-03-26T15:46:28.788Z</time></trkpt><trkpt lat="44.3587477" lon="8.3499172"><ele>457.0</ele><time>2026-03-26T15:46:29.789Z</time></trkpt><trkpt lat="44.3588118" lon="8.3498769"><ele>457.00000000000006</ele><time>2026-03-26T15:46:30.788Z</time></trkpt><trkpt lat="44.3588785" lon="8.3498402"><ele>457.00000000000006</ele><time>2026-03-26T15:46:31.789Z</time></trkpt><trkpt lat="44.3589468" lon="8.3498013"><ele>457.0</ele><time>2026-03-26T15:46:32.788Z</time></trkpt><trkpt lat="44.3590194" lon="8.3497648"><ele>457.00000000000006</ele><time>2026-03-26T15:46:33.788Z</time></trkpt><trkpt lat="44.3590967" lon="8.3497239"><ele>457.00000000000006</ele><time>2026-03-26T15:46:34.789Z</time></trkpt><trkpt lat="44.3591787" lon="8.3496751"><ele>456.33333333333337</ele><time>2026-03-26T15:46:35.79Z</time></trkpt><trkpt lat="44.3592577" lon="8.3496291"><ele>455.6666666666667</ele><time>2026-03-26T15:46:36.79Z</time></trkpt><trkpt lat="44.3593408" lon="8.3495842"><ele>455.0</ele><time>2026-03-26T15:46:37.789Z</time></trkpt><trkpt lat="44.3594232" lon="8.3495455"><ele>454.33333333333337</ele><time>2026-03-26T15:46:38.789Z</time></trkpt><trkpt lat="44.3595089" lon="8.3495028"><ele>453.6666666666667</ele><time>2026-03-26T15:46:39.789Z</time></trkpt><trkpt lat="44.359591" lon="8.3494532"><ele>453.0</ele><time>2026-03-26T15:46:40.788Z</time></trkpt><trkpt lat="44.3596764" lon="8.3493979"><ele>451.79999999999995</ele><time>2026-03-26T15:46:41.789Z</time></trkpt><trkpt lat="44.3597626" lon="8.3493486"><ele>450.59999999999997</ele><time>2026-03-26T15:46:42.789Z</time></trkpt><trkpt lat="44.3598507" lon="8.3492994"><ele>449.40000000000003</ele><time>2026-03-26T15:46:43.788Z</time></trkpt><trkpt lat="44.3599417" lon="8.3492518"><ele>448.20000000000005</ele><time>2026-03-26T15:46:44.79Z</time></trkpt><trkpt lat="44.3600407" lon="8.3492039"><ele>447.0</ele><time>2026-03-26T15:46:45.789Z</time></trkpt><trkpt lat="44.3601406" lon="8.3491602"><ele>447.0</ele><time>2026-03-26T15:46:46.788Z</time></trkpt><trkpt lat="44.360232" lon="8.3490864"><ele>447.00000000000006</ele><time>2026-03-26T15:46:47.789Z</time></trkpt><trkpt lat="44.3603231" lon="8.3490212"><ele>447.00000000000006</ele><time>2026-03-26T15:46:48.79Z</time></trkpt><trkpt lat="44.3604131" lon="8.3489542"><ele>447.0</ele><time>2026-03-26T15:46:49.788Z</time></trkpt><trkpt lat="44.3604972" lon="8.3488659"><ele>447.0</ele><time>2026-03-26T15:46:50.788Z</time></trkpt><trkpt lat="44.3605768" lon="8.3487524"><ele>445.20000000000005</ele><time>2026-03-26T15:46:51.788Z</time></trkpt><trkpt lat="44.3606585" lon="8.3486668"><ele>443.40000000000003</ele><time>2026-03-26T15:46:52.79Z</time></trkpt><trkpt lat="44.3607363" lon="8.3485724"><ele>441.59999999999997</ele><time>2026-03-26T15:46:53.788Z</time></trkpt><trkpt lat="44.3608161" lon="8.3484704"><ele>439.79999999999995</ele><time>2026-03-26T15:46:54.788Z</time></trkpt><trkpt lat="44.3608896" lon="8.3483699"><ele>438.0</ele><time>2026-03-26T15:46:55.789Z</time></trkpt><trkpt lat="44.3609655" lon="8.3482682"><ele>438.0</ele><time>2026-03-26T15:46:56.789Z</time></trkpt><trkpt lat="44.3610369" lon="8.3481699"><ele>437.99999999999994</ele><time>2026-03-26T15:46:57.789Z</time></trkpt><trkpt lat="44.3611132" lon="8.3480626"><ele>437.99999999999994</ele><time>2026-03-26T15:46:58.79Z</time></trkpt><trkpt lat="44.3611872" lon="8.3479617"><ele>438.0</ele><time>2026-03-26T15:46:59.789Z</time></trkpt><trkpt lat="44.3612593" lon="8.3478681"><ele>438.0</ele><time>2026-03-26T15:47:00.789Z</time></trkpt><trkpt lat="44.3613339" lon="8.3477727"><ele>437.4</ele><time>2026-03-26T15:47:01.788Z</time></trkpt><trkpt lat="44.3614027" lon="8.3476813"><ele>436.79999999999995</ele><time>2026-03-26T15:47:02.788Z</time></trkpt><trkpt lat="44.3614711" lon="8.3475893"><ele>436.2</ele><time>2026-03-26T15:47:03.789Z</time></trkpt><trkpt lat="44.361539" lon="8.3474948"><ele>435.6</ele><time>2026-03-26T15:47:04.787Z</time></trkpt><trkpt lat="44.3616043" lon="8.3474074"><ele>435.0</ele><time>2026-03-26T15:47:05.789Z</time></trkpt><trkpt lat="44.361668" lon="8.3473143"><ele>435.0</ele><time>2026-03-26T15:47:06.79Z</time></trkpt><trkpt lat="44.361734" lon="8.3472262"><ele>435.0</ele><time>2026-03-26T15:47:07.789Z</time></trkpt><trkpt lat="44.361796" lon="8.3471454"><ele>435.0</ele><time>2026-03-26T15:47:08.789Z</time></trkpt><trkpt lat="44.3618622" lon="8.3470606"><ele>435.0</ele><time>2026-03-26T15:47:09.788Z</time></trkpt><trkpt lat="44.3619265" lon="8.34697"><ele>435.0</ele><time>2026-03-26T15:47:10.789Z</time></trkpt><trkpt lat="44.361986" lon="8.3468905"><ele>435.0</ele><time>2026-03-26T15:47:11.789Z</time></trkpt><trkpt lat="44.3620494" lon="8.3468141"><ele>433.8</ele><time>2026-03-26T15:47:12.79Z</time></trkpt><trkpt lat="44.3621128" lon="8.346735"><ele>432.6</ele><time>2026-03-26T15:47:13.787Z</time></trkpt><trkpt lat="44.3621798" lon="8.3466465"><ele>431.4</ele><time>2026-03-26T15:47:14.79Z</time></trkpt><trkpt lat="44.3622436" lon="8.3465597"><ele>430.2</ele><time>2026-03-26T15:47:15.789Z</time></trkpt><trkpt lat="44.3623063" lon="8.3464578"><ele>429.0</ele><time>2026-03-26T15:47:16.789Z</time></trkpt><trkpt lat="44.3623693" lon="8.346372"><ele>427.4</ele><time>2026-03-26T15:47:17.789Z</time></trkpt><trkpt lat="44.362435" lon="8.3462689"><ele>425.79999999999995</ele><time>2026-03-26T15:47:18.789Z</time></trkpt><trkpt lat="44.3625018" lon="8.3461644"><ele>424.20000000000005</ele><time>2026-03-26T15:47:19.79Z</time></trkpt><trkpt lat="44.3625668" lon="8.346058"><ele>422.6</ele><time>2026-03-26T15:47:20.788Z</time></trkpt><trkpt lat="44.3626241" lon="8.3459415"><ele>421.0</ele><time>2026-03-26T15:47:21.789Z</time></trkpt><trkpt lat="44.3626801" lon="8.3458198"><ele>421.0</ele><time>2026-03-26T15:47:22.788Z</time></trkpt><trkpt lat="44.3627283" lon="8.3456929"><ele>421.0</ele><time>2026-03-26T15:47:23.79Z</time></trkpt><trkpt lat="44.3628012" lon="8.3455621"><ele>421.0</ele><time>2026-03-26T15:47:24.789Z</time></trkpt><trkpt lat="44.3628617" lon="8.3454457"><ele>421.0</ele><time>2026-03-26T15:47:25.789Z</time></trkpt><trkpt lat="44.3629215" lon="8.3453228"><ele>421.0</ele><time>2026-03-26T15:47:26.79Z</time></trkpt><trkpt lat="44.3629913" lon="8.3451921"><ele>420.0</ele><time>2026-03-26T15:47:27.789Z</time></trkpt><trkpt lat="44.3630638" lon="8.3450602"><ele>419.0</ele><time>2026-03-26T15:47:28.788Z</time></trkpt><trkpt lat="44.3631446" lon="8.3449337"><ele>418.0</ele><time>2026-03-26T15:47:29.789Z</time></trkpt><trkpt lat="44.363227" lon="8.3448144"><ele>417.0</ele><time>2026-03-26T15:47:30.789Z</time></trkpt><trkpt lat="44.3633337" lon="8.3446985"><ele>416.75</ele><time>2026-03-26T15:47:31.789Z</time></trkpt><trkpt lat="44.3634341" lon="8.3445944"><ele>416.5</ele><time>2026-03-26T15:47:32.79Z</time></trkpt><trkpt lat="44.36354" lon="8.3444842"><ele>416.25</ele><time>2026-03-26T15:47:33.79Z</time></trkpt><trkpt lat="44.3636413" lon="8.3443878"><ele>416.0</ele><time>2026-03-26T15:47:34.789Z</time></trkpt><trkpt lat="44.3637623" lon="8.3443017"><ele>416.0</ele><time>2026-03-26T15:47:35.788Z</time></trkpt><trkpt lat="44.3638591" lon="8.3442154"><ele>416.0</ele><time>2026-03-26T15:47:36.789Z</time></trkpt><trkpt lat="44.3639594" lon="8.3440999"><ele>416.0</ele><time>2026-03-26T15:47:37.79Z</time></trkpt><trkpt lat="44.3640374" lon="8.3439685"><ele>416.0</ele><time>2026-03-26T15:47:38.789Z</time></trkpt><trkpt lat="44.3641149" lon="8.3438266"><ele>413.25</ele><time>2026-03-26T15:47:39.789Z</time></trkpt><trkpt lat="44.3641478" lon="8.343661"><ele>410.5</ele><time>2026-03-26T15:47:40.789Z</time></trkpt><trkpt lat="44.3641732" lon="8.3434977"><ele>407.75</ele><time>2026-03-26T15:47:41.79Z</time></trkpt><trkpt lat="44.3641921" lon="8.3433349"><ele>405.0</ele><time>2026-03-26T15:47:42.789Z</time></trkpt><trkpt lat="44.3642069" lon="8.343174"><ele>405.5</ele><time>2026-03-26T15:47:43.79Z</time></trkpt><trkpt lat="44.3642166" lon="8.3430153"><ele>406.0</ele><time>2026-03-26T15:47:44.789Z</time></trkpt><trkpt lat="44.3642247" lon="8.3428546"><ele>406.5</ele><time>2026-03-26T15:47:45.789Z</time></trkpt><trkpt lat="44.3642311" lon="8.3426935"><ele>407.0</ele><time>2026-03-26T15:47:46.789Z</time></trkpt><trkpt lat="44.3642415" lon="8.3425281"><ele>407.0</ele><time>2026-03-26T15:47:47.788Z</time></trkpt><trkpt lat="44.3642508" lon="8.3423658"><ele>407.0</ele><time>2026-03-26T15:47:48.79Z</time></trkpt><trkpt lat="44.3642576" lon="8.342207"><ele>407.0</ele><time>2026-03-26T15:47:49.789Z</time></trkpt><trkpt lat="44.3642579" lon="8.3420534"><ele>407.0</ele><time>2026-03-26T15:47:50.788Z</time></trkpt><trkpt lat="44.3642603" lon="8.3419141"><ele>407.0</ele><time>2026-03-26T15:47:51.789Z</time></trkpt><trkpt lat="44.3642418" lon="8.3417504"><ele>406.6</ele><time>2026-03-26T15:47:52.788Z</time></trkpt><trkpt lat="44.3642284" lon="8.3416387"><ele>406.20000000000005</ele><time>2026-03-26T15:47:53.788Z</time></trkpt><trkpt lat="44.3642153" lon="8.3414988"><ele>405.8</ele><time>2026-03-26T15:47:54.79Z</time></trkpt><trkpt lat="44.3642041" lon="8.3413555"><ele>405.4</ele><time>2026-03-26T15:47:55.789Z</time></trkpt><trkpt lat="44.364184" lon="8.3412156"><ele>405.0</ele><time>2026-03-26T15:47:56.788Z</time></trkpt><trkpt lat="44.3641569" lon="8.3410793"><ele>404.0</ele><time>2026-03-26T15:47:57.789Z</time></trkpt><trkpt lat="44.3641301" lon="8.3409443"><ele>403.0</ele><time>2026-03-26T15:47:58.789Z</time></trkpt><trkpt lat="44.3640896" lon="8.3408188"><ele>402.0</ele><time>2026-03-26T15:47:59.79Z</time></trkpt><trkpt lat="44.364073" lon="8.3406879"><ele>401.0</ele><time>2026-03-26T15:48:00.787Z</time></trkpt><trkpt lat="44.3640778" lon="8.3405512"><ele>400.0</ele><time>2026-03-26T15:48:01.789Z</time></trkpt><trkpt lat="44.364091" lon="8.340417"><ele>398.6666666666667</ele><time>2026-03-26T15:48:02.787Z</time></trkpt><trkpt lat="44.3640892" lon="8.3403081"><ele>397.33333333333337</ele><time>2026-03-26T15:48:03.79Z</time></trkpt><trkpt lat="44.3641018" lon="8.3401707"><ele>396.0</ele><time>2026-03-26T15:48:04.789Z</time></trkpt><trkpt lat="44.3640716" lon="8.3400605"><ele>394.66666666666663</ele><time>2026-03-26T15:48:05.789Z</time></trkpt><trkpt lat="44.3640608" lon="8.3399524"><ele>393.3333333333333</ele><time>2026-03-26T15:48:06.789Z</time></trkpt><trkpt lat="44.3640394" lon="8.3398252"><ele>392.0</ele><time>2026-03-26T15:48:07.788Z</time></trkpt><trkpt lat="44.3640412" lon="8.3397068"><ele>391.16666666666663</ele><time>2026-03-26T15:48:08.788Z</time></trkpt><trkpt lat="44.3640183" lon="8.3396081"><ele>390.3333333333333</ele><time>2026-03-26T15:48:09.789Z</time></trkpt><trkpt lat="44.3640167" lon="8.3394723"><ele>389.5</ele><time>2026-03-26T15:48:10.789Z</time></trkpt><trkpt lat="44.3640136" lon="8.3393454"><ele>388.66666666666663</ele><time>2026-03-26T15:48:11.79Z</time></trkpt><trkpt lat="44.364013" lon="8.3392162"><ele>387.8333333333333</ele><time>2026-03-26T15:48:12.789Z</time></trkpt><trkpt lat="44.3640097" lon="8.3390911"><ele>387.0</ele><time>2026-03-26T15:48:13.789Z</time></trkpt><trkpt lat="44.3639964" lon="8.3389664"><ele>387.0</ele><time>2026-03-26T15:48:14.789Z</time></trkpt><trkpt lat="44.3639918" lon="8.3388489"><ele>387.0</ele><time>2026-03-26T15:48:15.789Z</time></trkpt><trkpt lat="44.363992" lon="8.3387362"><ele>387.0</ele><time>2026-03-26T15:48:16.788Z</time></trkpt><trkpt lat="44.3639896" lon="8.3386278"><ele>387.0</ele><time>2026-03-26T15:48:17.789Z</time></trkpt><trkpt lat="44.3639864" lon="8.3385255"><ele>387.0</ele><time>2026-03-26T15:48:18.788Z</time></trkpt><trkpt lat="44.3639831" lon="8.3384273"><ele>387.0</ele><time>2026-03-26T15:48:19.788Z</time></trkpt><trkpt lat="44.3639767" lon="8.338329"><ele>387.0</ele><time>2026-03-26T15:48:20.788Z</time></trkpt><trkpt lat="44.3639766" lon="8.3381651"><ele>387.0</ele><time>2026-03-26T15:48:22.789Z</time></trkpt><trkpt lat="44.3639841" lon="8.3380106"><ele>387.0</ele><time>2026-03-26T15:48:24.789Z</time></trkpt><trkpt lat="44.3640093" lon="8.3378609"><ele>387.0</ele><time>2026-03-26T15:48:26.789Z</time></trkpt><trkpt lat="44.3640319" lon="8.3377471"><ele>387.0</ele><time>2026-03-26T15:48:28.789Z</time></trkpt><trkpt lat="44.3640768" lon="8.3376442"><ele>387.1666666666667</ele><time>2026-03-26T15:48:30.789Z</time></trkpt><trkpt lat="44.3641469" lon="8.3375627"><ele>387.33333333333337</ele><time>2026-03-26T15:48:32.79Z</time></trkpt><trkpt lat="44.3642196" lon="8.3375027"><ele>387.5</ele><time>2026-03-26T15:48:34.789Z</time></trkpt><trkpt lat="44.3642922" lon="8.3374502"><ele>387.6666666666667</ele><time>2026-03-26T15:48:36.79Z</time></trkpt><trkpt lat="44.364366" lon="8.3373961"><ele>387.83333333333337</ele><time>2026-03-26T15:48:38.789Z</time></trkpt><trkpt lat="44.3644376" lon="8.3373408"><ele>388.0</ele><time>2026-03-26T15:48:40.788Z</time></trkpt><trkpt lat="44.3645111" lon="8.3372816"><ele>388.00000000000006</ele><time>2026-03-26T15:48:42.788Z</time></trkpt><trkpt lat="44.3645828" lon="8.3372261"><ele>388.0</ele><time>2026-03-26T15:48:44.788Z</time></trkpt><trkpt lat="44.3646558" lon="8.337175"><ele>388.0</ele><time>2026-03-26T15:48:46.789Z</time></trkpt><trkpt lat="44.364732" lon="8.3371223"><ele>388.0</ele><time>2026-03-26T15:48:48.789Z</time></trkpt><trkpt lat="44.3648076" lon="8.3370595"><ele>388.00000000000006</ele><time>2026-03-26T15:48:50.789Z</time></trkpt><trkpt lat="44.3648777" lon="8.3370085"><ele>388.0</ele><time>2026-03-26T15:48:52.79Z</time></trkpt><trkpt lat="44.3649445" lon="8.3369555"><ele>387.50000000000006</ele><time>2026-03-26T15:48:54.789Z</time></trkpt><trkpt lat="44.3650119" lon="8.3369046"><ele>387.0</ele><time>2026-03-26T15:48:56.789Z</time></trkpt><trkpt lat="44.3650874" lon="8.3368554"><ele>386.5</ele><time>2026-03-26T15:48:58.79Z</time></trkpt><trkpt lat="44.3651629" lon="8.336817"><ele>386.0</ele><time>2026-03-26T15:49:00.789Z</time></trkpt><trkpt lat="44.3652379" lon="8.3367744"><ele>385.50000000000006</ele><time>2026-03-26T15:49:02.788Z</time></trkpt><trkpt lat="44.3653128" lon="8.3367213"><ele>385.0</ele><time>2026-03-26T15:49:04.789Z</time></trkpt><trkpt lat="44.3653831" lon="8.3366597"><ele>385.00000000000006</ele><time>2026-03-26T15:49:06.788Z</time></trkpt><trkpt lat="44.365447" lon="8.3365839"><ele>385.0</ele><time>2026-03-26T15:49:08.788Z</time></trkpt><trkpt lat="44.3655097" lon="8.3365101"><ele>385.0</ele><time>2026-03-26T15:49:10.789Z</time></trkpt><trkpt lat="44.3655695" lon="8.3364384"><ele>385.0</ele><time>2026-03-26T15:49:12.79Z</time></trkpt><trkpt lat="44.3656255" lon="8.3363536"><ele>385.00000000000006</ele><time>2026-03-26T15:49:14.789Z</time></trkpt><trkpt lat="44.3656792" lon="8.3362665"><ele>385.0</ele><time>2026-03-26T15:49:16.789Z</time></trkpt><trkpt lat="44.365733" lon="8.3361739"><ele>385.6666666666667</ele><time>2026-03-26T15:49:18.788Z</time></trkpt><trkpt lat="44.3657781" lon="8.3360799"><ele>386.33333333333337</ele><time>2026-03-26T15:49:20.788Z</time></trkpt><trkpt lat="44.3658242" lon="8.3359747"><ele>387.0</ele><time>2026-03-26T15:49:22.789Z</time></trkpt><trkpt lat="44.3658589" lon="8.3358695"><ele>387.66666666666663</ele><time>2026-03-26T15:49:24.788Z</time></trkpt><trkpt lat="44.3658859" lon="8.3357614"><ele>388.3333333333333</ele><time>2026-03-26T15:49:26.79Z</time></trkpt><trkpt lat="44.3659093" lon="8.3356469"><ele>389.0</ele><time>2026-03-26T15:49:28.788Z</time></trkpt><trkpt lat="44.3659251" lon="8.3355245"><ele>389.2</ele><time>2026-03-26T15:49:30.789Z</time></trkpt><trkpt lat="44.3659501" lon="8.3354065"><ele>389.4</ele><time>2026-03-26T15:49:32.79Z</time></trkpt><trkpt lat="44.3659556" lon="8.3352766"><ele>389.6</ele><time>2026-03-26T15:49:34.789Z</time></trkpt><trkpt lat="44.3659573" lon="8.3351431"><ele>389.8</ele><time>2026-03-26T15:49:36.788Z</time></trkpt><trkpt lat="44.3659708" lon="8.3350175"><ele>390.0</ele><time>2026-03-26T15:49:38.789Z</time></trkpt><trkpt lat="44.3659767" lon="8.3348906"><ele>390.0</ele><time>2026-03-26T15:49:40.79Z</time></trkpt><trkpt lat="44.3659846" lon="8.3347575"><ele>390.0</ele><time>2026-03-26T15:49:42.788Z</time></trkpt><trkpt lat="44.3659939" lon="8.334619"><ele>390.0</ele><time>2026-03-26T15:49:44.79Z</time></trkpt><trkpt lat="44.3659946" lon="8.3344781"><ele>390.0</ele><time>2026-03-26T15:49:46.79Z</time></trkpt><trkpt lat="44.3659941" lon="8.3343482"><ele>390.0</ele><time>2026-03-26T15:49:48.789Z</time></trkpt><trkpt lat="44.3660016" lon="8.3342131"><ele>389.6</ele><time>2026-03-26T15:49:50.788Z</time></trkpt><trkpt lat="44.3660069" lon="8.3340732"><ele>389.2</ele><time>2026-03-26T15:49:52.788Z</time></trkpt><trkpt lat="44.3660138" lon="8.3339337"><ele>388.79999999999995</ele><time>2026-03-26T15:49:54.789Z</time></trkpt><trkpt lat="44.365994" lon="8.3337781"><ele>388.4</ele><time>2026-03-26T15:49:56.789Z</time></trkpt><trkpt lat="44.3660047" lon="8.3336427"><ele>388.0</ele><time>2026-03-26T15:49:58.789Z</time></trkpt><trkpt lat="44.3659972" lon="8.3334834"><ele>387.79999999999995</ele><time>2026-03-26T15:50:00.789Z</time></trkpt><trkpt lat="44.3660103" lon="8.3333396"><ele>387.6</ele><time>2026-03-26T15:50:02.79Z</time></trkpt><trkpt lat="44.3660209" lon="8.3331887"><ele>387.4</ele><time>2026-03-26T15:50:04.789Z</time></trkpt><trkpt lat="44.3660324" lon="8.3330365"><ele>387.20000000000005</ele><time>2026-03-26T15:50:06.788Z</time></trkpt><trkpt lat="44.3660396" lon="8.332872"><ele>387.0</ele><time>2026-03-26T15:50:08.789Z</time></trkpt><trkpt lat="44.3660454" lon="8.3327041"><ele>386.40000000000003</ele><time>2026-03-26T15:50:10.788Z</time></trkpt><trkpt lat="44.3660493" lon="8.3326159"><ele>385.8</ele><time>2026-03-26T15:50:11.789Z</time></trkpt><trkpt lat="44.3660614" lon="8.3324585"><ele>385.2</ele><time>2026-03-26T15:50:13.79Z</time></trkpt><trkpt lat="44.3660837" lon="8.332281"><ele>384.6</ele><time>2026-03-26T15:50:15.789Z</time></trkpt><trkpt lat="44.366091" lon="8.332104"><ele>384.0</ele><time>2026-03-26T15:50:17.79Z</time></trkpt><trkpt lat="44.366097" lon="8.3320064"><ele>383.3333333333333</ele><time>2026-03-26T15:50:18.789Z</time></trkpt><trkpt lat="44.3660986" lon="8.3319118"><ele>382.6666666666667</ele><time>2026-03-26T15:50:19.79Z</time></trkpt><trkpt lat="44.3660982" lon="8.331819"><ele>382.0</ele><time>2026-03-26T15:50:20.789Z</time></trkpt><trkpt lat="44.3661005" lon="8.3316696"><ele>381.33333333333337</ele><time>2026-03-26T15:50:22.789Z</time></trkpt><trkpt lat="44.366097" lon="8.331574"><ele>380.6666666666667</ele><time>2026-03-26T15:50:23.788Z</time></trkpt><trkpt lat="44.3660908" lon="8.3314682"><ele>380.0</ele><time>2026-03-26T15:50:24.79Z</time></trkpt><trkpt lat="44.3660808" lon="8.3313772"><ele>379.57142857142856</ele><time>2026-03-26T15:50:25.79Z</time></trkpt><trkpt lat="44.3660745" lon="8.3312879"><ele>379.14285714285717</ele><time>2026-03-26T15:50:26.789Z</time></trkpt><trkpt lat="44.3660786" lon="8.3311936"><ele>378.71428571428567</ele><time>2026-03-26T15:50:27.789Z</time></trkpt><trkpt lat="44.366082" lon="8.3311035"><ele>378.2857142857143</ele><time>2026-03-26T15:50:28.789Z</time></trkpt><trkpt lat="44.3660725" lon="8.3310113"><ele>377.85714285714283</ele><time>2026-03-26T15:50:29.789Z</time></trkpt><trkpt lat="44.3660736" lon="8.3309208"><ele>377.4285714285714</ele><time>2026-03-26T15:50:30.79Z</time></trkpt><trkpt lat="44.3660802" lon="8.3308259"><ele>377.0</ele><time>2026-03-26T15:50:31.789Z</time></trkpt><trkpt lat="44.366087" lon="8.3307301"><ele>377.0</ele><time>2026-03-26T15:50:32.789Z</time></trkpt><trkpt lat="44.3660888" lon="8.3306231"><ele>377.0</ele><time>2026-03-26T15:50:33.788Z</time></trkpt><trkpt lat="44.366102" lon="8.330533"><ele>377.0</ele><time>2026-03-26T15:50:34.79Z</time></trkpt><trkpt lat="44.3661139" lon="8.3304445"><ele>377.0</ele><time>2026-03-26T15:50:35.789Z</time></trkpt><trkpt lat="44.3661511" lon="8.3302827"><ele>377.0</ele><time>2026-03-26T15:50:37.79Z</time></trkpt><trkpt lat="44.3661518" lon="8.3301863"><ele>377.0</ele><time>2026-03-26T15:50:38.79Z</time></trkpt><trkpt lat="44.3661587" lon="8.3300912"><ele>376.6</ele><time>2026-03-26T15:50:39.788Z</time></trkpt><trkpt lat="44.3661605" lon="8.329998"><ele>376.20000000000005</ele><time>2026-03-26T15:50:40.788Z</time></trkpt><trkpt lat="44.3661757" lon="8.3298206"><ele>375.8</ele><time>2026-03-26T15:50:42.789Z</time></trkpt><trkpt lat="44.3661887" lon="8.3296422"><ele>375.4</ele><time>2026-03-26T15:50:44.788Z</time></trkpt><trkpt lat="44.3662153" lon="8.3294723"><ele>375.0</ele><time>2026-03-26T15:50:46.789Z</time></trkpt><trkpt lat="44.3662178" lon="8.3293759"><ele>374.7142857142857</ele><time>2026-03-26T15:50:47.789Z</time></trkpt><trkpt lat="44.3662199" lon="8.3292855"><ele>374.4285714285714</ele><time>2026-03-26T15:50:48.789Z</time></trkpt><trkpt lat="44.3662006" lon="8.3291935"><ele>374.1428571428571</ele><time>2026-03-26T15:50:49.789Z</time></trkpt><trkpt lat="44.3661749" lon="8.3290994"><ele>373.8571428571429</ele><time>2026-03-26T15:50:50.79Z</time></trkpt><trkpt lat="44.3661447" lon="8.3290072"><ele>373.57142857142856</ele><time>2026-03-26T15:50:51.789Z</time></trkpt><trkpt lat="44.3661251" lon="8.3289195"><ele>373.2857142857143</ele><time>2026-03-26T15:50:52.789Z</time></trkpt><trkpt lat="44.3661028" lon="8.3288275"><ele>373.0</ele><time>2026-03-26T15:50:53.788Z</time></trkpt><trkpt lat="44.3660851" lon="8.3287386"><ele>373.57142857142856</ele><time>2026-03-26T15:50:54.788Z</time></trkpt><trkpt lat="44.3660648" lon="8.3286485"><ele>374.14285714285717</ele><time>2026-03-26T15:50:55.789Z</time></trkpt><trkpt lat="44.3660432" lon="8.3285591"><ele>374.71428571428567</ele><time>2026-03-26T15:50:56.789Z</time></trkpt><trkpt lat="44.3660248" lon="8.3284694"><ele>375.2857142857143</ele><time>2026-03-26T15:50:57.788Z</time></trkpt><trkpt lat="44.3659975" lon="8.3283812"><ele>375.85714285714283</ele><time>2026-03-26T15:50:58.789Z</time></trkpt><trkpt lat="44.365975" lon="8.3282949"><ele>376.4285714285714</ele><time>2026-03-26T15:50:59.79Z</time></trkpt><trkpt lat="44.3659514" lon="8.3282024"><ele>377.0</ele><time>2026-03-26T15:51:00.789Z</time></trkpt><trkpt lat="44.3659298" lon="8.3281115"><ele>377.1428571428571</ele><time>2026-03-26T15:51:01.789Z</time></trkpt><trkpt lat="44.3659101" lon="8.3280238"><ele>377.2857142857143</ele><time>2026-03-26T15:51:02.79Z</time></trkpt><trkpt lat="44.3658919" lon="8.3279363"><ele>377.42857142857144</ele><time>2026-03-26T15:51:03.789Z</time></trkpt><trkpt lat="44.3658699" lon="8.3278461"><ele>377.57142857142856</ele><time>2026-03-26T15:51:04.79Z</time></trkpt><trkpt lat="44.3658462" lon="8.3277564"><ele>377.7142857142857</ele><time>2026-03-26T15:51:05.789Z</time></trkpt><trkpt lat="44.3658172" lon="8.3276663"><ele>377.85714285714283</ele><time>2026-03-26T15:51:06.789Z</time></trkpt><trkpt lat="44.3657901" lon="8.3275782"><ele>378.0</ele><time>2026-03-26T15:51:07.789Z</time></trkpt><trkpt lat="44.3657669" lon="8.3274883"><ele>378.0</ele><time>2026-03-26T15:51:08.789Z</time></trkpt><trkpt lat="44.3657488" lon="8.3273917"><ele>378.0</ele><time>2026-03-26T15:51:09.789Z</time></trkpt><trkpt lat="44.3657309" lon="8.3273007"><ele>378.0</ele><time>2026-03-26T15:51:10.789Z</time></trkpt><trkpt lat="44.3657019" lon="8.3272121"><ele>378.0</ele><time>2026-03-26T15:51:11.789Z</time></trkpt><trkpt lat="44.3656713" lon="8.3271226"><ele>378.0</ele><time>2026-03-26T15:51:12.791Z</time></trkpt><trkpt lat="44.3656506" lon="8.3270315"><ele>378.0</ele><time>2026-03-26T15:51:13.789Z</time></trkpt><trkpt lat="44.3656352" lon="8.3269394"><ele>378.0</ele><time>2026-03-26T15:51:14.788Z</time></trkpt><trkpt lat="44.3656241" lon="8.3268499"><ele>377.59999999999997</ele><time>2026-03-26T15:51:15.79Z</time></trkpt><trkpt lat="44.365622" lon="8.3267589"><ele>377.2</ele><time>2026-03-26T15:51:16.789Z</time></trkpt><trkpt lat="44.365626" lon="8.3265956"><ele>376.8</ele><time>2026-03-26T15:51:18.789Z</time></trkpt><trkpt lat="44.3656438" lon="8.3264255"><ele>376.4</ele><time>2026-03-26T15:51:20.788Z</time></trkpt><trkpt lat="44.3656762" lon="8.3262695"><ele>376.0</ele><time>2026-03-26T15:51:22.789Z</time></trkpt><trkpt lat="44.3657152" lon="8.3261393"><ele>374.4</ele><time>2026-03-26T15:51:24.789Z</time></trkpt><trkpt lat="44.3657628" lon="8.3260318"><ele>372.8</ele><time>2026-03-26T15:51:26.789Z</time></trkpt><trkpt lat="44.3658277" lon="8.3259244"><ele>371.2</ele><time>2026-03-26T15:51:28.789Z</time></trkpt><trkpt lat="44.3658924" lon="8.3258272"><ele>369.59999999999997</ele><time>2026-03-26T15:51:30.79Z</time></trkpt><trkpt lat="44.3659579" lon="8.3257446"><ele>368.0</ele><time>2026-03-26T15:51:32.79Z</time></trkpt><trkpt lat="44.366033" lon="8.3256811"><ele>368.0</ele><time>2026-03-26T15:51:34.789Z</time></trkpt><trkpt lat="44.3661161" lon="8.3256206"><ele>368.0</ele><time>2026-03-26T15:51:36.79Z</time></trkpt><trkpt lat="44.3661928" lon="8.3255633"><ele>368.0</ele><time>2026-03-26T15:51:38.789Z</time></trkpt><trkpt lat="44.3662687" lon="8.3255021"><ele>368.0</ele><time>2026-03-26T15:51:40.789Z</time></trkpt><trkpt lat="44.3663729" lon="8.3254496"><ele>368.0</ele><time>2026-03-26T15:51:43.788Z</time></trkpt><trkpt lat="44.366435" lon="8.3254184"><ele>368.0</ele><time>2026-03-26T15:51:44.744Z</time></trkpt><trkpt lat="44.3665007" lon="8.3253586"><ele>367.0</ele><time>2026-03-26T15:51:46.788Z</time></trkpt><trkpt lat="44.3665838" lon="8.3253125"><ele>366.0</ele><time>2026-03-26T15:51:48.788Z</time></trkpt><trkpt lat="44.3666662" lon="8.3252655"><ele>365.0</ele><time>2026-03-26T15:51:50.789Z</time></trkpt><trkpt lat="44.3667467" lon="8.3252022"><ele>364.0</ele><time>2026-03-26T15:51:52.789Z</time></trkpt><trkpt lat="44.3668294" lon="8.3251339"><ele>363.0</ele><time>2026-03-26T15:51:54.79Z</time></trkpt><trkpt lat="44.3669129" lon="8.3250887"><ele>363.0</ele><time>2026-03-26T15:51:56.79Z</time></trkpt><trkpt lat="44.3669986" lon="8.3250454"><ele>363.0</ele><time>2026-03-26T15:51:58.788Z</time></trkpt><trkpt lat="44.367083" lon="8.325007"><ele>363.0</ele><time>2026-03-26T15:52:00.789Z</time></trkpt><trkpt lat="44.3671698" lon="8.3249822"><ele>363.0</ele><time>2026-03-26T15:52:02.789Z</time></trkpt><trkpt lat="44.3672547" lon="8.3249642"><ele>363.0</ele><time>2026-03-26T15:52:04.788Z</time></trkpt><trkpt lat="44.3673496" lon="8.3249516"><ele>363.59999999999997</ele><time>2026-03-26T15:52:06.79Z</time></trkpt><trkpt lat="44.3674505" lon="8.324937"><ele>364.2</ele><time>2026-03-26T15:52:08.788Z</time></trkpt><trkpt lat="44.3675484" lon="8.3249163"><ele>364.8</ele><time>2026-03-26T15:52:10.79Z</time></trkpt><trkpt lat="44.3676447" lon="8.3248932"><ele>365.4</ele><time>2026-03-26T15:52:12.789Z</time></trkpt><trkpt lat="44.3677476" lon="8.3248784"><ele>366.0</ele><time>2026-03-26T15:52:14.789Z</time></trkpt><trkpt lat="44.3678448" lon="8.3248619"><ele>366.0</ele><time>2026-03-26T15:52:16.789Z</time></trkpt><trkpt lat="44.3679402" lon="8.3248456"><ele>366.0</ele><time>2026-03-26T15:52:18.789Z</time></trkpt><trkpt lat="44.3680296" lon="8.3248334"><ele>366.0</ele><time>2026-03-26T15:52:20.79Z</time></trkpt><trkpt lat="44.3681225" lon="8.3248439"><ele>366.0</ele><time>2026-03-26T15:52:22.788Z</time></trkpt><trkpt lat="44.368217" lon="8.3248268"><ele>366.0</ele><time>2026-03-26T15:52:24.789Z</time></trkpt><trkpt lat="44.3683127" lon="8.3247869"><ele>366.20000000000005</ele><time>2026-03-26T15:52:26.79Z</time></trkpt><trkpt lat="44.3684035" lon="8.3247685"><ele>366.40000000000003</ele><time>2026-03-26T15:52:28.79Z</time></trkpt><trkpt lat="44.3684956" lon="8.3247451"><ele>366.6</ele><time>2026-03-26T15:52:30.788Z</time></trkpt><trkpt lat="44.3685971" lon="8.3247259"><ele>366.8</ele><time>2026-03-26T15:52:32.789Z</time></trkpt><trkpt lat="44.368688" lon="8.3247194"><ele>367.0</ele><time>2026-03-26T15:52:34.789Z</time></trkpt><trkpt lat="44.368785" lon="8.32471"><ele>365.66666666666663</ele><time>2026-03-26T15:52:36.788Z</time></trkpt><trkpt lat="44.3688764" lon="8.3246922"><ele>364.3333333333333</ele><time>2026-03-26T15:52:38.788Z</time></trkpt><trkpt lat="44.3689628" lon="8.3246736"><ele>363.0</ele><time>2026-03-26T15:52:40.789Z</time></trkpt><trkpt lat="44.3690433" lon="8.3246741"><ele>361.6666666666667</ele><time>2026-03-26T15:52:42.789Z</time></trkpt><trkpt lat="44.3691268" lon="8.3246605"><ele>360.33333333333337</ele><time>2026-03-26T15:52:44.788Z</time></trkpt><trkpt lat="44.3692063" lon="8.3246415"><ele>359.0</ele><time>2026-03-26T15:52:46.789Z</time></trkpt><trkpt lat="44.3692853" lon="8.3246172"><ele>359.0</ele><time>2026-03-26T15:52:48.788Z</time></trkpt><trkpt lat="44.3693664" lon="8.3245892"><ele>359.0</ele><time>2026-03-26T15:52:50.788Z</time></trkpt><trkpt lat="44.3694453" lon="8.3245534"><ele>359.0</ele><time>2026-03-26T15:52:52.789Z</time></trkpt><trkpt lat="44.3695234" lon="8.3245198"><ele>359.0</ele><time>2026-03-26T15:52:54.79Z</time></trkpt><trkpt lat="44.3696032" lon="8.3244977"><ele>359.0</ele><time>2026-03-26T15:52:56.79Z</time></trkpt><trkpt lat="44.3696866" lon="8.3244974"><ele>359.0</ele><time>2026-03-26T15:52:58.788Z</time></trkpt><trkpt lat="44.3697627" lon="8.3244687"><ele>359.0</ele><time>2026-03-26T15:53:00.79Z</time></trkpt><trkpt lat="44.3697909" lon="8.3243715"><ele>359.0</ele><time>2026-03-26T15:53:02.788Z</time></trkpt><trkpt lat="44.3697602" lon="8.3242779"><ele>359.0</ele><time>2026-03-26T15:53:04.788Z</time></trkpt><trkpt lat="44.3696909" lon="8.3242345"><ele>359.0</ele><time>2026-03-26T15:53:06.788Z</time></trkpt><trkpt lat="44.3696105" lon="8.3242847"><ele>359.0</ele><time>2026-03-26T15:53:08.79Z</time></trkpt><trkpt lat="44.3695406" lon="8.3243704"><ele>359.0</ele><time>2026-03-26T15:53:10.789Z</time></trkpt><trkpt lat="44.3694624" lon="8.3244438"><ele>359.0</ele><time>2026-03-26T15:53:12.788Z</time></trkpt><trkpt lat="44.3693697" lon="8.3245136"><ele>359.0</ele><time>2026-03-26T15:53:14.789Z</time></trkpt><trkpt lat="44.3692746" lon="8.3245621"><ele>359.0</ele><time>2026-03-26T15:53:16.79Z</time></trkpt><trkpt lat="44.369173" lon="8.3245898"><ele>359.0</ele><time>2026-03-26T15:53:18.789Z</time></trkpt><trkpt lat="44.3690689" lon="8.3246125"><ele>359.0</ele><time>2026-03-26T15:53:20.789Z</time></trkpt><trkpt lat="44.3689676" lon="8.324635"><ele>359.0</ele><time>2026-03-26T15:53:22.79Z</time></trkpt><trkpt lat="44.3688697" lon="8.3246533"><ele>359.0</ele><time>2026-03-26T15:53:24.788Z</time></trkpt><trkpt lat="44.3687653" lon="8.3246685"><ele>359.0</ele><time>2026-03-26T15:53:26.79Z</time></trkpt><trkpt lat="44.3686564" lon="8.3246836"><ele>359.0</ele><time>2026-03-26T15:53:28.79Z</time></trkpt><trkpt lat="44.3685498" lon="8.3247063"><ele>359.0</ele><time>2026-03-26T15:53:30.789Z</time></trkpt><trkpt lat="44.3684346" lon="8.3247258"><ele>359.1666666666667</ele><time>2026-03-26T15:53:32.788Z</time></trkpt><trkpt lat="44.3683293" lon="8.3247205"><ele>359.33333333333337</ele><time>2026-03-26T15:53:34.79Z</time></trkpt><trkpt lat="44.3682626" lon="8.3245885"><ele>359.5</ele><time>2026-03-26T15:53:36.789Z</time></trkpt><trkpt lat="44.3682651" lon="8.3244968"><ele>359.6666666666667</ele><time>2026-03-26T15:53:37.789Z</time></trkpt><trkpt lat="44.3682817" lon="8.3244077"><ele>359.8333333333333</ele><time>2026-03-26T15:53:38.788Z</time></trkpt><trkpt lat="44.3683011" lon="8.3243163"><ele>360.0</ele><time>2026-03-26T15:53:39.788Z</time></trkpt><trkpt lat="44.3683216" lon="8.3242263"><ele>360.0</ele><time>2026-03-26T15:53:40.789Z</time></trkpt><trkpt lat="44.3683417" lon="8.3241276"><ele>360.0</ele><time>2026-03-26T15:53:41.788Z</time></trkpt><trkpt lat="44.3683951" lon="8.3239737"><ele>360.0</ele><time>2026-03-26T15:53:43.79Z</time></trkpt><trkpt lat="44.3684689" lon="8.3238956"><ele>360.0</ele><time>2026-03-26T15:53:45.789Z</time></trkpt><trkpt lat="44.3685386" lon="8.3239349"><ele>360.0</ele><time>2026-03-26T15:53:46.79Z</time></trkpt><trkpt lat="44.3686479" lon="8.323997"><ele>360.0</ele><time>2026-03-26T15:53:48.789Z</time></trkpt><trkpt lat="44.36876" lon="8.3240481"><ele>360.0</ele><time>2026-03-26T15:53:50.79Z</time></trkpt><trkpt lat="44.3688468" lon="8.3239333"><ele>360.0</ele><time>2026-03-26T15:53:52.79Z</time></trkpt><trkpt lat="44.3688758" lon="8.3238427"><ele>360.0</ele><time>2026-03-26T15:53:53.79Z</time></trkpt><trkpt lat="44.3689237" lon="8.3236717"><ele>360.0</ele><time>2026-03-26T15:53:55.79Z</time></trkpt><trkpt lat="44.368949" lon="8.3235901"><ele>359.2</ele><time>2026-03-26T15:53:56.789Z</time></trkpt><trkpt lat="44.3690119" lon="8.32344"><ele>358.4</ele><time>2026-03-26T15:53:58.789Z</time></trkpt><trkpt lat="44.3690609" lon="8.3232906"><ele>357.6</ele><time>2026-03-26T15:54:00.789Z</time></trkpt><trkpt lat="44.3691183" lon="8.3231593"><ele>356.8</ele><time>2026-03-26T15:54:02.789Z</time></trkpt><trkpt lat="44.3691517" lon="8.3230839"><ele>356.0</ele><time>2026-03-26T15:54:03.79Z</time></trkpt><trkpt lat="44.3691958" lon="8.3229448"><ele>356.20000000000005</ele><time>2026-03-26T15:54:05.788Z</time></trkpt><trkpt lat="44.3691751" lon="8.3228151"><ele>356.40000000000003</ele><time>2026-03-26T15:54:07.789Z</time></trkpt><trkpt lat="44.3690938" lon="8.3227619"><ele>356.6</ele><time>2026-03-26T15:54:09.789Z</time></trkpt><trkpt lat="44.3690052" lon="8.32271"><ele>356.8</ele><time>2026-03-26T15:54:11.789Z</time></trkpt><trkpt lat="44.3689235" lon="8.3226565"><ele>357.0</ele><time>2026-03-26T15:54:13.789Z</time></trkpt><trkpt lat="44.3688443" lon="8.322613"><ele>357.0</ele><time>2026-03-26T15:54:15.789Z</time></trkpt><trkpt lat="44.3687671" lon="8.3225638"><ele>357.0</ele><time>2026-03-26T15:54:17.79Z</time></trkpt><trkpt lat="44.3686878" lon="8.3224983"><ele>357.0</ele><time>2026-03-26T15:54:19.789Z</time></trkpt><trkpt lat="44.3686203" lon="8.3223978"><ele>357.0</ele><time>2026-03-26T15:54:21.789Z</time></trkpt><trkpt lat="44.3685241" lon="8.322337"><ele>357.0</ele><time>2026-03-26T15:54:24.79Z</time></trkpt><trkpt lat="44.3684341" lon="8.3222958"><ele>357.0</ele><time>2026-03-26T15:54:26.79Z</time></trkpt><trkpt lat="44.3683517" lon="8.3222736"><ele>357.0</ele><time>2026-03-26T15:54:28.789Z</time></trkpt><trkpt lat="44.3682662" lon="8.3222362"><ele>357.0</ele><time>2026-03-26T15:54:30.79Z</time></trkpt><trkpt lat="44.3681791" lon="8.3222329"><ele>357.0</ele><time>2026-03-26T15:54:32.789Z</time></trkpt><trkpt lat="44.3680909" lon="8.3222522"><ele>357.0</ele><time>2026-03-26T15:54:34.789Z</time></trkpt><trkpt lat="44.3680006" lon="8.3222945"><ele>357.0</ele><time>2026-03-26T15:54:36.788Z</time></trkpt><trkpt lat="44.367907" lon="8.3223338"><ele>357.0</ele><time>2026-03-26T15:54:38.788Z</time></trkpt><trkpt lat="44.3678104" lon="8.3223811"><ele>357.0</ele><time>2026-03-26T15:54:40.789Z</time></trkpt><trkpt lat="44.3677085" lon="8.3224217"><ele>357.0</ele><time>2026-03-26T15:54:42.789Z</time></trkpt><trkpt lat="44.3676131" lon="8.3224656"><ele>357.0</ele><time>2026-03-26T15:54:44.789Z</time></trkpt><trkpt lat="44.3675273" lon="8.3225205"><ele>357.0</ele><time>2026-03-26T15:54:46.79Z</time></trkpt><trkpt lat="44.367455" lon="8.3225594"><ele>357.0</ele><time>2026-03-26T15:54:48.789Z</time></trkpt><trkpt lat="44.3673958" lon="8.3225993"><ele>357.0</ele><time>2026-03-26T15:54:50.79Z</time></trkpt><trkpt lat="44.367347" lon="8.3226757"><ele>357.0</ele><time>2026-03-26T15:54:52.789Z</time></trkpt><trkpt lat="44.3673545" lon="8.3227975"><ele>357.0</ele><time>2026-03-26T15:54:54.789Z</time></trkpt><trkpt lat="44.3674152" lon="8.322936"><ele>357.0</ele><time>2026-03-26T15:54:56.789Z</time></trkpt><trkpt lat="44.3674982" lon="8.3230647"><ele>357.40000000000003</ele><time>2026-03-26T15:54:58.789Z</time></trkpt><trkpt lat="44.3675408" lon="8.3231317"><ele>357.8</ele><time>2026-03-26T15:54:59.789Z</time></trkpt><trkpt lat="44.3676144" lon="8.3232563"><ele>358.2</ele><time>2026-03-26T15:55:01.789Z</time></trkpt><trkpt lat="44.3676897" lon="8.323362"><ele>358.6</ele><time>2026-03-26T15:55:03.79Z</time></trkpt><trkpt lat="44.3677379" lon="8.3234779"><ele>359.0</ele><time>2026-03-26T15:55:05.789Z</time></trkpt><trkpt lat="44.3677551" lon="8.3236058"><ele>359.0</ele><time>2026-03-26T15:55:07.789Z</time></trkpt><trkpt lat="44.3677498" lon="8.323737"><ele>359.0</ele><time>2026-03-26T15:55:09.791Z</time></trkpt><trkpt lat="44.3676961" lon="8.3238819"><ele>359.0</ele><time>2026-03-26T15:55:11.79Z</time></trkpt><trkpt lat="44.367616" lon="8.3239658"><ele>359.0</ele><time>2026-03-26T15:55:13.79Z</time></trkpt><trkpt lat="44.367518" lon="8.3240294"><ele>359.0</ele><time>2026-03-26T15:55:15.789Z</time></trkpt><trkpt lat="44.3674311" lon="8.3240737"><ele>359.4</ele><time>2026-03-26T15:55:17.789Z</time></trkpt><trkpt lat="44.3673624" lon="8.3240865"><ele>359.79999999999995</ele><time>2026-03-26T15:55:18.789Z</time></trkpt><trkpt lat="44.3672655" lon="8.3241121"><ele>360.20000000000005</ele><time>2026-03-26T15:55:20.79Z</time></trkpt><trkpt lat="44.3671728" lon="8.3241418"><ele>360.6</ele><time>2026-03-26T15:55:22.789Z</time></trkpt><trkpt lat="44.3670708" lon="8.3241536"><ele>361.0</ele><time>2026-03-26T15:55:24.789Z</time></trkpt><trkpt lat="44.3669566" lon="8.32416"><ele>361.20000000000005</ele><time>2026-03-26T15:55:26.79Z</time></trkpt><trkpt lat="44.3668518" lon="8.3241702"><ele>361.40000000000003</ele><time>2026-03-26T15:55:28.79Z</time></trkpt><trkpt lat="44.3667484" lon="8.3241724"><ele>361.6</ele><time>2026-03-26T15:55:30.789Z</time></trkpt><trkpt lat="44.3666492" lon="8.3241917"><ele>361.8</ele><time>2026-03-26T15:55:32.789Z</time></trkpt><trkpt lat="44.3665591" lon="8.3242444"><ele>362.0</ele><time>2026-03-26T15:55:34.79Z</time></trkpt><trkpt lat="44.3664967" lon="8.3243368"><ele>362.0</ele><time>2026-03-26T15:55:36.788Z</time></trkpt><trkpt lat="44.3664418" lon="8.3244412"><ele>362.0</ele><time>2026-03-26T15:55:38.789Z</time></trkpt><trkpt lat="44.3663922" lon="8.3245582"><ele>362.0</ele><time>2026-03-26T15:55:40.79Z</time></trkpt><trkpt lat="44.3663431" lon="8.3246808"><ele>362.0</ele><time>2026-03-26T15:55:42.789Z</time></trkpt><trkpt lat="44.3662949" lon="8.3247841"><ele>362.0</ele><time>2026-03-26T15:55:44.789Z</time></trkpt><trkpt lat="44.3662405" lon="8.3248832"><ele>362.33333333333337</ele><time>2026-03-26T15:55:46.788Z</time></trkpt><trkpt lat="44.3661852" lon="8.3249852"><ele>362.6666666666667</ele><time>2026-03-26T15:55:48.789Z</time></trkpt><trkpt lat="44.3661272" lon="8.3250793"><ele>363.0</ele><time>2026-03-26T15:55:50.79Z</time></trkpt><trkpt lat="44.3660762" lon="8.3251808"><ele>363.3333333333333</ele><time>2026-03-26T15:55:52.789Z</time></trkpt><trkpt lat="44.3660156" lon="8.3252841"><ele>363.66666666666663</ele><time>2026-03-26T15:55:54.79Z</time></trkpt><trkpt lat="44.365969" lon="8.3253794"><ele>364.0</ele><time>2026-03-26T15:55:56.79Z</time></trkpt><trkpt lat="44.3659184" lon="8.3254777"><ele>364.57142857142856</ele><time>2026-03-26T15:55:58.79Z</time></trkpt><trkpt lat="44.365872" lon="8.3255795"><ele>365.1428571428571</ele><time>2026-03-26T15:56:00.789Z</time></trkpt><trkpt lat="44.3658304" lon="8.3256672"><ele>365.7142857142857</ele><time>2026-03-26T15:56:02.79Z</time></trkpt><trkpt lat="44.3657953" lon="8.3257526"><ele>366.2857142857143</ele><time>2026-03-26T15:56:04.79Z</time></trkpt><trkpt lat="44.3657698" lon="8.3258342"><ele>366.85714285714283</ele><time>2026-03-26T15:56:06.788Z</time></trkpt><trkpt lat="44.3657437" lon="8.3259318"><ele>367.42857142857144</ele><time>2026-03-26T15:56:08.789Z</time></trkpt><trkpt lat="44.3656726" lon="8.3259364"><ele>368.0</ele><time>2026-03-26T15:56:10.788Z</time></trkpt><trkpt lat="44.3656003" lon="8.3258858"><ele>368.0</ele><time>2026-03-26T15:56:12.79Z</time></trkpt><trkpt lat="44.3655291" lon="8.3258462"><ele>368.0</ele><time>2026-03-26T15:56:14.79Z</time></trkpt><trkpt lat="44.3654564" lon="8.3258092"><ele>368.0</ele><time>2026-03-26T15:56:16.789Z</time></trkpt><trkpt lat="44.3653853" lon="8.325751"><ele>368.0</ele><time>2026-03-26T15:56:18.789Z</time></trkpt><trkpt lat="44.3653063" lon="8.3256928"><ele>368.0</ele><time>2026-03-26T15:56:20.789Z</time></trkpt><trkpt lat="44.3652187" lon="8.32566"><ele>368.0</ele><time>2026-03-26T15:56:22.79Z</time></trkpt><trkpt lat="44.3651421" lon="8.325626"><ele>367.4</ele><time>2026-03-26T15:56:24.79Z</time></trkpt><trkpt lat="44.3650687" lon="8.3255784"><ele>366.79999999999995</ele><time>2026-03-26T15:56:26.79Z</time></trkpt><trkpt lat="44.3649905" lon="8.325516"><ele>366.2</ele><time>2026-03-26T15:56:28.789Z</time></trkpt><trkpt lat="44.3649046" lon="8.3254386"><ele>365.6</ele><time>2026-03-26T15:56:30.79Z</time></trkpt><trkpt lat="44.3648213" lon="8.3253532"><ele>365.0</ele><time>2026-03-26T15:56:32.789Z</time></trkpt><trkpt lat="44.3647402" lon="8.3252802"><ele>364.6</ele><time>2026-03-26T15:56:34.79Z</time></trkpt><trkpt lat="44.3646542" lon="8.3252229"><ele>364.2</ele><time>2026-03-26T15:56:36.789Z</time></trkpt><trkpt lat="44.3645645" lon="8.3251719"><ele>363.79999999999995</ele><time>2026-03-26T15:56:38.79Z</time></trkpt><trkpt lat="44.3644757" lon="8.3251238"><ele>363.4</ele><time>2026-03-26T15:56:40.789Z</time></trkpt><trkpt lat="44.3643783" lon="8.3250801"><ele>363.0</ele><time>2026-03-26T15:56:42.79Z</time></trkpt><trkpt lat="44.3642868" lon="8.3250057"><ele>363.0</ele><time>2026-03-26T15:56:44.789Z</time></trkpt><trkpt lat="44.3642311" lon="8.3249612"><ele>363.0</ele><time>2026-03-26T15:56:45.789Z</time></trkpt><trkpt lat="44.364174" lon="8.3249046"><ele>363.0</ele><time>2026-03-26T15:56:46.79Z</time></trkpt><trkpt lat="44.3640876" lon="8.3248157"><ele>363.0</ele><time>2026-03-26T15:56:48.789Z</time></trkpt><trkpt lat="44.3639868" lon="8.3247085"><ele>363.0</ele><time>2026-03-26T15:56:50.79Z</time></trkpt><trkpt lat="44.363906" lon="8.3246193"><ele>362.79999999999995</ele><time>2026-03-26T15:56:52.789Z</time></trkpt><trkpt lat="44.3638278" lon="8.3245251"><ele>362.6</ele><time>2026-03-26T15:56:54.788Z</time></trkpt><trkpt lat="44.3637377" lon="8.3244407"><ele>362.4</ele><time>2026-03-26T15:56:56.789Z</time></trkpt><trkpt lat="44.3636414" lon="8.3243534"><ele>362.20000000000005</ele><time>2026-03-26T15:56:58.79Z</time></trkpt><trkpt lat="44.3635696" lon="8.324264"><ele>362.0</ele><time>2026-03-26T15:57:00.789Z</time></trkpt><trkpt lat="44.363483" lon="8.3241842"><ele>362.0</ele><time>2026-03-26T15:57:02.79Z</time></trkpt><trkpt lat="44.3634036" lon="8.3240997"><ele>362.0</ele><time>2026-03-26T15:57:04.789Z</time></trkpt><trkpt lat="44.3633262" lon="8.3240114"><ele>362.0</ele><time>2026-03-26T15:57:06.789Z</time></trkpt><trkpt lat="44.3632414" lon="8.3239259"><ele>362.0</ele><time>2026-03-26T15:57:08.789Z</time></trkpt><trkpt lat="44.3631533" lon="8.3238423"><ele>362.0</ele><time>2026-03-26T15:57:10.791Z</time></trkpt><trkpt lat="44.3630647" lon="8.3237484"><ele>362.40000000000003</ele><time>2026-03-26T15:57:12.789Z</time></trkpt><trkpt lat="44.3630177" lon="8.3236897"><ele>362.8</ele><time>2026-03-26T15:57:13.789Z</time></trkpt><trkpt lat="44.3629252" lon="8.3235921"><ele>363.2</ele><time>2026-03-26T15:57:15.789Z</time></trkpt><trkpt lat="44.3628356" lon="8.3234961"><ele>363.6</ele><time>2026-03-26T15:57:17.79Z</time></trkpt><trkpt lat="44.362754" lon="8.3234144"><ele>364.0</ele><time>2026-03-26T15:57:19.789Z</time></trkpt><trkpt lat="44.3626762" lon="8.3233159"><ele>364.0</ele><time>2026-03-26T15:57:21.789Z</time></trkpt><trkpt lat="44.3625975" lon="8.3232321"><ele>364.0</ele><time>2026-03-26T15:57:23.789Z</time></trkpt><trkpt lat="44.3625155" lon="8.3231539"><ele>364.0</ele><time>2026-03-26T15:57:25.789Z</time></trkpt><trkpt lat="44.3624643" lon="8.3230823"><ele>364.0</ele><time>2026-03-26T15:57:27.789Z</time></trkpt><trkpt lat="44.3623681" lon="8.3230018"><ele>364.0</ele><time>2026-03-26T15:57:30.792Z</time></trkpt><trkpt lat="44.3623145" lon="8.3229453"><ele>364.0</ele><time>2026-03-26T15:57:31.79Z</time></trkpt><trkpt lat="44.3622583" lon="8.3228875"><ele>364.0</ele><time>2026-03-26T15:57:32.79Z</time></trkpt><trkpt lat="44.3621644" lon="8.3227741"><ele>364.0</ele><time>2026-03-26T15:57:34.791Z</time></trkpt><trkpt lat="44.3620705" lon="8.3226801"><ele>364.0</ele><time>2026-03-26T15:57:36.789Z</time></trkpt><trkpt lat="44.3620047" lon="8.3226014"><ele>364.0</ele><time>2026-03-26T15:57:38.79Z</time></trkpt><trkpt lat="44.3619196" lon="8.3225016"><ele>364.2</ele><time>2026-03-26T15:57:40.789Z</time></trkpt><trkpt lat="44.3618428" lon="8.3224111"><ele>364.4</ele><time>2026-03-26T15:57:42.789Z</time></trkpt><trkpt lat="44.361759" lon="8.322316"><ele>364.6</ele><time>2026-03-26T15:57:44.789Z</time></trkpt><trkpt lat="44.3616939" lon="8.3222666"><ele>364.8</ele><time>2026-03-26T15:57:46.789Z</time></trkpt><trkpt lat="44.3616344" lon="8.3222221"><ele>365.0</ele><time>2026-03-26T15:57:47.789Z</time></trkpt><trkpt lat="44.3615512" lon="8.3221255"><ele>364.6</ele><time>2026-03-26T15:57:49.79Z</time></trkpt><trkpt lat="44.3614714" lon="8.3220397"><ele>364.2</ele><time>2026-03-26T15:57:51.789Z</time></trkpt><trkpt lat="44.3613766" lon="8.3219522"><ele>363.79999999999995</ele><time>2026-03-26T15:57:53.789Z</time></trkpt><trkpt lat="44.3613039" lon="8.3218639"><ele>363.4</ele><time>2026-03-26T15:57:55.789Z</time></trkpt><trkpt lat="44.3612537" lon="8.3217988"><ele>363.0</ele><time>2026-03-26T15:57:57.789Z</time></trkpt><trkpt lat="44.3611833" lon="8.3217184"><ele>363.0</ele><time>2026-03-26T15:57:59.789Z</time></trkpt><trkpt lat="44.3611118" lon="8.3216428"><ele>363.0</ele><time>2026-03-26T15:58:01.789Z</time></trkpt><trkpt lat="44.3610326" lon="8.3215643"><ele>363.0</ele><time>2026-03-26T15:58:03.789Z</time></trkpt><trkpt lat="44.3609479" lon="8.3214711"><ele>363.0</ele><time>2026-03-26T15:58:05.79Z</time></trkpt><trkpt lat="44.3608768" lon="8.3213899"><ele>363.0</ele><time>2026-03-26T15:58:07.79Z</time></trkpt><trkpt lat="44.3607751" lon="8.3212937"><ele>363.0</ele><time>2026-03-26T15:58:09.79Z</time></trkpt><trkpt lat="44.3606852" lon="8.3212018"><ele>363.0</ele><time>2026-03-26T15:58:11.789Z</time></trkpt><trkpt lat="44.3605942" lon="8.321114"><ele>363.0</ele><time>2026-03-26T15:58:13.79Z</time></trkpt><trkpt lat="44.3605143" lon="8.3210297"><ele>363.0</ele><time>2026-03-26T15:58:15.789Z</time></trkpt><trkpt lat="44.3604394" lon="8.3209526"><ele>363.0</ele><time>2026-03-26T15:58:17.79Z</time></trkpt><trkpt lat="44.3603545" lon="8.3208634"><ele>363.0</ele><time>2026-03-26T15:58:19.79Z</time></trkpt><trkpt lat="44.3602676" lon="8.3207785"><ele>363.0</ele><time>2026-03-26T15:58:21.79Z</time></trkpt><trkpt lat="44.3601796" lon="8.3206908"><ele>363.0</ele><time>2026-03-26T15:58:23.789Z</time></trkpt><trkpt lat="44.3600822" lon="8.3205886"><ele>363.0</ele><time>2026-03-26T15:58:25.789Z</time></trkpt><trkpt lat="44.3599947" lon="8.3204956"><ele>363.0</ele><time>2026-03-26T15:58:27.789Z</time></trkpt><trkpt lat="44.3599468" lon="8.3204367"><ele>363.0</ele><time>2026-03-26T15:58:28.79Z</time></trkpt><trkpt lat="44.3598546" lon="8.3203368"><ele>363.0</ele><time>2026-03-26T15:58:30.79Z</time></trkpt><trkpt lat="44.3597751" lon="8.3202464"><ele>363.0</ele><time>2026-03-26T15:58:32.789Z</time></trkpt><trkpt lat="44.3596979" lon="8.3201632"><ele>363.0</ele><time>2026-03-26T15:58:34.789Z</time></trkpt><trkpt lat="44.359614" lon="8.3200747"><ele>363.0</ele><time>2026-03-26T15:58:36.788Z</time></trkpt><trkpt lat="44.3595404" lon="8.3199926"><ele>362.79999999999995</ele><time>2026-03-26T15:58:38.789Z</time></trkpt><trkpt lat="44.359463" lon="8.3199036"><ele>362.6</ele><time>2026-03-26T15:58:40.788Z</time></trkpt><trkpt lat="44.3593911" lon="8.31982"><ele>362.4</ele><time>2026-03-26T15:58:42.791Z</time></trkpt><trkpt lat="44.3593146" lon="8.3197283"><ele>362.20000000000005</ele><time>2026-03-26T15:58:44.789Z</time></trkpt><trkpt lat="44.3592383" lon="8.3196509"><ele>362.0</ele><time>2026-03-26T15:58:46.791Z</time></trkpt><trkpt lat="44.3591704" lon="8.3195657"><ele>362.0</ele><time>2026-03-26T15:58:48.789Z</time></trkpt><trkpt lat="44.3590934" lon="8.3194797"><ele>362.0</ele><time>2026-03-26T15:58:50.789Z</time></trkpt><trkpt lat="44.3590136" lon="8.3193931"><ele>362.0</ele><time>2026-03-26T15:58:52.79Z</time></trkpt><trkpt lat="44.3589363" lon="8.3193077"><ele>362.0</ele><time>2026-03-26T15:58:54.789Z</time></trkpt><trkpt lat="44.3588498" lon="8.3192271"><ele>362.0</ele><time>2026-03-26T15:58:56.788Z</time></trkpt><trkpt lat="44.3587612" lon="8.3191497"><ele>362.40000000000003</ele><time>2026-03-26T15:58:58.789Z</time></trkpt><trkpt lat="44.358677" lon="8.3190675"><ele>362.8</ele><time>2026-03-26T15:59:00.79Z</time></trkpt><trkpt lat="44.3585937" lon="8.3189661"><ele>363.2</ele><time>2026-03-26T15:59:02.79Z</time></trkpt><trkpt lat="44.358515" lon="8.3188744"><ele>363.6</ele><time>2026-03-26T15:59:04.788Z</time></trkpt><trkpt lat="44.3584307" lon="8.3187826"><ele>364.0</ele><time>2026-03-26T15:59:06.789Z</time></trkpt><trkpt lat="44.3583486" lon="8.3186913"><ele>364.0</ele><time>2026-03-26T15:59:08.789Z</time></trkpt><trkpt lat="44.358278" lon="8.3186111"><ele>364.0</ele><time>2026-03-26T15:59:10.79Z</time></trkpt><trkpt lat="44.3582012" lon="8.3185145"><ele>364.0</ele><time>2026-03-26T15:59:12.791Z</time></trkpt><trkpt lat="44.3581263" lon="8.3184339"><ele>364.0</ele><time>2026-03-26T15:59:14.789Z</time></trkpt><trkpt lat="44.3580483" lon="8.3183554"><ele>364.0</ele><time>2026-03-26T15:59:16.79Z</time></trkpt><trkpt lat="44.3579674" lon="8.318273"><ele>364.4</ele><time>2026-03-26T15:59:18.789Z</time></trkpt><trkpt lat="44.3578901" lon="8.3181919"><ele>364.79999999999995</ele><time>2026-03-26T15:59:20.79Z</time></trkpt><trkpt lat="44.3578051" lon="8.3181088"><ele>365.20000000000005</ele><time>2026-03-26T15:59:22.788Z</time></trkpt><trkpt lat="44.3577229" lon="8.3180258"><ele>365.6</ele><time>2026-03-26T15:59:24.788Z</time></trkpt><trkpt lat="44.3576427" lon="8.3179482"><ele>366.0</ele><time>2026-03-26T15:59:26.789Z</time></trkpt><trkpt lat="44.3575671" lon="8.3178818"><ele>366.0</ele><time>2026-03-26T15:59:28.79Z</time></trkpt><trkpt lat="44.3574929" lon="8.3177993"><ele>366.0</ele><time>2026-03-26T15:59:30.788Z</time></trkpt><trkpt lat="44.3574134" lon="8.3177102"><ele>366.0</ele><time>2026-03-26T15:59:32.788Z</time></trkpt><trkpt lat="44.3573409" lon="8.3176335"><ele>366.0</ele><time>2026-03-26T15:59:34.791Z</time></trkpt><trkpt lat="44.3572609" lon="8.3175548"><ele>366.0</ele><time>2026-03-26T15:59:36.79Z</time></trkpt><trkpt lat="44.3571851" lon="8.3174854"><ele>366.1666666666667</ele><time>2026-03-26T15:59:38.789Z</time></trkpt><trkpt lat="44.3571074" lon="8.3174131"><ele>366.3333333333333</ele><time>2026-03-26T15:59:40.789Z</time></trkpt><trkpt lat="44.3570347" lon="8.3173333"><ele>366.5</ele><time>2026-03-26T15:59:42.79Z</time></trkpt><trkpt lat="44.3569631" lon="8.317255"><ele>366.66666666666663</ele><time>2026-03-26T15:59:44.79Z</time></trkpt><trkpt lat="44.3568895" lon="8.3171976"><ele>366.8333333333333</ele><time>2026-03-26T15:59:46.789Z</time></trkpt><trkpt lat="44.3568177" lon="8.3171381"><ele>367.0</ele><time>2026-03-26T15:59:48.789Z</time></trkpt><trkpt lat="44.3567408" lon="8.3170659"><ele>367.0</ele><time>2026-03-26T15:59:50.79Z</time></trkpt><trkpt lat="44.3566516" lon="8.3169949"><ele>367.0</ele><time>2026-03-26T15:59:52.789Z</time></trkpt><trkpt lat="44.356577" lon="8.3169375"><ele>367.0</ele><time>2026-03-26T15:59:54.788Z</time></trkpt><trkpt lat="44.3565072" lon="8.3168589"><ele>367.0</ele><time>2026-03-26T15:59:56.789Z</time></trkpt><trkpt lat="44.3564291" lon="8.3167885"><ele>367.0</ele><time>2026-03-26T15:59:58.789Z</time></trkpt><trkpt lat="44.3563475" lon="8.316706"><ele>366.6</ele><time>2026-03-26T16:00:00.79Z</time></trkpt><trkpt lat="44.3562682" lon="8.3166174"><ele>366.20000000000005</ele><time>2026-03-26T16:00:02.789Z</time></trkpt><trkpt lat="44.3561961" lon="8.3165169"><ele>365.8</ele><time>2026-03-26T16:00:04.788Z</time></trkpt><trkpt lat="44.3561562" lon="8.3163815"><ele>365.4</ele><time>2026-03-26T16:00:06.788Z</time></trkpt><trkpt lat="44.356142" lon="8.3162305"><ele>365.0</ele><time>2026-03-26T16:00:08.789Z</time></trkpt><trkpt lat="44.3561501" lon="8.3161032"><ele>365.0</ele><time>2026-03-26T16:00:10.79Z</time></trkpt><trkpt lat="44.3561862" lon="8.3159819"><ele>365.0</ele><time>2026-03-26T16:00:12.788Z</time></trkpt><trkpt lat="44.3562496" lon="8.3158669"><ele>365.0</ele><time>2026-03-26T16:00:14.789Z</time></trkpt><trkpt lat="44.3563111" lon="8.3157611"><ele>365.0</ele><time>2026-03-26T16:00:16.79Z</time></trkpt><trkpt lat="44.3563698" lon="8.3156571"><ele>365.0</ele><time>2026-03-26T16:00:18.789Z</time></trkpt><trkpt lat="44.3564273" lon="8.3155498"><ele>366.0</ele><time>2026-03-26T16:00:20.789Z</time></trkpt><trkpt lat="44.3564835" lon="8.3154488"><ele>367.0</ele><time>2026-03-26T16:00:22.789Z</time></trkpt><trkpt lat="44.3565363" lon="8.3153458"><ele>368.0</ele><time>2026-03-26T16:00:24.79Z</time></trkpt><trkpt lat="44.3565919" lon="8.3152404"><ele>369.0</ele><time>2026-03-26T16:00:26.789Z</time></trkpt><trkpt lat="44.3566485" lon="8.3151356"><ele>370.0</ele><time>2026-03-26T16:00:28.789Z</time></trkpt><trkpt lat="44.3567002" lon="8.3150305"><ele>370.0</ele><time>2026-03-26T16:00:30.79Z</time></trkpt><trkpt lat="44.356759" lon="8.3149278"><ele>370.0</ele><time>2026-03-26T16:00:32.789Z</time></trkpt><trkpt lat="44.3568093" lon="8.3148259"><ele>370.0</ele><time>2026-03-26T16:00:34.789Z</time></trkpt><trkpt lat="44.3568665" lon="8.3147286"><ele>370.0</ele><time>2026-03-26T16:00:36.79Z</time></trkpt><trkpt lat="44.3569245" lon="8.3146333"><ele>370.0</ele><time>2026-03-26T16:00:38.788Z</time></trkpt><trkpt lat="44.3569783" lon="8.3145333"><ele>370.0</ele><time>2026-03-26T16:00:40.789Z</time></trkpt><trkpt lat="44.3570378" lon="8.3144297"><ele>370.0</ele><time>2026-03-26T16:00:42.79Z</time></trkpt><trkpt lat="44.3570862" lon="8.314329"><ele>370.0</ele><time>2026-03-26T16:00:44.789Z</time></trkpt><trkpt lat="44.3571348" lon="8.3142308"><ele>370.0</ele><time>2026-03-26T16:00:46.79Z</time></trkpt><trkpt lat="44.3571789" lon="8.3141388"><ele>370.0</ele><time>2026-03-26T16:00:48.79Z</time></trkpt><trkpt lat="44.3572192" lon="8.3140552"><ele>370.0</ele><time>2026-03-26T16:00:50.789Z</time></trkpt><trkpt lat="44.3572611" lon="8.3139709"><ele>370.66666666666663</ele><time>2026-03-26T16:00:52.788Z</time></trkpt><trkpt lat="44.3572929" lon="8.3138752"><ele>371.3333333333333</ele><time>2026-03-26T16:00:54.789Z</time></trkpt><trkpt lat="44.3573006" lon="8.3137699"><ele>372.0</ele><time>2026-03-26T16:00:56.79Z</time></trkpt><trkpt lat="44.3572826" lon="8.3136617"><ele>372.6666666666667</ele><time>2026-03-26T16:00:58.789Z</time></trkpt><trkpt lat="44.3572597" lon="8.3135618"><ele>373.33333333333337</ele><time>2026-03-26T16:01:00.789Z</time></trkpt><trkpt lat="44.3572215" lon="8.3134694"><ele>374.0</ele><time>2026-03-26T16:01:02.789Z</time></trkpt><trkpt lat="44.357166" lon="8.3133839"><ele>374.0</ele><time>2026-03-26T16:01:04.789Z</time></trkpt><trkpt lat="44.3570982" lon="8.3133219"><ele>374.0</ele><time>2026-03-26T16:01:06.789Z</time></trkpt><trkpt lat="44.3570259" lon="8.3132789"><ele>374.0</ele><time>2026-03-26T16:01:08.789Z</time></trkpt><trkpt lat="44.3569512" lon="8.313251"><ele>374.0</ele><time>2026-03-26T16:01:10.789Z</time></trkpt><trkpt lat="44.356871" lon="8.3132311"><ele>374.0</ele><time>2026-03-26T16:01:12.789Z</time></trkpt><trkpt lat="44.3567935" lon="8.3132043"><ele>374.0</ele><time>2026-03-26T16:01:14.79Z</time></trkpt><trkpt lat="44.3567204" lon="8.3131764"><ele>374.0</ele><time>2026-03-26T16:01:16.79Z</time></trkpt><trkpt lat="44.3566532" lon="8.313149"><ele>374.0</ele><time>2026-03-26T16:01:18.789Z</time></trkpt><trkpt lat="44.3565834" lon="8.3131223"><ele>374.0</ele><time>2026-03-26T16:01:20.791Z</time></trkpt><trkpt lat="44.3565127" lon="8.3130914"><ele>374.0</ele><time>2026-03-26T16:01:22.79Z</time></trkpt><trkpt lat="44.3564422" lon="8.3130584"><ele>374.0</ele><time>2026-03-26T16:01:24.788Z</time></trkpt><trkpt lat="44.3563697" lon="8.3130277"><ele>374.0</ele><time>2026-03-26T16:01:26.789Z</time></trkpt><trkpt lat="44.3562977" lon="8.3129994"><ele>374.0</ele><time>2026-03-26T16:01:28.788Z</time></trkpt><trkpt lat="44.3562229" lon="8.31297"><ele>375.6666666666667</ele><time>2026-03-26T16:01:30.789Z</time></trkpt><trkpt lat="44.3561452" lon="8.3129337"><ele>377.33333333333337</ele><time>2026-03-26T16:01:32.79Z</time></trkpt><trkpt lat="44.3560707" lon="8.3129062"><ele>379.0</ele><time>2026-03-26T16:01:34.789Z</time></trkpt><trkpt lat="44.3559987" lon="8.3128807"><ele>380.6666666666667</ele><time>2026-03-26T16:01:36.789Z</time></trkpt><trkpt lat="44.3559237" lon="8.3128537"><ele>382.3333333333333</ele><time>2026-03-26T16:01:38.789Z</time></trkpt><trkpt lat="44.3558479" lon="8.3128224"><ele>384.0</ele><time>2026-03-26T16:01:40.789Z</time></trkpt><trkpt lat="44.3557721" lon="8.3127902"><ele>383.99999999999994</ele><time>2026-03-26T16:01:42.789Z</time></trkpt><trkpt lat="44.3556989" lon="8.3127545"><ele>384.0</ele><time>2026-03-26T16:01:44.789Z</time></trkpt><trkpt lat="44.3556275" lon="8.3127177"><ele>384.0</ele><time>2026-03-26T16:01:46.789Z</time></trkpt><trkpt lat="44.355565" lon="8.3126783"><ele>384.0</ele><time>2026-03-26T16:01:48.79Z</time></trkpt><trkpt lat="44.3555037" lon="8.3126477"><ele>384.0</ele><time>2026-03-26T16:01:50.789Z</time></trkpt><trkpt lat="44.3554383" lon="8.3126025"><ele>383.99999999999994</ele><time>2026-03-26T16:01:52.79Z</time></trkpt><trkpt lat="44.355364" lon="8.3125571"><ele>384.0</ele><time>2026-03-26T16:01:54.789Z</time></trkpt><trkpt lat="44.355286" lon="8.3125062"><ele>383.0</ele><time>2026-03-26T16:01:56.789Z</time></trkpt><trkpt lat="44.3551995" lon="8.3124608"><ele>382.0</ele><time>2026-03-26T16:01:58.79Z</time></trkpt><trkpt lat="44.3551247" lon="8.3123941"><ele>381.0</ele><time>2026-03-26T16:02:00.789Z</time></trkpt><trkpt lat="44.3550447" lon="8.3123332"><ele>380.0</ele><time>2026-03-26T16:02:02.789Z</time></trkpt><trkpt lat="44.3549598" lon="8.3122766"><ele>379.0</ele><time>2026-03-26T16:02:04.789Z</time></trkpt><trkpt lat="44.354889" lon="8.3122174"><ele>378.0</ele><time>2026-03-26T16:02:06.788Z</time></trkpt><trkpt lat="44.354817" lon="8.3121537"><ele>378.59999999999997</ele><time>2026-03-26T16:02:08.789Z</time></trkpt><trkpt lat="44.3547426" lon="8.3120824"><ele>379.2</ele><time>2026-03-26T16:02:10.79Z</time></trkpt><trkpt lat="44.3546638" lon="8.3120186"><ele>379.8</ele><time>2026-03-26T16:02:12.789Z</time></trkpt><trkpt lat="44.3545778" lon="8.311963"><ele>380.4</ele><time>2026-03-26T16:02:14.79Z</time></trkpt><trkpt lat="44.3544854" lon="8.3119193"><ele>381.0</ele><time>2026-03-26T16:02:16.79Z</time></trkpt><trkpt lat="44.3543911" lon="8.3118812"><ele>381.0</ele><time>2026-03-26T16:02:18.788Z</time></trkpt><trkpt lat="44.3542957" lon="8.3118507"><ele>381.0</ele><time>2026-03-26T16:02:20.788Z</time></trkpt><trkpt lat="44.3542075" lon="8.3118289"><ele>381.0</ele><time>2026-03-26T16:02:22.791Z</time></trkpt><trkpt lat="44.3541198" lon="8.3118114"><ele>381.0</ele><time>2026-03-26T16:02:24.789Z</time></trkpt><trkpt lat="44.3540381" lon="8.3117917"><ele>381.0</ele><time>2026-03-26T16:02:26.789Z</time></trkpt><trkpt lat="44.3539476" lon="8.3117797"><ele>380.6666666666667</ele><time>2026-03-26T16:02:28.79Z</time></trkpt><trkpt lat="44.3538581" lon="8.3117589"><ele>380.3333333333333</ele><time>2026-03-26T16:02:30.789Z</time></trkpt><trkpt lat="44.3537713" lon="8.3117317"><ele>380.0</ele><time>2026-03-26T16:02:32.789Z</time></trkpt><trkpt lat="44.3536851" lon="8.3117115"><ele>379.66666666666663</ele><time>2026-03-26T16:02:34.79Z</time></trkpt><trkpt lat="44.3536008" lon="8.3116976"><ele>379.3333333333333</ele><time>2026-03-26T16:02:36.789Z</time></trkpt><trkpt lat="44.3535063" lon="8.3116872"><ele>379.0</ele><time>2026-03-26T16:02:38.789Z</time></trkpt><trkpt lat="44.353417" lon="8.3116859"><ele>379.0</ele><time>2026-03-26T16:02:40.789Z</time></trkpt><trkpt lat="44.3533237" lon="8.3116676"><ele>379.0</ele><time>2026-03-26T16:02:42.79Z</time></trkpt><trkpt lat="44.3532323" lon="8.3116438"><ele>379.0</ele><time>2026-03-26T16:02:44.789Z</time></trkpt><trkpt lat="44.3531402" lon="8.3116214"><ele>379.0</ele><time>2026-03-26T16:02:46.789Z</time></trkpt><trkpt lat="44.3530482" lon="8.3116182"><ele>379.0</ele><time>2026-03-26T16:02:48.789Z</time></trkpt><trkpt lat="44.3529534" lon="8.3115924"><ele>380.0</ele><time>2026-03-26T16:02:50.789Z</time></trkpt><trkpt lat="44.352857" lon="8.3115693"><ele>381.0</ele><time>2026-03-26T16:02:52.791Z</time></trkpt><trkpt lat="44.3527627" lon="8.3115511"><ele>382.0</ele><time>2026-03-26T16:02:54.789Z</time></trkpt><trkpt lat="44.3526735" lon="8.3115235"><ele>383.0</ele><time>2026-03-26T16:02:56.789Z</time></trkpt><trkpt lat="44.3525812" lon="8.3115037"><ele>384.0</ele><time>2026-03-26T16:02:58.788Z</time></trkpt><trkpt lat="44.3524958" lon="8.3114924"><ele>384.0</ele><time>2026-03-26T16:03:00.79Z</time></trkpt><trkpt lat="44.3524086" lon="8.3114965"><ele>384.0</ele><time>2026-03-26T16:03:02.789Z</time></trkpt><trkpt lat="44.3523232" lon="8.3114984"><ele>384.0</ele><time>2026-03-26T16:03:04.789Z</time></trkpt><trkpt lat="44.35224" lon="8.3115115"><ele>384.0</ele><time>2026-03-26T16:03:06.791Z</time></trkpt><trkpt lat="44.352157" lon="8.3115347"><ele>384.0</ele><time>2026-03-26T16:03:08.79Z</time></trkpt><trkpt lat="44.352073" lon="8.3115587"><ele>384.0</ele><time>2026-03-26T16:03:10.789Z</time></trkpt><trkpt lat="44.3519894" lon="8.3115844"><ele>384.0</ele><time>2026-03-26T16:03:12.788Z</time></trkpt><trkpt lat="44.3519104" lon="8.311625"><ele>384.0</ele><time>2026-03-26T16:03:14.79Z</time></trkpt><trkpt lat="44.3518167" lon="8.3116721"><ele>384.0</ele><time>2026-03-26T16:03:16.789Z</time></trkpt><trkpt lat="44.3517304" lon="8.3117138"><ele>384.0</ele><time>2026-03-26T16:03:18.789Z</time></trkpt><trkpt lat="44.3516375" lon="8.3117354"><ele>384.0</ele><time>2026-03-26T16:03:20.789Z</time></trkpt><trkpt lat="44.3515492" lon="8.3117804"><ele>384.0</ele><time>2026-03-26T16:03:22.789Z</time></trkpt><trkpt lat="44.351466" lon="8.3118463"><ele>384.0</ele><time>2026-03-26T16:03:24.79Z</time></trkpt><trkpt lat="44.3514407" lon="8.3119662"><ele>384.0</ele><time>2026-03-26T16:03:26.789Z</time></trkpt><trkpt lat="44.3514286" lon="8.3121262"><ele>384.0</ele><time>2026-03-26T16:03:28.789Z</time></trkpt><trkpt lat="44.3514179" lon="8.3122801"><ele>384.0</ele><time>2026-03-26T16:03:30.789Z</time></trkpt><trkpt lat="44.3513963" lon="8.3124256"><ele>384.79999999999995</ele><time>2026-03-26T16:03:32.789Z</time></trkpt><trkpt lat="44.3513646" lon="8.31256"><ele>385.59999999999997</ele><time>2026-03-26T16:03:34.789Z</time></trkpt><trkpt lat="44.3513181" lon="8.3126835"><ele>386.4</ele><time>2026-03-26T16:03:36.789Z</time></trkpt><trkpt lat="44.3512892" lon="8.3128099"><ele>387.2</ele><time>2026-03-26T16:03:38.79Z</time></trkpt><trkpt lat="44.3512568" lon="8.3129203"><ele>388.0</ele><time>2026-03-26T16:03:40.79Z</time></trkpt><trkpt lat="44.3512228" lon="8.3130304"><ele>388.00000000000006</ele><time>2026-03-26T16:03:42.79Z</time></trkpt><trkpt lat="44.3511888" lon="8.3131369"><ele>388.0</ele><time>2026-03-26T16:03:44.789Z</time></trkpt><trkpt lat="44.3511616" lon="8.3132499"><ele>388.0</ele><time>2026-03-26T16:03:46.791Z</time></trkpt><trkpt lat="44.3511383" lon="8.3133664"><ele>388.0</ele><time>2026-03-26T16:03:48.789Z</time></trkpt><trkpt lat="44.351107" lon="8.3134774"><ele>388.00000000000006</ele><time>2026-03-26T16:03:50.789Z</time></trkpt><trkpt lat="44.3510762" lon="8.3135838"><ele>388.0</ele><time>2026-03-26T16:03:52.79Z</time></trkpt><trkpt lat="44.351041" lon="8.3136927"><ele>388.00000000000006</ele><time>2026-03-26T16:03:54.79Z</time></trkpt><trkpt lat="44.3510097" lon="8.3138057"><ele>388.0</ele><time>2026-03-26T16:03:56.79Z</time></trkpt><trkpt lat="44.3509776" lon="8.3139138"><ele>388.0</ele><time>2026-03-26T16:03:58.79Z</time></trkpt><trkpt lat="44.350943" lon="8.3140205"><ele>388.0</ele><time>2026-03-26T16:04:00.79Z</time></trkpt><trkpt lat="44.3509173" lon="8.3141354"><ele>388.00000000000006</ele><time>2026-03-26T16:04:02.79Z</time></trkpt><trkpt lat="44.3508809" lon="8.314258"><ele>388.0</ele><time>2026-03-26T16:04:04.789Z</time></trkpt><trkpt lat="44.3508513" lon="8.3143915"><ele>387.79999999999995</ele><time>2026-03-26T16:04:06.791Z</time></trkpt><trkpt lat="44.3508319" lon="8.3145163"><ele>387.6</ele><time>2026-03-26T16:04:08.789Z</time></trkpt><trkpt lat="44.3508145" lon="8.3146615"><ele>387.4</ele><time>2026-03-26T16:04:10.789Z</time></trkpt><trkpt lat="44.3507935" lon="8.314806"><ele>387.20000000000005</ele><time>2026-03-26T16:04:12.79Z</time></trkpt><trkpt lat="44.3507775" lon="8.3149475"><ele>387.0</ele><time>2026-03-26T16:04:14.79Z</time></trkpt><trkpt lat="44.3507508" lon="8.3151"><ele>386.6</ele><time>2026-03-26T16:04:16.789Z</time></trkpt><trkpt lat="44.3507326" lon="8.3152502"><ele>386.20000000000005</ele><time>2026-03-26T16:04:18.789Z</time></trkpt><trkpt lat="44.3507055" lon="8.3153895"><ele>385.8</ele><time>2026-03-26T16:04:20.788Z</time></trkpt><trkpt lat="44.3506844" lon="8.3155132"><ele>385.4</ele><time>2026-03-26T16:04:22.79Z</time></trkpt><trkpt lat="44.3506692" lon="8.3156329"><ele>385.0</ele><time>2026-03-26T16:04:24.79Z</time></trkpt><trkpt lat="44.3506597" lon="8.315744"><ele>384.00000000000006</ele><time>2026-03-26T16:04:26.79Z</time></trkpt><trkpt lat="44.3506521" lon="8.3158541"><ele>383.0</ele><time>2026-03-26T16:04:28.791Z</time></trkpt><trkpt lat="44.3506387" lon="8.315963"><ele>382.0</ele><time>2026-03-26T16:04:30.789Z</time></trkpt><trkpt lat="44.3506154" lon="8.3160639"><ele>381.0</ele><time>2026-03-26T16:04:32.789Z</time></trkpt><trkpt lat="44.3505735" lon="8.3161636"><ele>380.0</ele><time>2026-03-26T16:04:34.789Z</time></trkpt><trkpt lat="44.350517" lon="8.3162501"><ele>379.0</ele><time>2026-03-26T16:04:36.79Z</time></trkpt><trkpt lat="44.3504407" lon="8.316304"><ele>381.79999999999995</ele><time>2026-03-26T16:04:38.789Z</time></trkpt><trkpt lat="44.350353" lon="8.3163339"><ele>384.59999999999997</ele><time>2026-03-26T16:04:40.789Z</time></trkpt><trkpt lat="44.3502588" lon="8.3163608"><ele>387.4</ele><time>2026-03-26T16:04:42.788Z</time></trkpt><trkpt lat="44.3501579" lon="8.3163923"><ele>390.2</ele><time>2026-03-26T16:04:44.79Z</time></trkpt><trkpt lat="44.3500609" lon="8.3163603"><ele>393.0</ele><time>2026-03-26T16:04:46.79Z</time></trkpt><trkpt lat="44.3499732" lon="8.3162941"><ele>393.0</ele><time>2026-03-26T16:04:48.79Z</time></trkpt><trkpt lat="44.3498911" lon="8.3161945"><ele>393.0</ele><time>2026-03-26T16:04:50.789Z</time></trkpt><trkpt lat="44.3498217" lon="8.3160933"><ele>393.0</ele><time>2026-03-26T16:04:52.79Z</time></trkpt><trkpt lat="44.3497529" lon="8.3159809"><ele>393.0</ele><time>2026-03-26T16:04:54.79Z</time></trkpt><trkpt lat="44.3496872" lon="8.3158743"><ele>393.0</ele><time>2026-03-26T16:04:56.789Z</time></trkpt><trkpt lat="44.3496229" lon="8.3157763"><ele>392.4</ele><time>2026-03-26T16:04:58.789Z</time></trkpt><trkpt lat="44.3495487" lon="8.3156668"><ele>391.79999999999995</ele><time>2026-03-26T16:05:00.789Z</time></trkpt><trkpt lat="44.3494807" lon="8.3155527"><ele>391.2</ele><time>2026-03-26T16:05:02.79Z</time></trkpt><trkpt lat="44.3494068" lon="8.3154591"><ele>390.6</ele><time>2026-03-26T16:05:04.79Z</time></trkpt><trkpt lat="44.34934" lon="8.3153561"><ele>390.0</ele><time>2026-03-26T16:05:06.79Z</time></trkpt><trkpt lat="44.3492621" lon="8.3152561"><ele>390.0</ele><time>2026-03-26T16:05:08.789Z</time></trkpt><trkpt lat="44.3491813" lon="8.3151548"><ele>390.0</ele><time>2026-03-26T16:05:10.789Z</time></trkpt><trkpt lat="44.3490944" lon="8.315054"><ele>390.0</ele><time>2026-03-26T16:05:12.789Z</time></trkpt><trkpt lat="44.3490018" lon="8.3149696"><ele>390.0</ele><time>2026-03-26T16:05:14.789Z</time></trkpt><trkpt lat="44.348908" lon="8.3148872"><ele>390.0</ele><time>2026-03-26T16:05:16.789Z</time></trkpt><trkpt lat="44.3488068" lon="8.3148199"><ele>390.25</ele><time>2026-03-26T16:05:18.789Z</time></trkpt><trkpt lat="44.3487013" lon="8.3147584"><ele>390.5</ele><time>2026-03-26T16:05:20.789Z</time></trkpt><trkpt lat="44.3486016" lon="8.3146852"><ele>390.75</ele><time>2026-03-26T16:05:22.79Z</time></trkpt><trkpt lat="44.3484997" lon="8.3146212"><ele>391.0</ele><time>2026-03-26T16:05:24.791Z</time></trkpt><trkpt lat="44.3484004" lon="8.3145445"><ele>391.0</ele><time>2026-03-26T16:05:26.789Z</time></trkpt><trkpt lat="44.3483057" lon="8.3144551"><ele>391.0</ele><time>2026-03-26T16:05:28.789Z</time></trkpt><trkpt lat="44.3482169" lon="8.3143561"><ele>391.0</ele><time>2026-03-26T16:05:30.79Z</time></trkpt><trkpt lat="44.3481276" lon="8.3142438"><ele>391.0</ele><time>2026-03-26T16:05:32.79Z</time></trkpt><trkpt lat="44.3480472" lon="8.3141303"><ele>389.5</ele><time>2026-03-26T16:05:34.79Z</time></trkpt><trkpt lat="44.3479705" lon="8.3140135"><ele>388.0</ele><time>2026-03-26T16:05:36.791Z</time></trkpt><trkpt lat="44.3478993" lon="8.3138863"><ele>386.5</ele><time>2026-03-26T16:05:38.789Z</time></trkpt><trkpt lat="44.3478178" lon="8.3137713"><ele>385.0</ele><time>2026-03-26T16:05:40.789Z</time></trkpt><trkpt lat="44.3477457" lon="8.313652"><ele>385.0</ele><time>2026-03-26T16:05:42.789Z</time></trkpt><trkpt lat="44.3476552" lon="8.3135523"><ele>385.0</ele><time>2026-03-26T16:05:44.79Z</time></trkpt><trkpt lat="44.3475619" lon="8.3134591"><ele>385.0</ele><time>2026-03-26T16:05:46.79Z</time></trkpt><trkpt lat="44.3474752" lon="8.3133821"><ele>385.0</ele><time>2026-03-26T16:05:48.789Z</time></trkpt><trkpt lat="44.3473889" lon="8.3133021"><ele>385.0</ele><time>2026-03-26T16:05:50.788Z</time></trkpt><trkpt lat="44.3473145" lon="8.3132387"><ele>385.00000000000006</ele><time>2026-03-26T16:05:52.789Z</time></trkpt><trkpt lat="44.3472283" lon="8.3132045"><ele>385.0</ele><time>2026-03-26T16:05:54.789Z</time></trkpt><trkpt lat="44.3471438" lon="8.3131519"><ele>385.0</ele><time>2026-03-26T16:05:56.791Z</time></trkpt><trkpt lat="44.3470682" lon="8.3130722"><ele>385.0</ele><time>2026-03-26T16:05:58.789Z</time></trkpt><trkpt lat="44.3469961" lon="8.3130067"><ele>385.00000000000006</ele><time>2026-03-26T16:06:00.788Z</time></trkpt><trkpt lat="44.3469328" lon="8.3129708"><ele>385.0</ele><time>2026-03-26T16:06:02.79Z</time></trkpt><trkpt lat="44.346869" lon="8.3129854"><ele>385.4</ele><time>2026-03-26T16:06:05.79Z</time></trkpt><trkpt lat="44.3467819" lon="8.3130483"><ele>385.8</ele><time>2026-03-26T16:06:08.79Z</time></trkpt><trkpt lat="44.3467275" lon="8.3131558"><ele>386.20000000000005</ele><time>2026-03-26T16:06:10.789Z</time></trkpt><trkpt lat="44.3466858" lon="8.3132708"><ele>386.6</ele><time>2026-03-26T16:06:12.79Z</time></trkpt><trkpt lat="44.3466431" lon="8.3133992"><ele>387.0</ele><time>2026-03-26T16:06:14.79Z</time></trkpt><trkpt lat="44.346597" lon="8.3135317"><ele>387.40000000000003</ele><time>2026-03-26T16:06:16.789Z</time></trkpt><trkpt lat="44.3465461" lon="8.3136661"><ele>387.8</ele><time>2026-03-26T16:06:18.789Z</time></trkpt><trkpt lat="44.3464916" lon="8.3137955"><ele>388.2</ele><time>2026-03-26T16:06:20.79Z</time></trkpt><trkpt lat="44.346426" lon="8.3139196"><ele>388.6</ele><time>2026-03-26T16:06:22.788Z</time></trkpt><trkpt lat="44.3463657" lon="8.3140534"><ele>389.0</ele><time>2026-03-26T16:06:24.789Z</time></trkpt><trkpt lat="44.3463183" lon="8.3141786"><ele>389.0</ele><time>2026-03-26T16:06:26.791Z</time></trkpt><trkpt lat="44.346257" lon="8.3142836"><ele>389.0</ele><time>2026-03-26T16:06:28.79Z</time></trkpt><trkpt lat="44.346195" lon="8.3144122"><ele>389.0</ele><time>2026-03-26T16:06:30.789Z</time></trkpt><trkpt lat="44.3461381" lon="8.3145349"><ele>389.0</ele><time>2026-03-26T16:06:32.789Z</time></trkpt><trkpt lat="44.3460847" lon="8.3146577"><ele>389.0</ele><time>2026-03-26T16:06:34.789Z</time></trkpt><trkpt lat="44.346056" lon="8.3147797"><ele>388.2</ele><time>2026-03-26T16:06:36.789Z</time></trkpt><trkpt lat="44.3460233" lon="8.3149025"><ele>387.4</ele><time>2026-03-26T16:06:38.789Z</time></trkpt><trkpt lat="44.345994" lon="8.3150343"><ele>386.6</ele><time>2026-03-26T16:06:40.788Z</time></trkpt><trkpt lat="44.3459523" lon="8.3151668"><ele>385.8</ele><time>2026-03-26T16:06:42.789Z</time></trkpt><trkpt lat="44.345914" lon="8.3153063"><ele>385.0</ele><time>2026-03-26T16:06:44.789Z</time></trkpt><trkpt lat="44.3458805" lon="8.3154487"><ele>384.6</ele><time>2026-03-26T16:06:46.789Z</time></trkpt><trkpt lat="44.3458643" lon="8.3155943"><ele>384.2</ele><time>2026-03-26T16:06:48.791Z</time></trkpt><trkpt lat="44.3458459" lon="8.3157425"><ele>383.79999999999995</ele><time>2026-03-26T16:06:50.79Z</time></trkpt><trkpt lat="44.3458277" lon="8.3158784"><ele>383.4</ele><time>2026-03-26T16:06:52.79Z</time></trkpt><trkpt lat="44.3458105" lon="8.3160146"><ele>383.0</ele><time>2026-03-26T16:06:54.79Z</time></trkpt><trkpt lat="44.3457808" lon="8.316171"><ele>383.0</ele><time>2026-03-26T16:06:56.789Z</time></trkpt><trkpt lat="44.3457659" lon="8.3163177"><ele>383.0</ele><time>2026-03-26T16:06:58.791Z</time></trkpt><trkpt lat="44.3457375" lon="8.3164598"><ele>383.0</ele><time>2026-03-26T16:07:00.79Z</time></trkpt><trkpt lat="44.3457135" lon="8.3165973"><ele>383.0</ele><time>2026-03-26T16:07:02.79Z</time></trkpt><trkpt lat="44.3456886" lon="8.3167388"><ele>383.0</ele><time>2026-03-26T16:07:04.788Z</time></trkpt><trkpt lat="44.3456612" lon="8.3168798"><ele>382.4</ele><time>2026-03-26T16:07:06.79Z</time></trkpt><trkpt lat="44.3456405" lon="8.3170191"><ele>381.79999999999995</ele><time>2026-03-26T16:07:08.789Z</time></trkpt><trkpt lat="44.3456227" lon="8.3171557"><ele>381.2</ele><time>2026-03-26T16:07:10.79Z</time></trkpt><trkpt lat="44.345594" lon="8.317299"><ele>380.6</ele><time>2026-03-26T16:07:12.79Z</time></trkpt><trkpt lat="44.3455694" lon="8.317438"><ele>380.0</ele><time>2026-03-26T16:07:14.788Z</time></trkpt><trkpt lat="44.3455511" lon="8.31758"><ele>384.8</ele><time>2026-03-26T16:07:16.789Z</time></trkpt><trkpt lat="44.3455273" lon="8.3177217"><ele>389.6</ele><time>2026-03-26T16:07:18.791Z</time></trkpt><trkpt lat="44.3455097" lon="8.3178602"><ele>394.4</ele><time>2026-03-26T16:07:20.789Z</time></trkpt><trkpt lat="44.3454882" lon="8.3180028"><ele>399.2</ele><time>2026-03-26T16:07:22.791Z</time></trkpt><trkpt lat="44.3454684" lon="8.318138"><ele>404.0</ele><time>2026-03-26T16:07:24.791Z</time></trkpt><trkpt lat="44.3454479" lon="8.3182709"><ele>404.0</ele><time>2026-03-26T16:07:26.79Z</time></trkpt><trkpt lat="44.3454253" lon="8.3184044"><ele>404.0</ele><time>2026-03-26T16:07:28.789Z</time></trkpt><trkpt lat="44.3454058" lon="8.3185372"><ele>404.0</ele><time>2026-03-26T16:07:30.789Z</time></trkpt><trkpt lat="44.3453747" lon="8.3186605"><ele>404.0</ele><time>2026-03-26T16:07:32.789Z</time></trkpt><trkpt lat="44.3453555" lon="8.3187981"><ele>404.0</ele><time>2026-03-26T16:07:34.789Z</time></trkpt><trkpt lat="44.3453255" lon="8.318933"><ele>404.0</ele><time>2026-03-26T16:07:36.788Z</time></trkpt><trkpt lat="44.3453036" lon="8.3190593"><ele>404.0</ele><time>2026-03-26T16:07:38.791Z</time></trkpt><trkpt lat="44.3452877" lon="8.3191851"><ele>404.0</ele><time>2026-03-26T16:07:40.789Z</time></trkpt><trkpt lat="44.3452895" lon="8.3193142"><ele>404.0</ele><time>2026-03-26T16:07:42.789Z</time></trkpt><trkpt lat="44.3453079" lon="8.3194505"><ele>404.0</ele><time>2026-03-26T16:07:44.788Z</time></trkpt><trkpt lat="44.3453264" lon="8.3195771"><ele>404.0</ele><time>2026-03-26T16:07:46.789Z</time></trkpt><trkpt lat="44.3453517" lon="8.319703"><ele>404.0</ele><time>2026-03-26T16:07:48.789Z</time></trkpt><trkpt lat="44.3453963" lon="8.3198206"><ele>404.0</ele><time>2026-03-26T16:07:50.79Z</time></trkpt><trkpt lat="44.3454486" lon="8.3199374"><ele>404.0</ele><time>2026-03-26T16:07:52.79Z</time></trkpt><trkpt lat="44.345503" lon="8.3200607"><ele>404.0</ele><time>2026-03-26T16:07:54.79Z</time></trkpt><trkpt lat="44.3455691" lon="8.3201827"><ele>399.6</ele><time>2026-03-26T16:07:56.79Z</time></trkpt><trkpt lat="44.3456372" lon="8.3202868"><ele>395.2</ele><time>2026-03-26T16:07:58.789Z</time></trkpt><trkpt lat="44.3456517" lon="8.320432"><ele>390.8</ele><time>2026-03-26T16:08:00.789Z</time></trkpt><trkpt lat="44.3456287" lon="8.3205713"><ele>386.40000000000003</ele><time>2026-03-26T16:08:02.789Z</time></trkpt><trkpt lat="44.345608" lon="8.3207135"><ele>382.0</ele><time>2026-03-26T16:08:04.79Z</time></trkpt><trkpt lat="44.3455769" lon="8.3208565"><ele>386.0</ele><time>2026-03-26T16:08:06.79Z</time></trkpt><trkpt lat="44.3455236" lon="8.3209975"><ele>390.0</ele><time>2026-03-26T16:08:08.789Z</time></trkpt><trkpt lat="44.3454939" lon="8.3210783"><ele>394.0</ele><time>2026-03-26T16:08:09.79Z</time></trkpt><trkpt lat="44.3454256" lon="8.3212227"><ele>398.0</ele><time>2026-03-26T16:08:11.79Z</time></trkpt><trkpt lat="44.3453729" lon="8.3212953"><ele>402.0</ele><time>2026-03-26T16:08:12.789Z</time></trkpt><trkpt lat="44.3453131" lon="8.3213583"><ele>399.1666666666667</ele><time>2026-03-26T16:08:13.79Z</time></trkpt><trkpt lat="44.3452622" lon="8.3214192"><ele>396.33333333333337</ele><time>2026-03-26T16:08:14.788Z</time></trkpt><trkpt lat="44.3452006" lon="8.3214753"><ele>393.5</ele><time>2026-03-26T16:08:15.789Z</time></trkpt><trkpt lat="44.3451447" lon="8.3215265"><ele>390.6666666666667</ele><time>2026-03-26T16:08:16.789Z</time></trkpt><trkpt lat="44.3450425" lon="8.3216317"><ele>387.83333333333337</ele><time>2026-03-26T16:08:18.79Z</time></trkpt><trkpt lat="44.3449921" lon="8.3216846"><ele>385.0</ele><time>2026-03-26T16:08:19.789Z</time></trkpt><trkpt lat="44.3448923" lon="8.3217735"><ele>385.0</ele><time>2026-03-26T16:08:21.789Z</time></trkpt><trkpt lat="44.3448048" lon="8.3218649"><ele>385.0</ele><time>2026-03-26T16:08:23.79Z</time></trkpt><trkpt lat="44.3447217" lon="8.3219446"><ele>385.0</ele><time>2026-03-26T16:08:25.79Z</time></trkpt><trkpt lat="44.3446396" lon="8.3220103"><ele>385.0</ele><time>2026-03-26T16:08:27.79Z</time></trkpt><trkpt lat="44.3445591" lon="8.3220884"><ele>385.0</ele><time>2026-03-26T16:08:29.789Z</time></trkpt><trkpt lat="44.3444835" lon="8.3221696"><ele>384.2</ele><time>2026-03-26T16:08:31.791Z</time></trkpt><trkpt lat="44.3444023" lon="8.3222494"><ele>383.4</ele><time>2026-03-26T16:08:33.789Z</time></trkpt><trkpt lat="44.3443283" lon="8.3223267"><ele>382.6</ele><time>2026-03-26T16:08:35.79Z</time></trkpt><trkpt lat="44.3442494" lon="8.3224075"><ele>381.8</ele><time>2026-03-26T16:08:37.79Z</time></trkpt><trkpt lat="44.3441621" lon="8.3224886"><ele>381.0</ele><time>2026-03-26T16:08:39.79Z</time></trkpt><trkpt lat="44.3440844" lon="8.3225696"><ele>381.0</ele><time>2026-03-26T16:08:41.791Z</time></trkpt><trkpt lat="44.3439916" lon="8.3226477"><ele>381.0</ele><time>2026-03-26T16:08:43.789Z</time></trkpt><trkpt lat="44.3439064" lon="8.3227341"><ele>381.0</ele><time>2026-03-26T16:08:45.79Z</time></trkpt><trkpt lat="44.3438234" lon="8.3228255"><ele>381.0</ele><time>2026-03-26T16:08:47.789Z</time></trkpt><trkpt lat="44.343745" lon="8.3229055"><ele>381.0</ele><time>2026-03-26T16:08:49.789Z</time></trkpt><trkpt lat="44.3436562" lon="8.3229873"><ele>380.75</ele><time>2026-03-26T16:08:51.79Z</time></trkpt><trkpt lat="44.3435634" lon="8.3230782"><ele>380.5</ele><time>2026-03-26T16:08:53.79Z</time></trkpt><trkpt lat="44.3434768" lon="8.3231745"><ele>380.25</ele><time>2026-03-26T16:08:55.789Z</time></trkpt><trkpt lat="44.3433884" lon="8.3232708"><ele>380.0</ele><time>2026-03-26T16:08:57.789Z</time></trkpt><trkpt lat="44.3432997" lon="8.3233703"><ele>380.0</ele><time>2026-03-26T16:08:59.791Z</time></trkpt><trkpt lat="44.3432024" lon="8.323452"><ele>380.0</ele><time>2026-03-26T16:09:01.79Z</time></trkpt><trkpt lat="44.3431027" lon="8.3235327"><ele>380.0</ele><time>2026-03-26T16:09:03.79Z</time></trkpt><trkpt lat="44.3430105" lon="8.3236199"><ele>380.0</ele><time>2026-03-26T16:09:05.789Z</time></trkpt><trkpt lat="44.3429054" lon="8.3236825"><ele>382.6</ele><time>2026-03-26T16:09:07.789Z</time></trkpt><trkpt lat="44.3427878" lon="8.3236818"><ele>385.2</ele><time>2026-03-26T16:09:09.791Z</time></trkpt><trkpt lat="44.3426822" lon="8.3236409"><ele>387.79999999999995</ele><time>2026-03-26T16:09:11.79Z</time></trkpt><trkpt lat="44.3425824" lon="8.3236016"><ele>390.4</ele><time>2026-03-26T16:09:13.789Z</time></trkpt><trkpt lat="44.3424809" lon="8.3236056"><ele>393.0</ele><time>2026-03-26T16:09:15.789Z</time></trkpt><trkpt lat="44.3423814" lon="8.3236386"><ele>393.0</ele><time>2026-03-26T16:09:17.79Z</time></trkpt><trkpt lat="44.3422909" lon="8.3236987"><ele>393.0</ele><time>2026-03-26T16:09:19.79Z</time></trkpt><trkpt lat="44.3421977" lon="8.3237582"><ele>393.0</ele><time>2026-03-26T16:09:21.789Z</time></trkpt><trkpt lat="44.3421054" lon="8.3238156"><ele>393.0</ele><time>2026-03-26T16:09:23.79Z</time></trkpt><trkpt lat="44.3420067" lon="8.3238624"><ele>393.0</ele><time>2026-03-26T16:09:25.788Z</time></trkpt><trkpt lat="44.3419149" lon="8.3239291"><ele>391.2</ele><time>2026-03-26T16:09:27.79Z</time></trkpt><trkpt lat="44.3418264" lon="8.3239948"><ele>389.4</ele><time>2026-03-26T16:09:29.789Z</time></trkpt><trkpt lat="44.3417411" lon="8.3240871"><ele>387.59999999999997</ele><time>2026-03-26T16:09:31.79Z</time></trkpt><trkpt lat="44.3416588" lon="8.3241811"><ele>385.79999999999995</ele><time>2026-03-26T16:09:33.789Z</time></trkpt><trkpt lat="44.3415692" lon="8.3242547"><ele>384.0</ele><time>2026-03-26T16:09:35.789Z</time></trkpt><trkpt lat="44.3414449" lon="8.32425"><ele>384.0</ele><time>2026-03-26T16:09:37.79Z</time></trkpt><trkpt lat="44.3413848" lon="8.3242022"><ele>384.0</ele><time>2026-03-26T16:09:38.789Z</time></trkpt><trkpt lat="44.3413394" lon="8.3241377"><ele>384.0</ele><time>2026-03-26T16:09:39.79Z</time></trkpt><trkpt lat="44.3413013" lon="8.3240554"><ele>384.0</ele><time>2026-03-26T16:09:40.789Z</time></trkpt><trkpt lat="44.3412801" lon="8.3239699"><ele>384.0</ele><time>2026-03-26T16:09:41.79Z</time></trkpt><trkpt lat="44.3412395" lon="8.3238175"><ele>384.0</ele><time>2026-03-26T16:09:43.79Z</time></trkpt><trkpt lat="44.3411937" lon="8.3236828"><ele>385.4</ele><time>2026-03-26T16:09:45.789Z</time></trkpt><trkpt lat="44.3411399" lon="8.3235589"><ele>386.79999999999995</ele><time>2026-03-26T16:09:47.789Z</time></trkpt><trkpt lat="44.3410852" lon="8.3234605"><ele>388.20000000000005</ele><time>2026-03-26T16:09:49.789Z</time></trkpt><trkpt lat="44.3410247" lon="8.3233625"><ele>389.6</ele><time>2026-03-26T16:09:51.79Z</time></trkpt><trkpt lat="44.3409571" lon="8.3232603"><ele>391.0</ele><time>2026-03-26T16:09:53.789Z</time></trkpt><trkpt lat="44.340891" lon="8.3231603"><ele>390.20000000000005</ele><time>2026-03-26T16:09:55.79Z</time></trkpt><trkpt lat="44.340821" lon="8.3230403"><ele>389.40000000000003</ele><time>2026-03-26T16:09:57.791Z</time></trkpt><trkpt lat="44.3407465" lon="8.3229247"><ele>388.6</ele><time>2026-03-26T16:09:59.788Z</time></trkpt><trkpt lat="44.340672" lon="8.3228247"><ele>387.8</ele><time>2026-03-26T16:10:01.791Z</time></trkpt><trkpt lat="44.3405971" lon="8.3227214"><ele>387.0</ele><time>2026-03-26T16:10:03.79Z</time></trkpt><trkpt lat="44.3405337" lon="8.3226147"><ele>387.0</ele><time>2026-03-26T16:10:05.788Z</time></trkpt><trkpt lat="44.3404679" lon="8.3225059"><ele>387.0</ele><time>2026-03-26T16:10:07.79Z</time></trkpt><trkpt lat="44.340407" lon="8.3223974"><ele>387.0</ele><time>2026-03-26T16:10:09.791Z</time></trkpt><trkpt lat="44.3403352" lon="8.3223012"><ele>387.0</ele><time>2026-03-26T16:10:11.791Z</time></trkpt><trkpt lat="44.3402777" lon="8.3221906"><ele>387.0</ele><time>2026-03-26T16:10:13.789Z</time></trkpt><trkpt lat="44.3402134" lon="8.3220891"><ele>389.0</ele><time>2026-03-26T16:10:15.79Z</time></trkpt><trkpt lat="44.3401505" lon="8.3219892"><ele>391.0</ele><time>2026-03-26T16:10:17.788Z</time></trkpt><trkpt lat="44.3400899" lon="8.3218878"><ele>393.0</ele><time>2026-03-26T16:10:19.79Z</time></trkpt><trkpt lat="44.34002" lon="8.3218064"><ele>395.0</ele><time>2026-03-26T16:10:21.79Z</time></trkpt><trkpt lat="44.3399472" lon="8.3217291"><ele>397.0</ele><time>2026-03-26T16:10:23.79Z</time></trkpt><trkpt lat="44.3398732" lon="8.3216559"><ele>397.00000000000006</ele><time>2026-03-26T16:10:25.79Z</time></trkpt><trkpt lat="44.339797" lon="8.3215912"><ele>397.0</ele><time>2026-03-26T16:10:27.79Z</time></trkpt><trkpt lat="44.3397169" lon="8.3215425"><ele>397.0</ele><time>2026-03-26T16:10:29.79Z</time></trkpt><trkpt lat="44.3396273" lon="8.3215306"><ele>397.0</ele><time>2026-03-26T16:10:31.79Z</time></trkpt><trkpt lat="44.3395444" lon="8.3215112"><ele>397.00000000000006</ele><time>2026-03-26T16:10:33.789Z</time></trkpt><trkpt lat="44.3394573" lon="8.3214735"><ele>397.0</ele><time>2026-03-26T16:10:35.79Z</time></trkpt><trkpt lat="44.3393799" lon="8.3214172"><ele>398.00000000000006</ele><time>2026-03-26T16:10:37.789Z</time></trkpt><trkpt lat="44.3393024" lon="8.3213659"><ele>399.0</ele><time>2026-03-26T16:10:39.79Z</time></trkpt><trkpt lat="44.3392231" lon="8.3213142"><ele>400.0</ele><time>2026-03-26T16:10:41.789Z</time></trkpt><trkpt lat="44.3391406" lon="8.3212568"><ele>401.0</ele><time>2026-03-26T16:10:43.79Z</time></trkpt><trkpt lat="44.3390611" lon="8.3212114"><ele>402.00000000000006</ele><time>2026-03-26T16:10:45.791Z</time></trkpt><trkpt lat="44.3389799" lon="8.321173"><ele>403.0</ele><time>2026-03-26T16:10:47.79Z</time></trkpt><trkpt lat="44.338901" lon="8.3211474"><ele>403.33333333333337</ele><time>2026-03-26T16:10:49.789Z</time></trkpt><trkpt lat="44.3388201" lon="8.3211429"><ele>403.6666666666667</ele><time>2026-03-26T16:10:51.788Z</time></trkpt><trkpt lat="44.3387361" lon="8.3211576"><ele>404.0</ele><time>2026-03-26T16:10:53.791Z</time></trkpt><trkpt lat="44.338655" lon="8.3211985"><ele>404.33333333333337</ele><time>2026-03-26T16:10:55.79Z</time></trkpt><trkpt lat="44.3385719" lon="8.3212776"><ele>404.6666666666667</ele><time>2026-03-26T16:10:57.789Z</time></trkpt><trkpt lat="44.3384961" lon="8.3213583"><ele>405.0</ele><time>2026-03-26T16:10:59.789Z</time></trkpt><trkpt lat="44.3384197" lon="8.3214512"><ele>402.2</ele><time>2026-03-26T16:11:01.79Z</time></trkpt><trkpt lat="44.3383355" lon="8.3215452"><ele>399.4</ele><time>2026-03-26T16:11:03.79Z</time></trkpt><trkpt lat="44.3382629" lon="8.3216467"><ele>396.6</ele><time>2026-03-26T16:11:05.789Z</time></trkpt><trkpt lat="44.3381895" lon="8.3217366"><ele>393.8</ele><time>2026-03-26T16:11:07.789Z</time></trkpt><trkpt lat="44.3381274" lon="8.3218289"><ele>391.0</ele><time>2026-03-26T16:11:09.79Z</time></trkpt><trkpt lat="44.3380588" lon="8.3219148"><ele>391.6</ele><time>2026-03-26T16:11:11.79Z</time></trkpt><trkpt lat="44.3380048" lon="8.321999"><ele>392.20000000000005</ele><time>2026-03-26T16:11:13.79Z</time></trkpt><trkpt lat="44.3379489" lon="8.3221046"><ele>392.79999999999995</ele><time>2026-03-26T16:11:15.789Z</time></trkpt><trkpt lat="44.3378938" lon="8.3222319"><ele>393.4</ele><time>2026-03-26T16:11:17.789Z</time></trkpt><trkpt lat="44.3378487" lon="8.3223663"><ele>394.0</ele><time>2026-03-26T16:11:19.79Z</time></trkpt><trkpt lat="44.3378044" lon="8.3225052"><ele>394.0</ele><time>2026-03-26T16:11:21.79Z</time></trkpt><trkpt lat="44.3377751" lon="8.322663"><ele>394.0</ele><time>2026-03-26T16:11:23.79Z</time></trkpt><trkpt lat="44.3377591" lon="8.3228341"><ele>394.0</ele><time>2026-03-26T16:11:25.79Z</time></trkpt><trkpt lat="44.3377486" lon="8.3230055"><ele>394.0</ele><time>2026-03-26T16:11:27.789Z</time></trkpt><trkpt lat="44.3377514" lon="8.3230977"><ele>394.0</ele><time>2026-03-26T16:11:28.79Z</time></trkpt><trkpt lat="44.337767" lon="8.3232748"><ele>392.50000000000006</ele><time>2026-03-26T16:11:30.79Z</time></trkpt><trkpt lat="44.337787" lon="8.323368"><ele>391.0</ele><time>2026-03-26T16:11:31.79Z</time></trkpt><trkpt lat="44.3378096" lon="8.3234584"><ele>389.5</ele><time>2026-03-26T16:11:32.79Z</time></trkpt><trkpt lat="44.3378305" lon="8.3235491"><ele>388.0</ele><time>2026-03-26T16:11:33.789Z</time></trkpt><trkpt lat="44.3378523" lon="8.3236393"><ele>386.50000000000006</ele><time>2026-03-26T16:11:34.79Z</time></trkpt><trkpt lat="44.3378703" lon="8.323725"><ele>385.0</ele><time>2026-03-26T16:11:35.788Z</time></trkpt><trkpt lat="44.3379197" lon="8.3238767"><ele>385.0</ele><time>2026-03-26T16:11:37.789Z</time></trkpt><trkpt lat="44.3379651" lon="8.3240233"><ele>385.0</ele><time>2026-03-26T16:11:39.789Z</time></trkpt><trkpt lat="44.3380162" lon="8.3241461"><ele>385.0</ele><time>2026-03-26T16:11:41.789Z</time></trkpt><trkpt lat="44.3380535" lon="8.3242552"><ele>385.0</ele><time>2026-03-26T16:11:43.79Z</time></trkpt><trkpt lat="44.3380891" lon="8.3243772"><ele>385.0</ele><time>2026-03-26T16:11:45.789Z</time></trkpt><trkpt lat="44.3381295" lon="8.3244921"><ele>384.8</ele><time>2026-03-26T16:11:47.79Z</time></trkpt><trkpt lat="44.3381668" lon="8.32462"><ele>384.6</ele><time>2026-03-26T16:11:49.79Z</time></trkpt><trkpt lat="44.3381336" lon="8.3247436"><ele>384.4</ele><time>2026-03-26T16:11:51.79Z</time></trkpt><trkpt lat="44.3380506" lon="8.3248078"><ele>384.2</ele><time>2026-03-26T16:11:53.789Z</time></trkpt><trkpt lat="44.3379447" lon="8.3248366"><ele>384.0</ele><time>2026-03-26T16:11:55.79Z</time></trkpt><trkpt lat="44.3378437" lon="8.3248481"><ele>385.0</ele><time>2026-03-26T16:11:57.79Z</time></trkpt><trkpt lat="44.3377331" lon="8.3248512"><ele>386.0</ele><time>2026-03-26T16:11:59.791Z</time></trkpt><trkpt lat="44.33763" lon="8.3248418"><ele>387.0</ele><time>2026-03-26T16:12:01.789Z</time></trkpt><trkpt lat="44.3375234" lon="8.3248566"><ele>388.0</ele><time>2026-03-26T16:12:03.791Z</time></trkpt><trkpt lat="44.3374181" lon="8.3248728"><ele>389.0</ele><time>2026-03-26T16:12:05.79Z</time></trkpt><trkpt lat="44.3373123" lon="8.3248916"><ele>388.6</ele><time>2026-03-26T16:12:07.79Z</time></trkpt><trkpt lat="44.3372039" lon="8.3248735"><ele>388.2</ele><time>2026-03-26T16:12:09.789Z</time></trkpt><trkpt lat="44.3371059" lon="8.3248919"><ele>387.8</ele><time>2026-03-26T16:12:11.789Z</time></trkpt><trkpt lat="44.337003" lon="8.3249206"><ele>387.40000000000003</ele><time>2026-03-26T16:12:13.79Z</time></trkpt><trkpt lat="44.336883" lon="8.3249454"><ele>387.0</ele><time>2026-03-26T16:12:15.789Z</time></trkpt><trkpt lat="44.3367818" lon="8.3249924"><ele>387.0</ele><time>2026-03-26T16:12:17.79Z</time></trkpt><trkpt lat="44.3367072" lon="8.3250235"><ele>387.0</ele><time>2026-03-26T16:12:19.79Z</time></trkpt><trkpt lat="44.336646" lon="8.325046"><ele>387.0</ele><time>2026-03-26T16:12:20.791Z</time></trkpt><trkpt lat="44.3365481" lon="8.3251111"><ele>387.0</ele><time>2026-03-26T16:12:22.79Z</time></trkpt><trkpt lat="44.3364469" lon="8.3251845"><ele>387.0</ele><time>2026-03-26T16:12:24.79Z</time></trkpt><trkpt lat="44.3363897" lon="8.3252241"><ele>387.0</ele><time>2026-03-26T16:12:25.79Z</time></trkpt><trkpt lat="44.3363015" lon="8.3253211"><ele>387.20000000000005</ele><time>2026-03-26T16:12:27.789Z</time></trkpt><trkpt lat="44.3362149" lon="8.3254056"><ele>387.4</ele><time>2026-03-26T16:12:29.789Z</time></trkpt><trkpt lat="44.3361223" lon="8.3254588"><ele>387.6</ele><time>2026-03-26T16:12:31.79Z</time></trkpt><trkpt lat="44.3360383" lon="8.3255532"><ele>387.79999999999995</ele><time>2026-03-26T16:12:33.79Z</time></trkpt><trkpt lat="44.3359507" lon="8.3256321"><ele>388.0</ele><time>2026-03-26T16:12:35.789Z</time></trkpt><trkpt lat="44.3358676" lon="8.325729"><ele>387.59999999999997</ele><time>2026-03-26T16:12:37.788Z</time></trkpt><trkpt lat="44.3357854" lon="8.3258271"><ele>387.2</ele><time>2026-03-26T16:12:39.789Z</time></trkpt><trkpt lat="44.3357184" lon="8.3259308"><ele>386.8</ele><time>2026-03-26T16:12:41.791Z</time></trkpt><trkpt lat="44.3356536" lon="8.3260166"><ele>386.4</ele><time>2026-03-26T16:12:43.789Z</time></trkpt><trkpt lat="44.3356092" lon="8.3261196"><ele>386.0</ele><time>2026-03-26T16:12:45.79Z</time></trkpt><trkpt lat="44.3355488" lon="8.3262163"><ele>386.0</ele><time>2026-03-26T16:12:47.79Z</time></trkpt><trkpt lat="44.3354771" lon="8.3262882"><ele>386.0</ele><time>2026-03-26T16:12:49.788Z</time></trkpt><trkpt lat="44.3354149" lon="8.3263791"><ele>386.0</ele><time>2026-03-26T16:12:51.79Z</time></trkpt><trkpt lat="44.3353551" lon="8.326484"><ele>386.0</ele><time>2026-03-26T16:12:53.79Z</time></trkpt><trkpt lat="44.335283" lon="8.3265597"><ele>386.0</ele><time>2026-03-26T16:12:55.79Z</time></trkpt><trkpt lat="44.335196" lon="8.3266298"><ele>385.8333333333333</ele><time>2026-03-26T16:12:57.788Z</time></trkpt><trkpt lat="44.3351073" lon="8.326678"><ele>385.66666666666663</ele><time>2026-03-26T16:12:59.79Z</time></trkpt><trkpt lat="44.3350243" lon="8.3266762"><ele>385.5</ele><time>2026-03-26T16:13:01.789Z</time></trkpt><trkpt lat="44.3349499" lon="8.3266574"><ele>385.33333333333337</ele><time>2026-03-26T16:13:03.79Z</time></trkpt><trkpt lat="44.3348695" lon="8.3266203"><ele>385.1666666666667</ele><time>2026-03-26T16:13:05.791Z</time></trkpt><trkpt lat="44.3347892" lon="8.3265709"><ele>385.0</ele><time>2026-03-26T16:13:07.79Z</time></trkpt><trkpt lat="44.3347033" lon="8.3265144"><ele>385.0</ele><time>2026-03-26T16:13:09.791Z</time></trkpt><trkpt lat="44.3346186" lon="8.3264498"><ele>385.0</ele><time>2026-03-26T16:13:11.788Z</time></trkpt><trkpt lat="44.3345334" lon="8.326373"><ele>385.0</ele><time>2026-03-26T16:13:13.79Z</time></trkpt><trkpt lat="44.334441" lon="8.3263103"><ele>385.0</ele><time>2026-03-26T16:13:15.788Z</time></trkpt><trkpt lat="44.3343569" lon="8.3262536"><ele>385.0</ele><time>2026-03-26T16:13:17.79Z</time></trkpt><trkpt lat="44.3342701" lon="8.3261893"><ele>385.8</ele><time>2026-03-26T16:13:19.788Z</time></trkpt><trkpt lat="44.3341918" lon="8.3261305"><ele>386.6</ele><time>2026-03-26T16:13:21.791Z</time></trkpt><trkpt lat="44.3341131" lon="8.3260603"><ele>387.4</ele><time>2026-03-26T16:13:23.79Z</time></trkpt><trkpt lat="44.3340354" lon="8.3259917"><ele>388.2</ele><time>2026-03-26T16:13:25.79Z</time></trkpt><trkpt lat="44.3339503" lon="8.3259233"><ele>389.0</ele><time>2026-03-26T16:13:27.789Z</time></trkpt><trkpt lat="44.3338644" lon="8.3258605"><ele>389.6</ele><time>2026-03-26T16:13:29.789Z</time></trkpt><trkpt lat="44.3337836" lon="8.3258003"><ele>390.2</ele><time>2026-03-26T16:13:31.79Z</time></trkpt><trkpt lat="44.3336911" lon="8.325759"><ele>390.8</ele><time>2026-03-26T16:13:33.789Z</time></trkpt><trkpt lat="44.3335924" lon="8.325743"><ele>391.40000000000003</ele><time>2026-03-26T16:13:35.79Z</time></trkpt><trkpt lat="44.3335011" lon="8.3257252"><ele>392.0</ele><time>2026-03-26T16:13:37.789Z</time></trkpt><trkpt lat="44.3334082" lon="8.3257295"><ele>392.0</ele><time>2026-03-26T16:13:39.789Z</time></trkpt><trkpt lat="44.3333108" lon="8.3257363"><ele>392.0</ele><time>2026-03-26T16:13:41.788Z</time></trkpt><trkpt lat="44.3332244" lon="8.3257592"><ele>392.0</ele><time>2026-03-26T16:13:43.79Z</time></trkpt><trkpt lat="44.3331382" lon="8.3257931"><ele>392.0</ele><time>2026-03-26T16:13:45.789Z</time></trkpt><trkpt lat="44.3330561" lon="8.3258273"><ele>392.0</ele><time>2026-03-26T16:13:47.789Z</time></trkpt><trkpt lat="44.3329754" lon="8.3258816"><ele>395.8333333333333</ele><time>2026-03-26T16:13:49.79Z</time></trkpt><trkpt lat="44.3328922" lon="8.3259343"><ele>399.66666666666663</ele><time>2026-03-26T16:13:51.789Z</time></trkpt><trkpt lat="44.3328062" lon="8.3259858"><ele>403.5</ele><time>2026-03-26T16:13:53.789Z</time></trkpt><trkpt lat="44.3327281" lon="8.3260468"><ele>407.33333333333337</ele><time>2026-03-26T16:13:55.79Z</time></trkpt><trkpt lat="44.3326493" lon="8.3260836"><ele>411.1666666666667</ele><time>2026-03-26T16:13:57.789Z</time></trkpt><trkpt lat="44.3325776" lon="8.3261342"><ele>415.0</ele><time>2026-03-26T16:13:59.79Z</time></trkpt><trkpt lat="44.3324998" lon="8.3261875"><ele>415.00000000000006</ele><time>2026-03-26T16:14:01.789Z</time></trkpt><trkpt lat="44.3324244" lon="8.326229"><ele>415.0</ele><time>2026-03-26T16:14:03.789Z</time></trkpt><trkpt lat="44.3323478" lon="8.326279"><ele>415.0</ele><time>2026-03-26T16:14:05.791Z</time></trkpt><trkpt lat="44.3322742" lon="8.326335"><ele>415.0</ele><time>2026-03-26T16:14:07.791Z</time></trkpt><trkpt lat="44.3321975" lon="8.326391"><ele>415.00000000000006</ele><time>2026-03-26T16:14:09.79Z</time></trkpt><trkpt lat="44.3321186" lon="8.3264478"><ele>415.0</ele><time>2026-03-26T16:14:11.79Z</time></trkpt><trkpt lat="44.3320361" lon="8.3265029"><ele>412.00000000000006</ele><time>2026-03-26T16:14:13.791Z</time></trkpt><trkpt lat="44.3319621" lon="8.3265522"><ele>409.0</ele><time>2026-03-26T16:14:15.789Z</time></trkpt><trkpt lat="44.3318873" lon="8.3266071"><ele>406.0</ele><time>2026-03-26T16:14:17.789Z</time></trkpt><trkpt lat="44.3318083" lon="8.3266585"><ele>403.0</ele><time>2026-03-26T16:14:19.79Z</time></trkpt><trkpt lat="44.3317245" lon="8.3266962"><ele>400.00000000000006</ele><time>2026-03-26T16:14:21.788Z</time></trkpt><trkpt lat="44.3316463" lon="8.3267522"><ele>397.0</ele><time>2026-03-26T16:14:23.789Z</time></trkpt><trkpt lat="44.3315676" lon="8.3268041"><ele>397.00000000000006</ele><time>2026-03-26T16:14:25.791Z</time></trkpt><trkpt lat="44.3314891" lon="8.326856"><ele>397.0</ele><time>2026-03-26T16:14:27.79Z</time></trkpt><trkpt lat="44.3314161" lon="8.3269169"><ele>397.0</ele><time>2026-03-26T16:14:29.79Z</time></trkpt><trkpt lat="44.3313459" lon="8.3269783"><ele>397.0</ele><time>2026-03-26T16:14:31.79Z</time></trkpt><trkpt lat="44.3312789" lon="8.3270448"><ele>397.00000000000006</ele><time>2026-03-26T16:14:33.79Z</time></trkpt><trkpt lat="44.3312167" lon="8.3271137"><ele>397.0</ele><time>2026-03-26T16:14:35.79Z</time></trkpt><trkpt lat="44.3311531" lon="8.3271819"><ele>397.33333333333337</ele><time>2026-03-26T16:14:37.791Z</time></trkpt><trkpt lat="44.3310836" lon="8.3272462"><ele>397.6666666666667</ele><time>2026-03-26T16:14:39.79Z</time></trkpt><trkpt lat="44.331012" lon="8.3273254"><ele>398.0</ele><time>2026-03-26T16:14:41.789Z</time></trkpt><trkpt lat="44.3309411" lon="8.3274015"><ele>398.33333333333337</ele><time>2026-03-26T16:14:43.789Z</time></trkpt><trkpt lat="44.3308706" lon="8.3274778"><ele>398.6666666666667</ele><time>2026-03-26T16:14:45.79Z</time></trkpt><trkpt lat="44.3308067" lon="8.327552"><ele>399.0</ele><time>2026-03-26T16:14:47.79Z</time></trkpt><trkpt lat="44.3307417" lon="8.3276207"><ele>399.0</ele><time>2026-03-26T16:14:49.789Z</time></trkpt><trkpt lat="44.3306797" lon="8.3276879"><ele>399.0</ele><time>2026-03-26T16:14:51.789Z</time></trkpt><trkpt lat="44.3306151" lon="8.3277592"><ele>399.0</ele><time>2026-03-26T16:14:53.79Z</time></trkpt><trkpt lat="44.3305477" lon="8.3278344"><ele>399.0</ele><time>2026-03-26T16:14:55.79Z</time></trkpt><trkpt lat="44.3304797" lon="8.3279061"><ele>399.0</ele><time>2026-03-26T16:14:57.791Z</time></trkpt><trkpt lat="44.3304105" lon="8.3279759"><ele>399.0</ele><time>2026-03-26T16:14:59.791Z</time></trkpt><trkpt lat="44.3303438" lon="8.3280424"><ele>399.1666666666667</ele><time>2026-03-26T16:15:01.789Z</time></trkpt><trkpt lat="44.3302765" lon="8.3281118"><ele>399.33333333333337</ele><time>2026-03-26T16:15:03.791Z</time></trkpt><trkpt lat="44.3302038" lon="8.3281851"><ele>399.5</ele><time>2026-03-26T16:15:05.789Z</time></trkpt><trkpt lat="44.3301328" lon="8.3282539"><ele>399.6666666666667</ele><time>2026-03-26T16:15:07.788Z</time></trkpt><trkpt lat="44.3300647" lon="8.3283179"><ele>399.83333333333337</ele><time>2026-03-26T16:15:09.791Z</time></trkpt><trkpt lat="44.3299893" lon="8.3283787"><ele>400.0</ele><time>2026-03-26T16:15:11.79Z</time></trkpt><trkpt lat="44.3299152" lon="8.3284316"><ele>400.00000000000006</ele><time>2026-03-26T16:15:13.789Z</time></trkpt><trkpt lat="44.3298414" lon="8.3284814"><ele>400.0</ele><time>2026-03-26T16:15:15.79Z</time></trkpt><trkpt lat="44.3297668" lon="8.3285218"><ele>400.0</ele><time>2026-03-26T16:15:17.789Z</time></trkpt><trkpt lat="44.3296922" lon="8.3285572"><ele>400.0</ele><time>2026-03-26T16:15:19.789Z</time></trkpt><trkpt lat="44.3296217" lon="8.3285975"><ele>400.00000000000006</ele><time>2026-03-26T16:15:21.791Z</time></trkpt><trkpt lat="44.3295509" lon="8.3286323"><ele>400.0</ele><time>2026-03-26T16:15:23.79Z</time></trkpt><trkpt lat="44.329478" lon="8.3286649"><ele>399.6666666666667</ele><time>2026-03-26T16:15:25.788Z</time></trkpt><trkpt lat="44.3294063" lon="8.3286996"><ele>399.33333333333337</ele><time>2026-03-26T16:15:27.79Z</time></trkpt><trkpt lat="44.3293364" lon="8.3287392"><ele>399.0</ele><time>2026-03-26T16:15:29.791Z</time></trkpt><trkpt lat="44.3292641" lon="8.3287773"><ele>398.66666666666663</ele><time>2026-03-26T16:15:31.789Z</time></trkpt><trkpt lat="44.3291881" lon="8.328815"><ele>398.3333333333333</ele><time>2026-03-26T16:15:33.789Z</time></trkpt><trkpt lat="44.3291171" lon="8.3288561"><ele>398.0</ele><time>2026-03-26T16:15:35.789Z</time></trkpt><trkpt lat="44.3290457" lon="8.3289022"><ele>397.99999999999994</ele><time>2026-03-26T16:15:37.79Z</time></trkpt><trkpt lat="44.3289771" lon="8.3289523"><ele>398.0</ele><time>2026-03-26T16:15:39.791Z</time></trkpt><trkpt lat="44.3289081" lon="8.3289929"><ele>398.0</ele><time>2026-03-26T16:15:41.788Z</time></trkpt><trkpt lat="44.3288404" lon="8.3290331"><ele>398.0</ele><time>2026-03-26T16:15:43.789Z</time></trkpt><trkpt lat="44.3287737" lon="8.3290699"><ele>398.0</ele><time>2026-03-26T16:15:45.79Z</time></trkpt><trkpt lat="44.3287035" lon="8.3291046"><ele>397.99999999999994</ele><time>2026-03-26T16:15:47.788Z</time></trkpt><trkpt lat="44.3286381" lon="8.3291439"><ele>398.0</ele><time>2026-03-26T16:15:49.79Z</time></trkpt><trkpt lat="44.328568" lon="8.3291887"><ele>399.3333333333333</ele><time>2026-03-26T16:15:51.789Z</time></trkpt><trkpt lat="44.3285012" lon="8.3292325"><ele>400.66666666666663</ele><time>2026-03-26T16:15:53.79Z</time></trkpt><trkpt lat="44.3284315" lon="8.3292672"><ele>402.0</ele><time>2026-03-26T16:15:55.79Z</time></trkpt><trkpt lat="44.3283581" lon="8.329286"><ele>403.33333333333337</ele><time>2026-03-26T16:15:57.79Z</time></trkpt><trkpt lat="44.3282856" lon="8.3293015"><ele>404.6666666666667</ele><time>2026-03-26T16:15:59.79Z</time></trkpt><trkpt lat="44.3282098" lon="8.3293188"><ele>406.0</ele><time>2026-03-26T16:16:01.791Z</time></trkpt><trkpt lat="44.3281356" lon="8.3293522"><ele>405.1666666666667</ele><time>2026-03-26T16:16:03.788Z</time></trkpt><trkpt lat="44.3280593" lon="8.3294019"><ele>404.33333333333337</ele><time>2026-03-26T16:16:05.791Z</time></trkpt><trkpt lat="44.3279754" lon="8.3294389"><ele>403.5</ele><time>2026-03-26T16:16:07.789Z</time></trkpt><trkpt lat="44.3278918" lon="8.3294742"><ele>402.66666666666663</ele><time>2026-03-26T16:16:09.789Z</time></trkpt><trkpt lat="44.3278162" lon="8.3295136"><ele>401.8333333333333</ele><time>2026-03-26T16:16:11.789Z</time></trkpt><trkpt lat="44.3277466" lon="8.3295571"><ele>401.0</ele><time>2026-03-26T16:16:13.79Z</time></trkpt><trkpt lat="44.327681" lon="8.3296036"><ele>401.0</ele><time>2026-03-26T16:16:15.79Z</time></trkpt><trkpt lat="44.3276155" lon="8.3296534"><ele>401.0</ele><time>2026-03-26T16:16:17.789Z</time></trkpt><trkpt lat="44.3275486" lon="8.3296967"><ele>401.0</ele><time>2026-03-26T16:16:19.79Z</time></trkpt><trkpt lat="44.3274825" lon="8.3297388"><ele>401.0</ele><time>2026-03-26T16:16:21.789Z</time></trkpt><trkpt lat="44.3274166" lon="8.3297828"><ele>401.0</ele><time>2026-03-26T16:16:23.79Z</time></trkpt><trkpt lat="44.3273513" lon="8.3298319"><ele>401.0</ele><time>2026-03-26T16:16:25.789Z</time></trkpt><trkpt lat="44.3272852" lon="8.3298828"><ele>401.0</ele><time>2026-03-26T16:16:27.79Z</time></trkpt><trkpt lat="44.3272176" lon="8.3299317"><ele>400.57142857142856</ele><time>2026-03-26T16:16:29.789Z</time></trkpt><trkpt lat="44.3271514" lon="8.3299784"><ele>400.14285714285717</ele><time>2026-03-26T16:16:31.789Z</time></trkpt><trkpt lat="44.3270873" lon="8.3300254"><ele>399.71428571428567</ele><time>2026-03-26T16:16:33.79Z</time></trkpt><trkpt lat="44.3270206" lon="8.3300691"><ele>399.2857142857143</ele><time>2026-03-26T16:16:35.789Z</time></trkpt><trkpt lat="44.3269553" lon="8.3301104"><ele>398.85714285714283</ele><time>2026-03-26T16:16:37.79Z</time></trkpt><trkpt lat="44.3268875" lon="8.3301492"><ele>398.4285714285714</ele><time>2026-03-26T16:16:39.79Z</time></trkpt><trkpt lat="44.326818" lon="8.3301765"><ele>398.0</ele><time>2026-03-26T16:16:41.79Z</time></trkpt><trkpt lat="44.3267429" lon="8.3301859"><ele>397.99999999999994</ele><time>2026-03-26T16:16:43.789Z</time></trkpt><trkpt lat="44.3266644" lon="8.3301536"><ele>398.0</ele><time>2026-03-26T16:16:45.79Z</time></trkpt><trkpt lat="44.3266042" lon="8.3300681"><ele>398.0</ele><time>2026-03-26T16:16:47.789Z</time></trkpt><trkpt lat="44.3265599" lon="8.3299612"><ele>398.0</ele><time>2026-03-26T16:16:49.79Z</time></trkpt><trkpt lat="44.3265248" lon="8.3298501"><ele>397.99999999999994</ele><time>2026-03-26T16:16:51.79Z</time></trkpt><trkpt lat="44.3264969" lon="8.3297309"><ele>398.0</ele><time>2026-03-26T16:16:53.79Z</time></trkpt><trkpt lat="44.3264734" lon="8.3296104"><ele>397.79999999999995</ele><time>2026-03-26T16:16:55.79Z</time></trkpt><trkpt lat="44.3264507" lon="8.3294921"><ele>397.6</ele><time>2026-03-26T16:16:57.789Z</time></trkpt><trkpt lat="44.326433" lon="8.3293674"><ele>397.4</ele><time>2026-03-26T16:16:59.79Z</time></trkpt><trkpt lat="44.3264185" lon="8.3292476"><ele>397.20000000000005</ele><time>2026-03-26T16:17:01.79Z</time></trkpt><trkpt lat="44.3264005" lon="8.3291159"><ele>397.0</ele><time>2026-03-26T16:17:03.788Z</time></trkpt><trkpt lat="44.3263895" lon="8.3289831"><ele>399.50000000000006</ele><time>2026-03-26T16:17:05.79Z</time></trkpt><trkpt lat="44.3263764" lon="8.3288509"><ele>402.0</ele><time>2026-03-26T16:17:07.791Z</time></trkpt><trkpt lat="44.32637" lon="8.3287327"><ele>404.5</ele><time>2026-03-26T16:17:09.791Z</time></trkpt><trkpt lat="44.3263614" lon="8.328621"><ele>407.0</ele><time>2026-03-26T16:17:11.79Z</time></trkpt><trkpt lat="44.326358" lon="8.3285053"><ele>409.50000000000006</ele><time>2026-03-26T16:17:13.79Z</time></trkpt><trkpt lat="44.3263522" lon="8.3283862"><ele>412.0</ele><time>2026-03-26T16:17:15.79Z</time></trkpt><trkpt lat="44.3263437" lon="8.3282611"><ele>412.00000000000006</ele><time>2026-03-26T16:17:17.789Z</time></trkpt><trkpt lat="44.3263365" lon="8.3281382"><ele>412.0</ele><time>2026-03-26T16:17:19.789Z</time></trkpt><trkpt lat="44.3263291" lon="8.3280191"><ele>412.0</ele><time>2026-03-26T16:17:21.79Z</time></trkpt><trkpt lat="44.3263125" lon="8.3279076"><ele>412.0</ele><time>2026-03-26T16:17:23.789Z</time></trkpt><trkpt lat="44.3262833" lon="8.3277963"><ele>412.00000000000006</ele><time>2026-03-26T16:17:25.791Z</time></trkpt><trkpt lat="44.3262392" lon="8.3276894"><ele>412.0</ele><time>2026-03-26T16:17:27.791Z</time></trkpt><trkpt lat="44.3261657" lon="8.327601"><ele>410.8</ele><time>2026-03-26T16:17:29.789Z</time></trkpt><trkpt lat="44.3260905" lon="8.3275172"><ele>409.6</ele><time>2026-03-26T16:17:31.79Z</time></trkpt><trkpt lat="44.3260175" lon="8.3274417"><ele>408.40000000000003</ele><time>2026-03-26T16:17:33.79Z</time></trkpt><trkpt lat="44.3259383" lon="8.3273617"><ele>407.20000000000005</ele><time>2026-03-26T16:17:35.789Z</time></trkpt><trkpt lat="44.3258603" lon="8.3272989"><ele>406.0</ele><time>2026-03-26T16:17:37.789Z</time></trkpt><trkpt lat="44.3257857" lon="8.3272435"><ele>406.6666666666667</ele><time>2026-03-26T16:17:39.79Z</time></trkpt><trkpt lat="44.3257084" lon="8.3271847"><ele>407.33333333333337</ele><time>2026-03-26T16:17:41.79Z</time></trkpt><trkpt lat="44.3256187" lon="8.3271388"><ele>408.0</ele><time>2026-03-26T16:17:43.79Z</time></trkpt><trkpt lat="44.3255344" lon="8.3271019"><ele>408.66666666666663</ele><time>2026-03-26T16:17:45.79Z</time></trkpt><trkpt lat="44.3254508" lon="8.3270694"><ele>409.3333333333333</ele><time>2026-03-26T16:17:47.789Z</time></trkpt><trkpt lat="44.3253636" lon="8.3270602"><ele>410.0</ele><time>2026-03-26T16:17:49.791Z</time></trkpt><trkpt lat="44.3252768" lon="8.3270397"><ele>410.0</ele><time>2026-03-26T16:17:51.79Z</time></trkpt><trkpt lat="44.3251772" lon="8.3270069"><ele>410.0</ele><time>2026-03-26T16:17:53.789Z</time></trkpt><trkpt lat="44.3250801" lon="8.3270019"><ele>410.0</ele><time>2026-03-26T16:17:55.791Z</time></trkpt><trkpt lat="44.3249907" lon="8.3270061"><ele>410.0</ele><time>2026-03-26T16:17:57.788Z</time></trkpt><trkpt lat="44.3249093" lon="8.3269987"><ele>410.0</ele><time>2026-03-26T16:17:59.79Z</time></trkpt><trkpt lat="44.3248114" lon="8.3269819"><ele>412.6</ele><time>2026-03-26T16:18:01.791Z</time></trkpt><trkpt lat="44.3247036" lon="8.3269722"><ele>415.2</ele><time>2026-03-26T16:18:03.791Z</time></trkpt><trkpt lat="44.3246019" lon="8.3269556"><ele>417.79999999999995</ele><time>2026-03-26T16:18:05.789Z</time></trkpt><trkpt lat="44.3245217" lon="8.3269354"><ele>420.4</ele><time>2026-03-26T16:18:07.79Z</time></trkpt><trkpt lat="44.3244301" lon="8.3269004"><ele>423.0</ele><time>2026-03-26T16:18:09.79Z</time></trkpt><trkpt lat="44.3243557" lon="8.326831"><ele>423.0</ele><time>2026-03-26T16:18:11.789Z</time></trkpt><trkpt lat="44.3242834" lon="8.3267692"><ele>423.0</ele><time>2026-03-26T16:18:13.788Z</time></trkpt><trkpt lat="44.3242161" lon="8.3266902"><ele>423.0</ele><time>2026-03-26T16:18:15.79Z</time></trkpt><trkpt lat="44.3241682" lon="8.3266138"><ele>423.0</ele><time>2026-03-26T16:18:17.79Z</time></trkpt><trkpt lat="44.3241281" lon="8.326486"><ele>423.0</ele><time>2026-03-26T16:18:19.79Z</time></trkpt><trkpt lat="44.3241103" lon="8.3263731"><ele>423.0</ele><time>2026-03-26T16:18:21.789Z</time></trkpt><trkpt lat="44.3241015" lon="8.32626"><ele>421.1428571428571</ele><time>2026-03-26T16:18:23.791Z</time></trkpt><trkpt lat="44.3240862" lon="8.3261664"><ele>419.28571428571433</ele><time>2026-03-26T16:18:25.79Z</time></trkpt><trkpt lat="44.3240674" lon="8.3260725"><ele>417.42857142857144</ele><time>2026-03-26T16:18:27.791Z</time></trkpt><trkpt lat="44.3240535" lon="8.3259719"><ele>415.57142857142856</ele><time>2026-03-26T16:18:29.791Z</time></trkpt><trkpt lat="44.3240454" lon="8.3258679"><ele>413.71428571428567</ele><time>2026-03-26T16:18:31.79Z</time></trkpt><trkpt lat="44.3240352" lon="8.3257587"><ele>411.8571428571429</ele><time>2026-03-26T16:18:33.789Z</time></trkpt><trkpt lat="44.3240178" lon="8.3256617"><ele>410.0</ele><time>2026-03-26T16:18:35.789Z</time></trkpt><trkpt lat="44.323995" lon="8.3255571"><ele>409.49999999999994</ele><time>2026-03-26T16:18:37.79Z</time></trkpt><trkpt lat="44.323982" lon="8.3254502"><ele>409.0</ele><time>2026-03-26T16:18:39.789Z</time></trkpt><trkpt lat="44.3239676" lon="8.3253407"><ele>408.5</ele><time>2026-03-26T16:18:41.79Z</time></trkpt><trkpt lat="44.3239627" lon="8.3252208"><ele>408.0</ele><time>2026-03-26T16:18:43.79Z</time></trkpt><trkpt lat="44.3239501" lon="8.3251099"><ele>407.49999999999994</ele><time>2026-03-26T16:18:45.79Z</time></trkpt><trkpt lat="44.3239297" lon="8.3250002"><ele>407.0</ele><time>2026-03-26T16:18:47.789Z</time></trkpt><trkpt lat="44.3239076" lon="8.3248837"><ele>407.66666666666663</ele><time>2026-03-26T16:18:49.79Z</time></trkpt><trkpt lat="44.3238897" lon="8.3247754"><ele>408.3333333333333</ele><time>2026-03-26T16:18:51.79Z</time></trkpt><trkpt lat="44.3238691" lon="8.3246676"><ele>409.0</ele><time>2026-03-26T16:18:53.791Z</time></trkpt><trkpt lat="44.3238483" lon="8.3245544"><ele>409.66666666666663</ele><time>2026-03-26T16:18:55.791Z</time></trkpt><trkpt lat="44.3238303" lon="8.3244405"><ele>410.3333333333333</ele><time>2026-03-26T16:18:57.79Z</time></trkpt><trkpt lat="44.3238058" lon="8.3243332"><ele>411.0</ele><time>2026-03-26T16:18:59.791Z</time></trkpt><trkpt lat="44.3237685" lon="8.3242347"><ele>411.0</ele><time>2026-03-26T16:19:01.791Z</time></trkpt><trkpt lat="44.3237224" lon="8.3241396"><ele>411.0</ele><time>2026-03-26T16:19:03.79Z</time></trkpt><trkpt lat="44.323669" lon="8.3240521"><ele>411.0</ele><time>2026-03-26T16:19:05.791Z</time></trkpt><trkpt lat="44.323609" lon="8.3239757"><ele>411.0</ele><time>2026-03-26T16:19:07.79Z</time></trkpt><trkpt lat="44.3235463" lon="8.3239167"><ele>411.0</ele><time>2026-03-26T16:19:09.789Z</time></trkpt><trkpt lat="44.323481" lon="8.3238789"><ele>411.0</ele><time>2026-03-26T16:19:11.789Z</time></trkpt><trkpt lat="44.3234105" lon="8.3238645"><ele>411.0</ele><time>2026-03-26T16:19:13.79Z</time></trkpt><trkpt lat="44.3233362" lon="8.3238771"><ele>411.0</ele><time>2026-03-26T16:19:15.79Z</time></trkpt><trkpt lat="44.3232663" lon="8.3239374"><ele>411.0</ele><time>2026-03-26T16:19:17.79Z</time></trkpt><trkpt lat="44.3231932" lon="8.3239924"><ele>411.0</ele><time>2026-03-26T16:19:19.79Z</time></trkpt><trkpt lat="44.3231227" lon="8.3240539"><ele>411.0</ele><time>2026-03-26T16:19:21.789Z</time></trkpt><trkpt lat="44.3230488" lon="8.3241183"><ele>411.0</ele><time>2026-03-26T16:19:23.791Z</time></trkpt><trkpt lat="44.3229837" lon="8.3241798"><ele>411.0</ele><time>2026-03-26T16:19:25.79Z</time></trkpt><trkpt lat="44.3229128" lon="8.3242462"><ele>411.0</ele><time>2026-03-26T16:19:27.791Z</time></trkpt><trkpt lat="44.3228462" lon="8.3243146"><ele>411.0</ele><time>2026-03-26T16:19:29.791Z</time></trkpt><trkpt lat="44.3227927" lon="8.3243752"><ele>411.0</ele><time>2026-03-26T16:19:31.79Z</time></trkpt><trkpt lat="44.3227373" lon="8.3244269"><ele>411.0</ele><time>2026-03-26T16:19:33.791Z</time></trkpt><trkpt lat="44.3226822" lon="8.3244703"><ele>411.0</ele><time>2026-03-26T16:19:35.789Z</time></trkpt><trkpt lat="44.322611" lon="8.3245145"><ele>411.0</ele><time>2026-03-26T16:19:37.789Z</time></trkpt><trkpt lat="44.3225441" lon="8.3245474"><ele>411.0</ele><time>2026-03-26T16:19:39.79Z</time></trkpt><trkpt lat="44.3224718" lon="8.324561"><ele>411.0</ele><time>2026-03-26T16:19:41.79Z</time></trkpt><trkpt lat="44.3224051" lon="8.3245627"><ele>411.0</ele><time>2026-03-26T16:19:43.79Z</time></trkpt><trkpt lat="44.3223382" lon="8.3245452"><ele>411.0</ele><time>2026-03-26T16:19:45.788Z</time></trkpt><trkpt lat="44.3222709" lon="8.3245013"><ele>411.0</ele><time>2026-03-26T16:19:47.791Z</time></trkpt><trkpt lat="44.3222036" lon="8.3244411"><ele>411.0</ele><time>2026-03-26T16:19:49.79Z</time></trkpt><trkpt lat="44.3221457" lon="8.3243716"><ele>411.0</ele><time>2026-03-26T16:19:51.789Z</time></trkpt><trkpt lat="44.3220923" lon="8.3242902"><ele>410.6666666666667</ele><time>2026-03-26T16:19:53.79Z</time></trkpt><trkpt lat="44.3220407" lon="8.3242049"><ele>410.33333333333337</ele><time>2026-03-26T16:19:55.79Z</time></trkpt><trkpt lat="44.3219877" lon="8.3241203"><ele>410.0</ele><time>2026-03-26T16:19:57.79Z</time></trkpt><trkpt lat="44.3219357" lon="8.3240386"><ele>409.6666666666667</ele><time>2026-03-26T16:19:59.79Z</time></trkpt><trkpt lat="44.3218795" lon="8.3239679"><ele>409.33333333333337</ele><time>2026-03-26T16:20:01.79Z</time></trkpt><trkpt lat="44.3218216" lon="8.3239092"><ele>409.0</ele><time>2026-03-26T16:20:03.79Z</time></trkpt><trkpt lat="44.3217667" lon="8.323853"><ele>409.00000000000006</ele><time>2026-03-26T16:20:05.79Z</time></trkpt><trkpt lat="44.3217063" lon="8.3238019"><ele>409.0</ele><time>2026-03-26T16:20:07.79Z</time></trkpt><trkpt lat="44.321642" lon="8.3237655"><ele>409.0</ele><time>2026-03-26T16:20:09.789Z</time></trkpt><trkpt lat="44.3215825" lon="8.3237305"><ele>409.0</ele><time>2026-03-26T16:20:11.789Z</time></trkpt><trkpt lat="44.3215006" lon="8.3236911"><ele>409.00000000000006</ele><time>2026-03-26T16:20:14.789Z</time></trkpt><trkpt lat="44.3214138" lon="8.3236492"><ele>409.0</ele><time>2026-03-26T16:20:17.79Z</time></trkpt><trkpt lat="44.3213459" lon="8.3236108"><ele>409.1666666666667</ele><time>2026-03-26T16:20:19.79Z</time></trkpt><trkpt lat="44.3212767" lon="8.3235687"><ele>409.33333333333337</ele><time>2026-03-26T16:20:21.79Z</time></trkpt><trkpt lat="44.3212056" lon="8.3235312"><ele>409.5</ele><time>2026-03-26T16:20:23.791Z</time></trkpt><trkpt lat="44.321131" lon="8.3234945"><ele>409.66666666666663</ele><time>2026-03-26T16:20:25.79Z</time></trkpt><trkpt lat="44.3210572" lon="8.323458"><ele>409.8333333333333</ele><time>2026-03-26T16:20:27.789Z</time></trkpt><trkpt lat="44.3209906" lon="8.3234269"><ele>410.0</ele><time>2026-03-26T16:20:29.79Z</time></trkpt><trkpt lat="44.3209183" lon="8.3233925"><ele>409.99999999999994</ele><time>2026-03-26T16:20:31.79Z</time></trkpt><trkpt lat="44.3208502" lon="8.3233694"><ele>410.0</ele><time>2026-03-26T16:20:33.791Z</time></trkpt><trkpt lat="44.3207749" lon="8.3233463"><ele>410.0</ele><time>2026-03-26T16:20:35.79Z</time></trkpt><trkpt lat="44.3207019" lon="8.3233129"><ele>410.0</ele><time>2026-03-26T16:20:37.79Z</time></trkpt><trkpt lat="44.3206291" lon="8.3232739"><ele>409.99999999999994</ele><time>2026-03-26T16:20:39.791Z</time></trkpt><trkpt lat="44.3205536" lon="8.3232374"><ele>410.0</ele><time>2026-03-26T16:20:41.789Z</time></trkpt><trkpt lat="44.3204789" lon="8.323197"><ele>410.16666666666663</ele><time>2026-03-26T16:20:43.79Z</time></trkpt><trkpt lat="44.3204038" lon="8.3231587"><ele>410.3333333333333</ele><time>2026-03-26T16:20:45.789Z</time></trkpt><trkpt lat="44.3203257" lon="8.3231166"><ele>410.5</ele><time>2026-03-26T16:20:47.789Z</time></trkpt><trkpt lat="44.3202436" lon="8.3230747"><ele>410.66666666666663</ele><time>2026-03-26T16:20:49.79Z</time></trkpt><trkpt lat="44.3201651" lon="8.3230307"><ele>410.8333333333333</ele><time>2026-03-26T16:20:51.789Z</time></trkpt><trkpt lat="44.3200904" lon="8.3229905"><ele>411.0</ele><time>2026-03-26T16:20:53.79Z</time></trkpt><trkpt lat="44.3200178" lon="8.3229555"><ele>411.0</ele><time>2026-03-26T16:20:55.789Z</time></trkpt><trkpt lat="44.3199427" lon="8.3229187"><ele>411.0</ele><time>2026-03-26T16:20:57.79Z</time></trkpt><trkpt lat="44.319865" lon="8.3228824"><ele>411.0</ele><time>2026-03-26T16:20:59.789Z</time></trkpt><trkpt lat="44.3197921" lon="8.322828"><ele>411.0</ele><time>2026-03-26T16:21:01.79Z</time></trkpt><trkpt lat="44.3197249" lon="8.3227606"><ele>411.0</ele><time>2026-03-26T16:21:03.789Z</time></trkpt><trkpt lat="44.3196622" lon="8.3226886"><ele>411.0</ele><time>2026-03-26T16:21:05.79Z</time></trkpt><trkpt lat="44.3196054" lon="8.3226197"><ele>411.3333333333333</ele><time>2026-03-26T16:21:07.791Z</time></trkpt><trkpt lat="44.3195471" lon="8.3225459"><ele>411.66666666666663</ele><time>2026-03-26T16:21:09.79Z</time></trkpt><trkpt lat="44.3194922" lon="8.3224698"><ele>412.0</ele><time>2026-03-26T16:21:11.79Z</time></trkpt><trkpt lat="44.3194363" lon="8.3223982"><ele>412.3333333333333</ele><time>2026-03-26T16:21:13.791Z</time></trkpt><trkpt lat="44.3193766" lon="8.3223242"><ele>412.66666666666663</ele><time>2026-03-26T16:21:15.791Z</time></trkpt><trkpt lat="44.3193198" lon="8.3222477"><ele>413.0</ele><time>2026-03-26T16:21:17.789Z</time></trkpt><trkpt lat="44.3192593" lon="8.322173"><ele>412.99999999999994</ele><time>2026-03-26T16:21:19.79Z</time></trkpt><trkpt lat="44.3191967" lon="8.3221018"><ele>413.0</ele><time>2026-03-26T16:21:21.79Z</time></trkpt><trkpt lat="44.3191371" lon="8.3220305"><ele>413.0</ele><time>2026-03-26T16:21:23.79Z</time></trkpt><trkpt lat="44.3190865" lon="8.3219619"><ele>413.0</ele><time>2026-03-26T16:21:25.791Z</time></trkpt><trkpt lat="44.3190303" lon="8.3218806"><ele>412.99999999999994</ele><time>2026-03-26T16:21:27.79Z</time></trkpt><trkpt lat="44.3189769" lon="8.3217944"><ele>413.0</ele><time>2026-03-26T16:21:29.79Z</time></trkpt><trkpt lat="44.3189301" lon="8.3217081"><ele>413.8333333333333</ele><time>2026-03-26T16:21:31.79Z</time></trkpt><trkpt lat="44.3188824" lon="8.3216205"><ele>414.66666666666663</ele><time>2026-03-26T16:21:33.789Z</time></trkpt><trkpt lat="44.3188359" lon="8.3215273"><ele>415.5</ele><time>2026-03-26T16:21:35.79Z</time></trkpt><trkpt lat="44.3187963" lon="8.3214321"><ele>416.33333333333337</ele><time>2026-03-26T16:21:37.789Z</time></trkpt><trkpt lat="44.3187549" lon="8.3213309"><ele>417.1666666666667</ele><time>2026-03-26T16:21:39.789Z</time></trkpt><trkpt lat="44.3187146" lon="8.321238"><ele>418.0</ele><time>2026-03-26T16:21:41.79Z</time></trkpt><trkpt lat="44.3186776" lon="8.3211424"><ele>418.00000000000006</ele><time>2026-03-26T16:21:43.789Z</time></trkpt><trkpt lat="44.3186404" lon="8.3210462"><ele>418.0</ele><time>2026-03-26T16:21:45.791Z</time></trkpt><trkpt lat="44.3186002" lon="8.320958"><ele>418.0</ele><time>2026-03-26T16:21:47.789Z</time></trkpt><trkpt lat="44.3185622" lon="8.3208741"><ele>418.0</ele><time>2026-03-26T16:21:49.79Z</time></trkpt><trkpt lat="44.3185211" lon="8.3207854"><ele>418.00000000000006</ele><time>2026-03-26T16:21:51.791Z</time></trkpt><trkpt lat="44.318481" lon="8.3206953"><ele>418.0</ele><time>2026-03-26T16:21:53.789Z</time></trkpt><trkpt lat="44.3184461" lon="8.3206037"><ele>417.00000000000006</ele><time>2026-03-26T16:21:55.791Z</time></trkpt><trkpt lat="44.3184116" lon="8.3205076"><ele>416.0</ele><time>2026-03-26T16:21:57.789Z</time></trkpt><trkpt lat="44.318371" lon="8.3204185"><ele>415.0</ele><time>2026-03-26T16:21:59.79Z</time></trkpt><trkpt lat="44.3183249" lon="8.3203346"><ele>414.0</ele><time>2026-03-26T16:22:01.79Z</time></trkpt><trkpt lat="44.3182742" lon="8.3202602"><ele>413.00000000000006</ele><time>2026-03-26T16:22:03.79Z</time></trkpt><trkpt lat="44.3182078" lon="8.3202024"><ele>412.0</ele><time>2026-03-26T16:22:05.789Z</time></trkpt><trkpt lat="44.3181285" lon="8.3201747"><ele>413.6</ele><time>2026-03-26T16:22:07.79Z</time></trkpt><trkpt lat="44.3180342" lon="8.3201507"><ele>415.20000000000005</ele><time>2026-03-26T16:22:09.791Z</time></trkpt><trkpt lat="44.3179411" lon="8.3201303"><ele>416.8</ele><time>2026-03-26T16:22:11.79Z</time></trkpt><trkpt lat="44.3178492" lon="8.3201238"><ele>418.4</ele><time>2026-03-26T16:22:13.79Z</time></trkpt><trkpt lat="44.3177592" lon="8.3201168"><ele>420.0</ele><time>2026-03-26T16:22:15.79Z</time></trkpt><trkpt lat="44.3176785" lon="8.3200966"><ele>420.0</ele><time>2026-03-26T16:22:17.79Z</time></trkpt><trkpt lat="44.3176018" lon="8.3200854"><ele>420.0</ele><time>2026-03-26T16:22:19.789Z</time></trkpt><trkpt lat="44.3175363" lon="8.3200681"><ele>420.0</ele><time>2026-03-26T16:22:21.789Z</time></trkpt><trkpt lat="44.3174711" lon="8.3200439"><ele>420.0</ele><time>2026-03-26T16:22:23.79Z</time></trkpt><trkpt lat="44.3173982" lon="8.3199936"><ele>420.0</ele><time>2026-03-26T16:22:25.79Z</time></trkpt><trkpt lat="44.3173372" lon="8.3199353"><ele>420.0</ele><time>2026-03-26T16:22:27.79Z</time></trkpt><trkpt lat="44.3172838" lon="8.3198661"><ele>420.0</ele><time>2026-03-26T16:22:29.788Z</time></trkpt><trkpt lat="44.3172257" lon="8.3197898"><ele>421.0</ele><time>2026-03-26T16:22:31.791Z</time></trkpt><trkpt lat="44.3171791" lon="8.3197089"><ele>422.0</ele><time>2026-03-26T16:22:33.791Z</time></trkpt><trkpt lat="44.3171363" lon="8.3196249"><ele>423.0</ele><time>2026-03-26T16:22:35.79Z</time></trkpt><trkpt lat="44.3170952" lon="8.3195477"><ele>424.0</ele><time>2026-03-26T16:22:37.789Z</time></trkpt><trkpt lat="44.3170579" lon="8.3194675"><ele>425.0</ele><time>2026-03-26T16:22:39.791Z</time></trkpt><trkpt lat="44.3170106" lon="8.3193872"><ele>426.0</ele><time>2026-03-26T16:22:41.79Z</time></trkpt><trkpt lat="44.3169669" lon="8.3193043"><ele>427.0</ele><time>2026-03-26T16:22:43.79Z</time></trkpt><trkpt lat="44.3169232" lon="8.3192277"><ele>427.0</ele><time>2026-03-26T16:22:45.79Z</time></trkpt><trkpt lat="44.31688" lon="8.3191477"><ele>427.0</ele><time>2026-03-26T16:22:47.79Z</time></trkpt><trkpt lat="44.3168359" lon="8.3190661"><ele>427.0</ele><time>2026-03-26T16:22:49.79Z</time></trkpt><trkpt lat="44.3167922" lon="8.3189865"><ele>427.0</ele><time>2026-03-26T16:22:51.791Z</time></trkpt><trkpt lat="44.316746" lon="8.3189064"><ele>427.0</ele><time>2026-03-26T16:22:53.79Z</time></trkpt><trkpt lat="44.3166977" lon="8.3188261"><ele>427.0</ele><time>2026-03-26T16:22:55.79Z</time></trkpt><trkpt lat="44.3166492" lon="8.3187477"><ele>427.0</ele><time>2026-03-26T16:22:57.79Z</time></trkpt><trkpt lat="44.3166013" lon="8.3186694"><ele>425.7142857142857</ele><time>2026-03-26T16:22:59.789Z</time></trkpt><trkpt lat="44.3165531" lon="8.318597"><ele>424.42857142857144</ele><time>2026-03-26T16:23:01.79Z</time></trkpt><trkpt lat="44.3165068" lon="8.3185246"><ele>423.1428571428571</ele><time>2026-03-26T16:23:03.79Z</time></trkpt><trkpt lat="44.3164656" lon="8.3184499"><ele>421.8571428571429</ele><time>2026-03-26T16:23:05.79Z</time></trkpt><trkpt lat="44.3164288" lon="8.3183749"><ele>420.57142857142856</ele><time>2026-03-26T16:23:07.79Z</time></trkpt><trkpt lat="44.3163911" lon="8.3182584"><ele>419.2857142857143</ele><time>2026-03-26T16:23:10.79Z</time></trkpt><trkpt lat="44.3163829" lon="8.3181656"><ele>418.0</ele><time>2026-03-26T16:23:12.788Z</time></trkpt><trkpt lat="44.3163843" lon="8.3180776"><ele>418.1428571428571</ele><time>2026-03-26T16:23:14.79Z</time></trkpt><trkpt lat="44.3163918" lon="8.3179884"><ele>418.2857142857143</ele><time>2026-03-26T16:23:16.789Z</time></trkpt><trkpt lat="44.3164077" lon="8.3178962"><ele>418.42857142857144</ele><time>2026-03-26T16:23:18.789Z</time></trkpt><trkpt lat="44.3164258" lon="8.3178032"><ele>418.57142857142856</ele><time>2026-03-26T16:23:20.79Z</time></trkpt><trkpt lat="44.316439" lon="8.3177125"><ele>418.7142857142857</ele><time>2026-03-26T16:23:22.789Z</time></trkpt><trkpt lat="44.3164582" lon="8.3176211"><ele>418.85714285714283</ele><time>2026-03-26T16:23:24.791Z</time></trkpt><trkpt lat="44.316474" lon="8.3175251"><ele>419.0</ele><time>2026-03-26T16:23:26.79Z</time></trkpt><trkpt lat="44.3164885" lon="8.3174263"><ele>418.99999999999994</ele><time>2026-03-26T16:23:28.79Z</time></trkpt><trkpt lat="44.3165019" lon="8.3173302"><ele>419.0</ele><time>2026-03-26T16:23:30.79Z</time></trkpt><trkpt lat="44.3165201" lon="8.3172282"><ele>419.0</ele><time>2026-03-26T16:23:32.789Z</time></trkpt><trkpt lat="44.3165371" lon="8.3171271"><ele>419.0</ele><time>2026-03-26T16:23:34.791Z</time></trkpt><trkpt lat="44.3165552" lon="8.3170269"><ele>419.0</ele><time>2026-03-26T16:23:36.79Z</time></trkpt><trkpt lat="44.3165737" lon="8.3169276"><ele>418.99999999999994</ele><time>2026-03-26T16:23:38.791Z</time></trkpt><trkpt lat="44.3165916" lon="8.3168292"><ele>419.0</ele><time>2026-03-26T16:23:40.789Z</time></trkpt><trkpt lat="44.3166045" lon="8.3167298"><ele>419.99999999999994</ele><time>2026-03-26T16:23:42.789Z</time></trkpt><trkpt lat="44.3166134" lon="8.3166263"><ele>421.0</ele><time>2026-03-26T16:23:44.789Z</time></trkpt><trkpt lat="44.3166224" lon="8.3165217"><ele>422.0</ele><time>2026-03-26T16:23:46.789Z</time></trkpt><trkpt lat="44.3166225" lon="8.3164149"><ele>423.0</ele><time>2026-03-26T16:23:48.79Z</time></trkpt><trkpt lat="44.316627" lon="8.3163016"><ele>423.99999999999994</ele><time>2026-03-26T16:23:50.791Z</time></trkpt><trkpt lat="44.316634" lon="8.3161953"><ele>425.0</ele><time>2026-03-26T16:23:52.79Z</time></trkpt><trkpt lat="44.3166362" lon="8.3160944"><ele>425.49999999999994</ele><time>2026-03-26T16:23:54.791Z</time></trkpt><trkpt lat="44.3166325" lon="8.3159871"><ele>426.0</ele><time>2026-03-26T16:23:56.79Z</time></trkpt><trkpt lat="44.3166296" lon="8.31588"><ele>426.5</ele><time>2026-03-26T16:23:58.791Z</time></trkpt><trkpt lat="44.3166335" lon="8.3157752"><ele>427.0</ele><time>2026-03-26T16:24:00.791Z</time></trkpt><trkpt lat="44.3166328" lon="8.3156673"><ele>427.49999999999994</ele><time>2026-03-26T16:24:02.79Z</time></trkpt><trkpt lat="44.3166303" lon="8.3155569"><ele>428.0</ele><time>2026-03-26T16:24:04.79Z</time></trkpt><trkpt lat="44.3166295" lon="8.3154455"><ele>427.99999999999994</ele><time>2026-03-26T16:24:06.79Z</time></trkpt><trkpt lat="44.3166235" lon="8.3153297"><ele>428.0</ele><time>2026-03-26T16:24:08.791Z</time></trkpt><trkpt lat="44.316625" lon="8.3152067"><ele>428.0</ele><time>2026-03-26T16:24:10.79Z</time></trkpt><trkpt lat="44.3166224" lon="8.3150915"><ele>428.0</ele><time>2026-03-26T16:24:12.789Z</time></trkpt><trkpt lat="44.3166243" lon="8.3149852"><ele>427.99999999999994</ele><time>2026-03-26T16:24:14.79Z</time></trkpt><trkpt lat="44.3166317" lon="8.3148963"><ele>428.0</ele><time>2026-03-26T16:24:16.791Z</time></trkpt><trkpt lat="44.3166322" lon="8.3147909"><ele>428.16666666666663</ele><time>2026-03-26T16:24:18.791Z</time></trkpt><trkpt lat="44.316624" lon="8.314682"><ele>428.3333333333333</ele><time>2026-03-26T16:24:20.79Z</time></trkpt><trkpt lat="44.3166151" lon="8.3145656"><ele>428.5</ele><time>2026-03-26T16:24:22.79Z</time></trkpt><trkpt lat="44.3166032" lon="8.3144574"><ele>428.66666666666663</ele><time>2026-03-26T16:24:24.79Z</time></trkpt><trkpt lat="44.3165819" lon="8.314347"><ele>428.8333333333333</ele><time>2026-03-26T16:24:26.789Z</time></trkpt><trkpt lat="44.3165661" lon="8.3142361"><ele>429.0</ele><time>2026-03-26T16:24:28.79Z</time></trkpt><trkpt lat="44.3165422" lon="8.3141248"><ele>429.0</ele><time>2026-03-26T16:24:30.79Z</time></trkpt><trkpt lat="44.3165014" lon="8.3140138"><ele>429.0</ele><time>2026-03-26T16:24:32.79Z</time></trkpt><trkpt lat="44.3164683" lon="8.3139085"><ele>429.0</ele><time>2026-03-26T16:24:34.79Z</time></trkpt><trkpt lat="44.3164324" lon="8.3138134"><ele>429.0</ele><time>2026-03-26T16:24:36.791Z</time></trkpt><trkpt lat="44.3163827" lon="8.3137391"><ele>429.0</ele><time>2026-03-26T16:24:38.789Z</time></trkpt><trkpt lat="44.3163122" lon="8.3136849"><ele>429.0</ele><time>2026-03-26T16:24:40.79Z</time></trkpt><trkpt lat="44.3162336" lon="8.3136594"><ele>428.8333333333333</ele><time>2026-03-26T16:24:42.79Z</time></trkpt><trkpt lat="44.3161619" lon="8.3136393"><ele>428.66666666666663</ele><time>2026-03-26T16:24:44.789Z</time></trkpt><trkpt lat="44.3160792" lon="8.3136479"><ele>428.5</ele><time>2026-03-26T16:24:46.791Z</time></trkpt><trkpt lat="44.3159952" lon="8.3136554"><ele>428.3333333333333</ele><time>2026-03-26T16:24:48.79Z</time></trkpt><trkpt lat="44.315912" lon="8.3136559"><ele>428.16666666666663</ele><time>2026-03-26T16:24:50.791Z</time></trkpt><trkpt lat="44.3158304" lon="8.3136565"><ele>428.0</ele><time>2026-03-26T16:24:52.79Z</time></trkpt><trkpt lat="44.3157534" lon="8.3136633"><ele>428.0</ele><time>2026-03-26T16:24:54.791Z</time></trkpt><trkpt lat="44.3156678" lon="8.3136764"><ele>427.99999999999994</ele><time>2026-03-26T16:24:56.789Z</time></trkpt><trkpt lat="44.3155739" lon="8.3136925"><ele>427.99999999999994</ele><time>2026-03-26T16:24:58.789Z</time></trkpt><trkpt lat="44.315467" lon="8.3137116"><ele>428.0</ele><time>2026-03-26T16:25:00.79Z</time></trkpt><trkpt lat="44.3153794" lon="8.3137432"><ele>428.0</ele><time>2026-03-26T16:25:02.79Z</time></trkpt><trkpt lat="44.3152766" lon="8.3137835"><ele>427.4</ele><time>2026-03-26T16:25:04.789Z</time></trkpt><trkpt lat="44.3151753" lon="8.3138367"><ele>426.79999999999995</ele><time>2026-03-26T16:25:06.789Z</time></trkpt><trkpt lat="44.3150907" lon="8.3138536"><ele>426.2</ele><time>2026-03-26T16:25:08.79Z</time></trkpt><trkpt lat="44.3149992" lon="8.3138841"><ele>425.6</ele><time>2026-03-26T16:25:10.79Z</time></trkpt><trkpt lat="44.3149101" lon="8.3139223"><ele>425.0</ele><time>2026-03-26T16:25:12.79Z</time></trkpt><trkpt lat="44.3148109" lon="8.3139468"><ele>424.4</ele><time>2026-03-26T16:25:14.791Z</time></trkpt><trkpt lat="44.314719" lon="8.313928"><ele>423.8</ele><time>2026-03-26T16:25:16.789Z</time></trkpt><trkpt lat="44.3146386" lon="8.3138839"><ele>423.20000000000005</ele><time>2026-03-26T16:25:18.79Z</time></trkpt><trkpt lat="44.3145519" lon="8.3138385"><ele>422.6</ele><time>2026-03-26T16:25:20.789Z</time></trkpt><trkpt lat="44.314459" lon="8.3137961"><ele>422.0</ele><time>2026-03-26T16:25:22.79Z</time></trkpt><trkpt lat="44.3143792" lon="8.3137649"><ele>421.99999999999994</ele><time>2026-03-26T16:25:24.79Z</time></trkpt><trkpt lat="44.3142991" lon="8.3137596"><ele>422.0</ele><time>2026-03-26T16:25:26.79Z</time></trkpt><trkpt lat="44.3142337" lon="8.313772"><ele>422.0</ele><time>2026-03-26T16:25:28.791Z</time></trkpt><trkpt lat="44.3141661" lon="8.3137884"><ele>422.0</ele><time>2026-03-26T16:25:30.79Z</time></trkpt><trkpt lat="44.3140877" lon="8.3138094"><ele>421.99999999999994</ele><time>2026-03-26T16:25:32.79Z</time></trkpt><trkpt lat="44.3139998" lon="8.3138258"><ele>422.0</ele><time>2026-03-26T16:25:34.79Z</time></trkpt><trkpt lat="44.3139241" lon="8.3138338"><ele>424.49999999999994</ele><time>2026-03-26T16:25:36.79Z</time></trkpt><trkpt lat="44.3138503" lon="8.3138293"><ele>427.0</ele><time>2026-03-26T16:25:38.79Z</time></trkpt><trkpt lat="44.3137574" lon="8.3138076"><ele>429.5</ele><time>2026-03-26T16:25:41.789Z</time></trkpt><trkpt lat="44.3136877" lon="8.3137671"><ele>432.0</ele><time>2026-03-26T16:25:43.789Z</time></trkpt><trkpt lat="44.3136103" lon="8.3137036"><ele>434.49999999999994</ele><time>2026-03-26T16:25:45.789Z</time></trkpt><trkpt lat="44.3135411" lon="8.3136279"><ele>437.0</ele><time>2026-03-26T16:25:47.79Z</time></trkpt><trkpt lat="44.3134858" lon="8.3135466"><ele>437.0</ele><time>2026-03-26T16:25:49.79Z</time></trkpt><trkpt lat="44.313439" lon="8.3134643"><ele>437.0</ele><time>2026-03-26T16:25:51.791Z</time></trkpt><trkpt lat="44.3133916" lon="8.3133853"><ele>437.0</ele><time>2026-03-26T16:25:53.789Z</time></trkpt><trkpt lat="44.3133551" lon="8.3133132"><ele>437.0</ele><time>2026-03-26T16:25:55.79Z</time></trkpt><trkpt lat="44.3133527" lon="8.3134167"><ele>437.0</ele><time>2026-03-26T16:26:01.79Z</time></trkpt><trkpt lat="44.3134008" lon="8.3134813"><ele>437.0</ele><time>2026-03-26T16:26:03.791Z</time></trkpt><trkpt lat="44.3134548" lon="8.3135524"><ele>437.0</ele><time>2026-03-26T16:26:05.791Z</time></trkpt><trkpt lat="44.3135149" lon="8.3136288"><ele>437.0</ele><time>2026-03-26T16:26:07.791Z</time></trkpt><trkpt lat="44.31359" lon="8.3136956"><ele>437.00000000000006</ele><time>2026-03-26T16:26:09.79Z</time></trkpt><trkpt lat="44.31368" lon="8.3137715"><ele>437.00000000000006</ele><time>2026-03-26T16:26:11.79Z</time></trkpt><trkpt lat="44.313757" lon="8.3138034"><ele>437.0</ele><time>2026-03-26T16:26:13.791Z</time></trkpt><trkpt lat="44.3138607" lon="8.3138324"><ele>437.0</ele><time>2026-03-26T16:26:15.791Z</time></trkpt><trkpt lat="44.3139584" lon="8.3138447"><ele>434.0</ele><time>2026-03-26T16:26:17.79Z</time></trkpt><trkpt lat="44.3140538" lon="8.3138396"><ele>431.00000000000006</ele><time>2026-03-26T16:26:19.789Z</time></trkpt><trkpt lat="44.3141471" lon="8.3138309"><ele>428.0</ele><time>2026-03-26T16:26:21.79Z</time></trkpt><trkpt lat="44.3142393" lon="8.3138091"><ele>425.0</ele><time>2026-03-26T16:26:23.79Z</time></trkpt><trkpt lat="44.314321" lon="8.3138003"><ele>422.0</ele><time>2026-03-26T16:26:25.789Z</time></trkpt><trkpt lat="44.3144195" lon="8.3138158"><ele>422.0</ele><time>2026-03-26T16:26:27.791Z</time></trkpt><trkpt lat="44.314523" lon="8.3138552"><ele>422.0</ele><time>2026-03-26T16:26:29.791Z</time></trkpt><trkpt lat="44.3146144" lon="8.3138966"><ele>422.0</ele><time>2026-03-26T16:26:31.79Z</time></trkpt><trkpt lat="44.3147002" lon="8.3139369"><ele>422.0</ele><time>2026-03-26T16:26:33.791Z</time></trkpt><trkpt lat="44.3147921" lon="8.3139507"><ele>422.0</ele><time>2026-03-26T16:26:35.789Z</time></trkpt><trkpt lat="44.3148885" lon="8.313934"><ele>422.6</ele><time>2026-03-26T16:26:37.789Z</time></trkpt><trkpt lat="44.3149821" lon="8.3139063"><ele>423.20000000000005</ele><time>2026-03-26T16:26:39.79Z</time></trkpt><trkpt lat="44.3150787" lon="8.3138833"><ele>423.8</ele><time>2026-03-26T16:26:41.79Z</time></trkpt><trkpt lat="44.3151719" lon="8.3138519"><ele>424.4</ele><time>2026-03-26T16:26:43.791Z</time></trkpt><trkpt lat="44.3152627" lon="8.3138097"><ele>425.0</ele><time>2026-03-26T16:26:45.79Z</time></trkpt><trkpt lat="44.3153557" lon="8.3137894"><ele>424.99999999999994</ele><time>2026-03-26T16:26:47.789Z</time></trkpt><trkpt lat="44.315439" lon="8.3137671"><ele>425.0</ele><time>2026-03-26T16:26:49.79Z</time></trkpt><trkpt lat="44.3155258" lon="8.3137528"><ele>425.0</ele><time>2026-03-26T16:26:51.789Z</time></trkpt><trkpt lat="44.3156187" lon="8.3137422"><ele>425.0</ele><time>2026-03-26T16:26:53.789Z</time></trkpt><trkpt lat="44.3157091" lon="8.3137292"><ele>424.99999999999994</ele><time>2026-03-26T16:26:55.79Z</time></trkpt><trkpt lat="44.3157998" lon="8.3137085"><ele>425.0</ele><time>2026-03-26T16:26:57.789Z</time></trkpt><trkpt lat="44.3158882" lon="8.3137007"><ele>425.6</ele><time>2026-03-26T16:26:59.789Z</time></trkpt><trkpt lat="44.3159814" lon="8.3136958"><ele>426.2</ele><time>2026-03-26T16:27:01.79Z</time></trkpt><trkpt lat="44.3160731" lon="8.3136944"><ele>426.79999999999995</ele><time>2026-03-26T16:27:03.79Z</time></trkpt><trkpt lat="44.3161629" lon="8.3136921"><ele>427.4</ele><time>2026-03-26T16:27:05.79Z</time></trkpt><trkpt lat="44.3162561" lon="8.3137302"><ele>428.0</ele><time>2026-03-26T16:27:07.791Z</time></trkpt><trkpt lat="44.3163421" lon="8.3138018"><ele>428.2</ele><time>2026-03-26T16:27:09.791Z</time></trkpt><trkpt lat="44.3164041" lon="8.3139333"><ele>428.4</ele><time>2026-03-26T16:27:11.791Z</time></trkpt><trkpt lat="44.3164498" lon="8.3140672"><ele>428.59999999999997</ele><time>2026-03-26T16:27:13.789Z</time></trkpt><trkpt lat="44.316488" lon="8.3142028"><ele>428.79999999999995</ele><time>2026-03-26T16:27:15.79Z</time></trkpt><trkpt lat="44.316526" lon="8.3143439"><ele>429.0</ele><time>2026-03-26T16:27:17.79Z</time></trkpt><trkpt lat="44.3165638" lon="8.3144902"><ele>429.0</ele><time>2026-03-26T16:27:19.79Z</time></trkpt><trkpt lat="44.3165859" lon="8.3146403"><ele>429.0</ele><time>2026-03-26T16:27:21.789Z</time></trkpt><trkpt lat="44.3166071" lon="8.3147737"><ele>429.0</ele><time>2026-03-26T16:27:23.789Z</time></trkpt><trkpt lat="44.3166184" lon="8.3149159"><ele>429.0</ele><time>2026-03-26T16:27:25.791Z</time></trkpt><trkpt lat="44.3166231" lon="8.3150561"><ele>429.0</ele><time>2026-03-26T16:27:27.791Z</time></trkpt><trkpt lat="44.3166219" lon="8.3151936"><ele>429.0</ele><time>2026-03-26T16:27:29.79Z</time></trkpt><trkpt lat="44.3166285" lon="8.3153284"><ele>429.0</ele><time>2026-03-26T16:27:31.79Z</time></trkpt><trkpt lat="44.3166396" lon="8.3154633"><ele>429.0</ele><time>2026-03-26T16:27:33.79Z</time></trkpt><trkpt lat="44.3166496" lon="8.3156167"><ele>429.0</ele><time>2026-03-26T16:27:35.79Z</time></trkpt><trkpt lat="44.3166554" lon="8.3157705"><ele>429.0</ele><time>2026-03-26T16:27:37.792Z</time></trkpt><trkpt lat="44.3166589" lon="8.3159166"><ele>429.0</ele><time>2026-03-26T16:27:39.79Z</time></trkpt><trkpt lat="44.3166511" lon="8.3160593"><ele>429.0</ele><time>2026-03-26T16:27:41.79Z</time></trkpt><trkpt lat="44.3166501" lon="8.3162282"><ele>429.0</ele><time>2026-03-26T16:27:43.791Z</time></trkpt><trkpt lat="44.3166503" lon="8.3163963"><ele>429.0</ele><time>2026-03-26T16:27:45.79Z</time></trkpt><trkpt lat="44.3166539" lon="8.3164881"><ele>429.0</ele><time>2026-03-26T16:27:46.79Z</time></trkpt><trkpt lat="44.3166423" lon="8.3166431"><ele>428.0</ele><time>2026-03-26T16:27:48.791Z</time></trkpt><trkpt lat="44.3166209" lon="8.3168085"><ele>427.0</ele><time>2026-03-26T16:27:50.79Z</time></trkpt><trkpt lat="44.3165985" lon="8.3169684"><ele>426.0</ele><time>2026-03-26T16:27:52.789Z</time></trkpt><trkpt lat="44.3165644" lon="8.3171327"><ele>425.0</ele><time>2026-03-26T16:27:54.791Z</time></trkpt><trkpt lat="44.3165391" lon="8.3173009"><ele>423.8</ele><time>2026-03-26T16:27:56.791Z</time></trkpt><trkpt lat="44.3165101" lon="8.3174721"><ele>422.6</ele><time>2026-03-26T16:27:58.791Z</time></trkpt><trkpt lat="44.3164797" lon="8.317633"><ele>421.4</ele><time>2026-03-26T16:28:00.79Z</time></trkpt><trkpt lat="44.3164539" lon="8.3177163"><ele>420.2</ele><time>2026-03-26T16:28:01.791Z</time></trkpt><trkpt lat="44.3164283" lon="8.3178828"><ele>419.0</ele><time>2026-03-26T16:28:03.791Z</time></trkpt><trkpt lat="44.3164029" lon="8.3180493"><ele>418.79999999999995</ele><time>2026-03-26T16:28:05.79Z</time></trkpt><trkpt lat="44.316388" lon="8.3182054"><ele>418.59999999999997</ele><time>2026-03-26T16:28:07.789Z</time></trkpt><trkpt lat="44.3164234" lon="8.318368"><ele>418.4</ele><time>2026-03-26T16:28:09.789Z</time></trkpt><trkpt lat="44.3164822" lon="8.3185189"><ele>418.2</ele><time>2026-03-26T16:28:11.79Z</time></trkpt><trkpt lat="44.3165226" lon="8.3185949"><ele>418.0</ele><time>2026-03-26T16:28:12.789Z</time></trkpt><trkpt lat="44.3165685" lon="8.3186702"><ele>418.0</ele><time>2026-03-26T16:28:13.79Z</time></trkpt><trkpt lat="44.3166159" lon="8.3187458"><ele>418.0</ele><time>2026-03-26T16:28:14.789Z</time></trkpt><trkpt lat="44.3166603" lon="8.3188187"><ele>418.0</ele><time>2026-03-26T16:28:15.79Z</time></trkpt><trkpt lat="44.3167055" lon="8.3188922"><ele>418.0</ele><time>2026-03-26T16:28:16.79Z</time></trkpt><trkpt lat="44.3167586" lon="8.3189617"><ele>418.0</ele><time>2026-03-26T16:28:17.79Z</time></trkpt><trkpt lat="44.3168143" lon="8.3190353"><ele>418.0</ele><time>2026-03-26T16:28:18.79Z</time></trkpt><trkpt lat="44.3168626" lon="8.3191133"><ele>418.0</ele><time>2026-03-26T16:28:19.791Z</time></trkpt><trkpt lat="44.3169111" lon="8.3191933"><ele>419.50000000000006</ele><time>2026-03-26T16:28:20.789Z</time></trkpt><trkpt lat="44.3169633" lon="8.3192764"><ele>421.0</ele><time>2026-03-26T16:28:21.789Z</time></trkpt><trkpt lat="44.3170116" lon="8.3193611"><ele>422.5</ele><time>2026-03-26T16:28:22.791Z</time></trkpt><trkpt lat="44.3170626" lon="8.3194452"><ele>424.0</ele><time>2026-03-26T16:28:23.79Z</time></trkpt><trkpt lat="44.3171173" lon="8.3195302"><ele>425.50000000000006</ele><time>2026-03-26T16:28:24.79Z</time></trkpt><trkpt lat="44.3171707" lon="8.3196156"><ele>427.0</ele><time>2026-03-26T16:28:25.789Z</time></trkpt><trkpt lat="44.3172236" lon="8.3197029"><ele>426.0</ele><time>2026-03-26T16:28:26.79Z</time></trkpt><trkpt lat="44.3172764" lon="8.3197873"><ele>425.0</ele><time>2026-03-26T16:28:27.791Z</time></trkpt><trkpt lat="44.3173266" lon="8.3198722"><ele>424.0</ele><time>2026-03-26T16:28:28.79Z</time></trkpt><trkpt lat="44.3173767" lon="8.3199522"><ele>423.0</ele><time>2026-03-26T16:28:29.789Z</time></trkpt><trkpt lat="44.3174343" lon="8.320015"><ele>422.0</ele><time>2026-03-26T16:28:30.791Z</time></trkpt><trkpt lat="44.3174907" lon="8.3200664"><ele>421.0</ele><time>2026-03-26T16:28:31.791Z</time></trkpt><trkpt lat="44.31756" lon="8.3200971"><ele>420.0</ele><time>2026-03-26T16:28:32.791Z</time></trkpt><trkpt lat="44.3176319" lon="8.320114"><ele>420.0</ele><time>2026-03-26T16:28:33.791Z</time></trkpt><trkpt lat="44.3176997" lon="8.3201281"><ele>420.0</ele><time>2026-03-26T16:28:34.79Z</time></trkpt><trkpt lat="44.3177634" lon="8.3201402"><ele>420.0</ele><time>2026-03-26T16:28:35.789Z</time></trkpt><trkpt lat="44.3178258" lon="8.3201545"><ele>420.0</ele><time>2026-03-26T16:28:36.79Z</time></trkpt><trkpt lat="44.3179344" lon="8.320167"><ele>420.0</ele><time>2026-03-26T16:28:38.789Z</time></trkpt><trkpt lat="44.3180472" lon="8.3201757"><ele>420.0</ele><time>2026-03-26T16:28:40.79Z</time></trkpt><trkpt lat="44.3181559" lon="8.3201908"><ele>419.6</ele><time>2026-03-26T16:28:42.791Z</time></trkpt><trkpt lat="44.3182461" lon="8.320232"><ele>419.2</ele><time>2026-03-26T16:28:44.792Z</time></trkpt><trkpt lat="44.3183215" lon="8.3203207"><ele>418.79999999999995</ele><time>2026-03-26T16:28:46.79Z</time></trkpt><trkpt lat="44.3183811" lon="8.3204411"><ele>418.4</ele><time>2026-03-26T16:28:48.791Z</time></trkpt><trkpt lat="44.3184371" lon="8.3205746"><ele>418.0</ele><time>2026-03-26T16:28:50.789Z</time></trkpt><trkpt lat="44.3184962" lon="8.3207047"><ele>418.0</ele><time>2026-03-26T16:28:52.79Z</time></trkpt><trkpt lat="44.3185466" lon="8.3208378"><ele>418.0</ele><time>2026-03-26T16:28:54.791Z</time></trkpt><trkpt lat="44.3186024" lon="8.3209701"><ele>418.0</ele><time>2026-03-26T16:28:56.79Z</time></trkpt><trkpt lat="44.3186546" lon="8.321113"><ele>418.0</ele><time>2026-03-26T16:28:58.789Z</time></trkpt><trkpt lat="44.3187068" lon="8.321259"><ele>418.0</ele><time>2026-03-26T16:29:00.79Z</time></trkpt><trkpt lat="44.3187655" lon="8.3214057"><ele>418.4</ele><time>2026-03-26T16:29:02.791Z</time></trkpt><trkpt lat="44.3188098" lon="8.321546"><ele>418.79999999999995</ele><time>2026-03-26T16:29:04.79Z</time></trkpt><trkpt lat="44.3188666" lon="8.3216715"><ele>419.2</ele><time>2026-03-26T16:29:06.789Z</time></trkpt><trkpt lat="44.3189272" lon="8.3217828"><ele>419.6</ele><time>2026-03-26T16:29:08.792Z</time></trkpt><trkpt lat="44.3189964" lon="8.3218774"><ele>420.0</ele><time>2026-03-26T16:29:10.79Z</time></trkpt><trkpt lat="44.3190633" lon="8.3219787"><ele>419.4</ele><time>2026-03-26T16:29:12.79Z</time></trkpt><trkpt lat="44.3191319" lon="8.3220722"><ele>418.8</ele><time>2026-03-26T16:29:14.79Z</time></trkpt><trkpt lat="44.3191986" lon="8.3221703"><ele>418.20000000000005</ele><time>2026-03-26T16:29:16.791Z</time></trkpt><trkpt lat="44.3192622" lon="8.3222641"><ele>417.6</ele><time>2026-03-26T16:29:18.789Z</time></trkpt><trkpt lat="44.3193279" lon="8.3223379"><ele>417.0</ele><time>2026-03-26T16:29:20.791Z</time></trkpt><trkpt lat="44.3194034" lon="8.3224182"><ele>417.0</ele><time>2026-03-26T16:29:22.79Z</time></trkpt><trkpt lat="44.3194723" lon="8.3225"><ele>417.0</ele><time>2026-03-26T16:29:24.79Z</time></trkpt><trkpt lat="44.3195447" lon="8.3225864"><ele>417.0</ele><time>2026-03-26T16:29:26.79Z</time></trkpt><trkpt lat="44.31962" lon="8.3226589"><ele>417.0</ele><time>2026-03-26T16:29:28.79Z</time></trkpt><trkpt lat="44.3197061" lon="8.3227474"><ele>417.0</ele><time>2026-03-26T16:29:30.791Z</time></trkpt><trkpt lat="44.3197767" lon="8.3228305"><ele>416.8</ele><time>2026-03-26T16:29:32.789Z</time></trkpt><trkpt lat="44.3198644" lon="8.3229007"><ele>416.6</ele><time>2026-03-26T16:29:34.79Z</time></trkpt><trkpt lat="44.319958" lon="8.3229507"><ele>416.40000000000003</ele><time>2026-03-26T16:29:36.789Z</time></trkpt><trkpt lat="44.3200373" lon="8.3229983"><ele>416.20000000000005</ele><time>2026-03-26T16:29:38.791Z</time></trkpt><trkpt lat="44.3201238" lon="8.3230548"><ele>416.0</ele><time>2026-03-26T16:29:40.791Z</time></trkpt><trkpt lat="44.3202126" lon="8.3230985"><ele>415.99999999999994</ele><time>2026-03-26T16:29:42.79Z</time></trkpt><trkpt lat="44.3202956" lon="8.323147"><ele>416.0</ele><time>2026-03-26T16:29:44.791Z</time></trkpt><trkpt lat="44.3203844" lon="8.3231955"><ele>416.0</ele><time>2026-03-26T16:29:46.79Z</time></trkpt><trkpt lat="44.3204643" lon="8.3232494"><ele>416.0</ele><time>2026-03-26T16:29:48.79Z</time></trkpt><trkpt lat="44.3205447" lon="8.3232914"><ele>415.99999999999994</ele><time>2026-03-26T16:29:50.79Z</time></trkpt><trkpt lat="44.3206243" lon="8.3233316"><ele>416.0</ele><time>2026-03-26T16:29:52.789Z</time></trkpt><trkpt lat="44.320698" lon="8.3233685"><ele>414.99999999999994</ele><time>2026-03-26T16:29:54.79Z</time></trkpt><trkpt lat="44.3207717" lon="8.3234084"><ele>414.0</ele><time>2026-03-26T16:29:56.789Z</time></trkpt><trkpt lat="44.3208419" lon="8.3234514"><ele>413.0</ele><time>2026-03-26T16:29:58.79Z</time></trkpt><trkpt lat="44.3209132" lon="8.3235048"><ele>412.0</ele><time>2026-03-26T16:30:00.79Z</time></trkpt><trkpt lat="44.3209874" lon="8.3235533"><ele>410.99999999999994</ele><time>2026-03-26T16:30:02.791Z</time></trkpt><trkpt lat="44.3210797" lon="8.3236016"><ele>410.0</ele><time>2026-03-26T16:30:04.79Z</time></trkpt><trkpt lat="44.3211585" lon="8.3236536"><ele>409.99999999999994</ele><time>2026-03-26T16:30:06.791Z</time></trkpt><trkpt lat="44.3212304" lon="8.3236819"><ele>410.0</ele><time>2026-03-26T16:30:08.791Z</time></trkpt><trkpt lat="44.321299" lon="8.3237054"><ele>410.0</ele><time>2026-03-26T16:30:10.79Z</time></trkpt><trkpt lat="44.3213682" lon="8.3237374"><ele>410.0</ele><time>2026-03-26T16:30:12.79Z</time></trkpt><trkpt lat="44.3214427" lon="8.323766"><ele>409.99999999999994</ele><time>2026-03-26T16:30:14.791Z</time></trkpt><trkpt lat="44.3215199" lon="8.3238046"><ele>410.0</ele><time>2026-03-26T16:30:16.791Z</time></trkpt><trkpt lat="44.3215945" lon="8.3238383"><ele>409.8571428571429</ele><time>2026-03-26T16:30:18.791Z</time></trkpt><trkpt lat="44.3216687" lon="8.3238703"><ele>409.71428571428567</ele><time>2026-03-26T16:30:20.792Z</time></trkpt><trkpt lat="44.3217349" lon="8.3239111"><ele>409.57142857142856</ele><time>2026-03-26T16:30:22.789Z</time></trkpt><trkpt lat="44.3217599" lon="8.3239921"><ele>409.42857142857144</ele><time>2026-03-26T16:30:26.791Z</time></trkpt><trkpt lat="44.3217169" lon="8.3240726"><ele>409.28571428571433</ele><time>2026-03-26T16:30:29.79Z</time></trkpt><trkpt lat="44.321752" lon="8.3239984"><ele>409.1428571428571</ele><time>2026-03-26T16:30:40.791Z</time></trkpt><trkpt lat="44.3217383" lon="8.3241065"><ele>409.0</ele><time>2026-03-26T16:30:55.79Z</time></trkpt><trkpt lat="44.3217245" lon="8.3240155"><ele>409.0</ele><time>2026-03-26T16:31:00.79Z</time></trkpt><trkpt lat="44.3217449" lon="8.3241006"><ele>409.0</ele><time>2026-03-26T16:31:44.791Z</time></trkpt><trkpt lat="44.3217241" lon="8.3240144"><ele>409.0</ele><time>2026-03-26T16:31:47.79Z</time></trkpt><trkpt lat="44.3217365" lon="8.3241027"><ele>409.0</ele><time>2026-03-26T16:32:15.791Z</time></trkpt></trkseg></trk></gpx>